GFSNGP_850_thetae_000.txt.gz
Theta_e
330 329 329 328 326 326 327 328 334 334 333 334 335 334 333 332 334 340 346 346 348 349 351 352 351 352 354 354 355 355 357 357 358 358 355 349 338 337 335 329 323 324 326 326
334 331 330 329 328 326 326 327 328 330 332 333 333 331 332 332 332 340 345 346 348 350 352 355 355 355 355 356 355 356 357 358 358 358 355 351 347 342 343 338 333 329 325 324
337 334 332 333 331 329 327 327 328 329 330 331 331 333 334 333 337 340 344 345 347 349 351 354 355 356 356 356 355 356 357 357 358 355 351 349 349 347 345 345 341 334 325 328
338 337 337 331 331 330 328 327 328 329 331 331 332 334 336 338 336 339 344 345 346 347 350 352 352 352 352 347 341 352 352 356 355 349 347 347 347 347 346 344 340 331 330 332
336 336 335 334 335 330 329 328 328 330 332 332 332 335 340 338 338 341 345 347 347 347 349 348 348 345 339 340 341 348 351 351 345 344 346 347 347 347 345 343 338 339 336 336
336 336 337 339 338 336 338 338 330 330 332 332 336 338 335 340 337 338 342 344 345 344 345 345 339 333 333 343 339 337 335 337 339 344 347 349 348 346 344 342 340 339 338 336
335 337 336 338 335 336 341 335 331 335 336 337 340 342 341 339 340 342 344 345 345 344 342 333 333 341 345 345 340 334 334 336 340 346 350 348 346 343 343 339 338 338 337 337
336 339 338 334 336 342 341 338 339 339 339 340 340 341 343 343 344 344 343 341 340 341 339 343 342 341 334 335 333 334 340 340 345 350 348 346 344 344 343 339 338 337 336 337
335 334 335 332 334 336 337 339 339 339 339 339 338 340 341 340 340 340 339 339 340 344 345 343 338 346 341 333 332 335 337 344 349 348 347 345 343 343 340 342 339 338 337 338
337 335 333 332 332 333 334 335 335 336 336 336 337 337 337 339 340 342 344 343 342 343 340 330 330 330 330 332 335 338 341 344 345 347 346 345 343 342 340 340 339 338 339 337
335 333 330 329 329 330 330 332 333 334 334 335 339 341 342 343 343 343 344 344 343 343 345 333 332 333 335 338 342 343 344 346 348 347 344 343 342 341 340 338 337 336 334 332
334 332 330 324 324 325 326 327 328 329 329 330 332 334 339 341 343 345 345 345 346 346 344 343 340 342 344 344 348 350 350 347 346 344 343 341 339 338 336 335 329 327 327 328
331 327 322 322 322 321 321 322 323 324 325 325 326 326 328 330 332 334 330 335 346 346 347 345 346 347 346 345 346 345 344 341 341 340 338 338 337 335 332 328 327 328 326 326
323 321 321 321 319 320 321 320 320 320 321 321 321 322 323 324 326 328 325 333 337 344 345 344 344 345 343 342 342 342 342 337 338 337 336 335 334 333 333 333 330 326 325 326
319 320 320 319 318 321 320 320 319 320 321 321 322 322 323 323 322 323 325 328 332 335 339 345 344 343 342 341 340 337 334 334 334 333 332 331 331 331 331 331 329 328 326 325
319 319 318 320 321 320 319 321 321 322 322 323 324 324 326 327 326 325 325 327 327 330 335 339 343 342 340 336 333 332 331 330 331 332 332 332 332 331 330 330 329 329 325 323
317 317 315 319 319 319 317 319 321 321 322 322 323 324 325 327 328 329 330 329 331 331 334 338 342 338 336 333 333 332 331 330 331 331 330 328 327 326 326 326 326 325 325 324
321 318 315 317 320 320 321 321 322 322 322 322 322 323 326 328 330 330 331 332 333 331 335 339 341 337 336 334 331 331 331 329 327 324 324 324 327 327 327 326 325 324 324 324
319 319 319 320 320 320 320 320 321 322 322 321 322 324 326 328 330 330 331 331 334 334 334 335 336 334 333 329 328 329 328 326 327 328 328 327 327 326 326 325 325 325 324 323
318 318 318 318 319 320 320 321 320 320 322 322 323 323 325 327 328 329 331 331 331 332 330 329 331 328 326 326 326 328 328 328 327 326 325 324 324 324 324 324 324 323 323 322
318 318 318 318 318 320 321 321 320 321 323 323 324 324 325 325 326 327 327 327 326 328 328 327 329 328 327 324 325 326 325 325 324 324 323 322 323 322 322 321 321 320 319 319
319 318 318 318 318 319 321 322 322 323 323 323 323 323 323 323 325 325 325 325 326 325 326 325 325 324 323 322 323 321 320 319 319 319 318 318 318 318 318 317 316 316 316 316
318 319 318 318 319 319 319 319 321 323 323 323 323 321 320 320 320 322 324 322 323 322 324 322 316 314 313 318 317 316 316 315 315 315 314 314 314 314 314 314 314 313 312 312
320 319 320 320 319 318 318 319 318 319 320 321 320 320 317 315 318 319 321 321 319 319 322 320 314 314 314 317 316 315 314 314 313 313 312 310 309 310 311 312 312 312 311 311
320 320 319 319 316 316 317 317 317 315 317 319 318 317 317 316 316 315 317 318 317 319 322 320 316 315 315 317 317 316 316 315 314 313 313 312 311 310 309 310 311 312 311 310
315 316 317 316 316 315 315 315 315 315 314 315 315 316 316 316 316 316 316 316 316 316 316 318 320 319 318 317 317 317 316 315 314 313 312 311 311 311 310 309 308 308 308 308
312 312 313 313 312 313 313 314 314 314 314 313 314 314 315 314 314 314 314 315 315 316 316 316 316 317 317 315 316 316 315 314 314 313 313 312 312 311 310 309 308 308 308 308

GFSNGP_850_thetae_003.txt.gz
Theta_e
331 332 331 329 327 327 327 330 332 334 335 337 338 337 336 334 333 334 335 342 347 348 348 349 348 348 348 347 348 351 354 356 356 358 357 355 354 346 340 328 319 319 320 316
332 331 330 330 330 327 327 327 329 330 332 334 335 335 335 334 333 333 334 335 346 349 350 353 351 352 351 350 351 354 356 357 359 360 360 357 354 352 348 339 328 326 322 317
338 335 334 333 331 330 330 329 328 328 330 331 334 336 337 334 334 333 334 334 341 348 351 353 353 354 354 355 353 356 356 359 360 361 360 360 357 355 352 344 337 333 324 320
336 337 338 334 335 333 331 331 330 329 329 330 334 333 333 332 333 333 333 333 338 346 351 354 354 354 354 357 356 358 358 360 360 360 359 359 357 353 350 348 343 338 332 327
337 338 339 337 339 339 341 338 333 332 330 329 330 330 333 330 331 333 333 336 340 348 351 355 355 355 357 358 359 359 361 359 361 360 357 353 350 347 347 347 347 343 337 335
338 338 339 335 339 338 337 338 333 333 332 329 330 334 335 332 336 340 339 337 343 349 351 356 356 358 357 357 358 357 359 359 360 351 345 343 343 345 347 348 349 344 341 338
334 336 335 340 338 337 339 339 344 341 340 338 331 333 342 343 342 341 339 346 351 350 354 354 353 354 354 354 355 356 355 356 356 346 343 344 346 348 347 345 345 343 341 340
332 334 335 337 337 339 343 339 341 341 340 341 330 340 344 344 344 343 344 347 348 350 351 351 350 350 351 350 349 351 352 356 348 345 345 348 349 349 346 344 342 341 340 342
331 334 340 337 338 337 338 339 340 341 340 341 343 344 345 346 348 348 347 348 348 348 346 346 348 349 351 353 353 355 356 351 346 352 351 350 347 345 343 341 344 343 343 341
335 338 338 336 335 335 335 337 338 340 341 342 343 344 343 342 342 341 342 344 346 347 350 353 351 352 358 358 357 357 354 346 348 353 351 349 345 343 342 342 341 343 342 341
339 337 334 332 332 333 334 335 335 337 339 341 341 342 343 344 344 344 344 343 345 348 350 352 354 356 355 356 356 350 350 353 351 350 348 348 345 343 342 343 341 342 340 337
337 336 333 329 328 329 329 329 329 331 332 334 338 340 343 345 345 345 345 345 346 346 348 350 352 353 352 353 355 353 354 352 350 346 347 344 343 342 342 339 338 337 335 333
333 329 324 323 323 322 322 322 323 324 326 327 328 328 329 331 334 337 342 343 344 344 346 348 350 352 351 354 351 348 348 346 346 346 344 343 341 340 338 337 335 329 327 327
327 327 326 325 321 320 322 320 321 322 323 324 324 325 326 326 327 328 332 335 341 343 345 347 347 348 349 348 348 349 347 345 343 344 342 341 340 338 335 334 332 329 328 327
323 325 324 324 323 320 320 322 321 321 323 325 325 326 327 326 325 325 327 329 332 337 342 343 345 345 345 347 348 346 343 341 341 339 338 337 335 334 333 333 332 331 328 324
321 321 321 321 318 321 321 319 322 323 322 324 325 326 328 329 329 328 327 328 329 331 335 340 343 343 343 343 342 340 339 338 337 336 335 334 333 332 331 330 329 330 329 325
318 320 321 320 320 320 319 318 319 320 324 323 322 327 328 329 331 332 332 330 331 331 334 337 341 341 342 339 336 334 334 334 334 335 333 332 331 330 329 327 327 326 327 326
317 316 317 317 319 319 319 322 322 324 324 323 324 327 329 330 332 332 332 332 332 333 334 337 339 339 339 338 336 334 333 333 332 332 330 328 328 328 327 326 326 325 325 325
316 320 321 322 321 321 321 321 323 324 324 324 325 326 328 329 329 330 332 333 334 332 334 335 336 337 337 337 335 333 332 331 330 328 328 328 328 328 326 326 325 325 326 326
317 318 320 319 320 321 321 321 322 322 324 324 325 326 326 326 328 330 332 331 331 332 333 335 336 335 336 334 331 331 330 329 329 329 329 328 326 325 325 325 324 324 324 323
318 318 319 320 320 321 322 322 321 323 324 324 324 324 324 325 325 327 328 329 331 332 330 332 332 332 330 328 328 330 330 328 327 326 326 325 324 323 323 323 322 322 321 322
319 319 319 319 319 321 322 322 323 324 324 324 323 323 323 324 325 326 327 326 328 328 328 328 328 328 328 326 327 327 326 326 325 324 323 322 322 321 321 321 321 320 319 318
319 318 318 318 319 320 320 321 321 323 323 323 322 321 320 320 321 323 324 324 325 324 323 323 322 323 321 322 322 322 321 321 320 319 318 318 317 317 317 317 316 316 315 314
319 320 321 320 319 319 319 318 319 319 319 322 319 319 318 317 318 318 320 321 319 319 322 320 317 315 316 319 319 318 317 317 316 315 315 314 313 312 312 313 314 314 314 313
320 319 319 319 318 319 319 318 319 318 318 320 320 319 319 318 317 317 316 319 318 317 321 321 317 316 316 317 318 318 317 317 316 316 315 314 314 314 312 311 311 313 313 313
318 318 318 317 317 316 316 316 316 316 315 316 316 316 317 316 316 316 317 317 317 317 316 318 320 319 318 317 317 317 318 318 317 316 315 314 313 313 313 312 312 311 310 310
314 314 314 314 313 313 313 313 314 314 314 314 313 314 315 316 316 315 316 316 316 316 316 317 317 318 318 318 318 317 317 317 316 316 315 315 315 314 313 313 312 311 310 310

GFSNGP_850_thetae_006.txt.gz
Theta_e
330 330 332 332 330 330 330 331 332 332 334 340 340 342 340 337 336 336 337 343 343 345 346 348 348 349 349 350 352 354 357 360 360 358 353 352 349 336 344 349 350 348 348 347
333 332 331 333 332 330 329 330 331 331 332 334 337 336 341 337 337 338 336 335 345 342 345 349 349 349 349 348 350 350 352 357 358 359 360 359 355 353 356 356 357 355 350 346
335 332 332 333 333 332 331 329 329 330 332 334 334 337 340 340 338 338 336 335 336 347 346 348 352 349 349 348 349 349 350 355 354 357 359 359 357 357 357 357 357 356 352 344
336 336 336 333 332 331 331 331 330 331 332 333 334 332 331 331 333 334 337 335 333 333 347 349 354 354 351 351 349 349 350 354 354 355 359 358 358 358 357 357 357 356 351 345
338 339 336 335 334 335 334 334 334 333 335 332 331 330 331 330 330 331 330 337 335 333 334 347 352 354 354 354 350 352 351 358 357 361 364 361 360 360 359 357 360 355 350 343
337 336 341 339 339 338 338 339 342 342 342 340 337 334 333 330 332 332 330 332 335 337 337 347 352 354 355 357 356 353 355 359 363 364 364 362 361 360 358 358 351 350 349 344
335 335 334 338 338 336 340 341 342 342 342 341 342 341 340 341 340 342 333 332 335 340 349 350 353 356 356 358 361 358 361 364 365 365 362 360 359 355 353 349 350 350 348 345
336 340 341 337 337 340 342 340 339 339 340 340 340 339 338 342 343 338 344 341 345 352 352 356 358 359 361 361 363 363 364 364 365 363 361 357 352 349 349 348 347 346 345 343
330 333 335 338 341 340 339 339 341 342 341 338 338 340 344 346 347 347 347 347 352 357 358 358 359 360 360 360 361 362 361 361 362 358 351 349 348 350 348 347 345 344 342 341
331 333 339 338 337 337 338 342 342 343 344 346 345 344 345 346 347 349 350 351 353 354 355 356 356 357 357 356 356 356 357 354 352 349 349 349 348 348 346 344 343 342 343 341
333 343 339 337 337 337 337 338 338 337 337 338 344 345 348 347 348 349 349 350 353 354 357 356 358 358 358 358 357 352 350 352 348 351 348 349 349 347 343 342 342 342 342 339
342 338 337 335 334 332 332 332 332 332 332 331 333 335 339 344 346 348 349 350 351 353 355 354 357 356 356 354 353 350 351 349 350 349 348 348 347 344 344 342 343 341 340 340
327 331 327 326 325 325 325 325 326 327 329 329 329 330 331 334 339 345 346 347 349 351 353 353 354 354 354 352 351 342 345 349 350 348 347 346 343 341 342 342 339 338 337 335
325 325 325 325 324 323 323 325 325 326 326 327 328 327 327 328 329 333 338 343 345 347 348 350 349 350 350 352 351 350 350 350 349 346 347 343 343 341 339 337 337 335 329 327
327 325 325 325 324 323 324 324 324 323 325 327 328 329 330 329 328 328 330 331 339 343 345 348 348 347 347 348 349 349 348 346 346 347 344 342 340 340 340 337 333 331 330 326
323 323 323 323 322 322 323 322 324 324 324 322 324 330 330 331 333 333 331 331 335 338 343 343 343 345 345 345 345 346 344 344 343 341 340 339 338 336 334 334 334 333 330 328
322 321 321 322 323 321 320 321 321 323 323 322 324 325 331 332 333 329 332 333 332 334 336 339 342 342 341 342 342 342 340 340 339 337 337 335 334 333 332 331 331 330 330 329
320 321 319 320 318 318 318 321 322 323 317 321 325 327 329 330 331 332 331 334 334 335 335 339 338 339 340 338 337 336 334 336 335 335 333 333 332 330 329 328 327 328 329 328
319 321 322 322 323 322 321 322 323 324 325 324 325 327 328 329 329 330 331 334 332 334 331 334 337 335 337 337 338 335 333 332 333 332 331 330 329 330 329 328 327 327 326 325
320 320 320 322 321 321 322 322 322 323 324 325 325 325 326 326 327 328 326 327 330 330 330 331 330 333 336 335 333 333 332 331 330 330 329 328 328 328 327 326 326 327 327 327
319 320 321 322 322 323 322 322 324 323 323 324 324 324 324 325 327 328 328 327 329 331 329 330 332 333 332 332 330 331 331 330 329 329 328 328 325 325 325 325 324 324 324 324
319 319 320 321 322 322 323 324 324 323 324 322 322 321 321 323 322 325 326 326 327 327 326 328 329 329 329 328 329 327 327 327 327 326 326 325 324 324 323 323 323 323 322 321
320 320 320 320 320 320 319 321 321 322 323 320 321 321 320 321 324 324 321 322 324 324 324 323 323 326 325 322 324 323 324 323 323 322 321 321 320 319 319 319 319 319 319 317
320 321 320 320 319 320 319 320 320 320 322 320 320 319 319 318 319 322 320 320 317 319 322 322 321 317 319 320 321 320 320 319 318 318 317 316 316 315 314 313 314 315 316 316
318 319 318 318 317 317 317 316 317 317 318 319 318 317 318 317 318 318 319 320 319 318 319 318 317 317 316 317 318 319 319 319 318 318 317 316 316 316 315 314 313 312 313 314
317 316 316 314 314 314 314 315 315 315 315 316 315 315 316 317 317 317 317 316 317 317 318 318 319 319 319 319 317 317 317 318 318 317 317 317 315 314 314 314 314 313 312 312
314 313 314 313 312 311 311 311 311 312 312 312 313 313 314 315 316 315 315 316 316 316 316 317 317 318 318 317 317 317 318 318 318 318 317 316 316 315 315 315 314 314 313 312

GFSNGP_850_thetae_009.txt.gz
Theta_e
327 328 327 327 328 327 326 324 324 324 324 325 327 337 337 339 339 337 338 343 347 349 348 348 351 352 353 353 353 352 354 355 353 350 349 342 344 340 339 348 350 353 353 352
330 329 328 328 329 330 327 326 326 326 326 327 326 329 341 339 336 336 338 342 342 346 348 348 349 351 353 354 354 352 352 353 353 353 353 351 348 342 345 347 350 354 356 354
327 330 330 329 327 329 330 328 327 326 326 326 326 328 336 337 338 335 335 342 344 343 346 348 347 347 350 351 352 352 350 352 352 353 354 354 355 354 354 355 358 357 357 356
327 331 333 331 330 330 331 332 328 327 327 328 327 330 332 331 330 333 336 335 339 336 341 344 349 348 347 349 352 352 350 350 351 352 352 355 357 358 359 359 359 358 357 358
327 329 330 332 331 332 330 330 334 340 340 335 335 332 330 329 329 330 332 334 332 336 337 335 345 349 348 350 350 351 351 348 350 349 350 356 359 359 361 361 360 360 358 357
326 329 331 331 336 336 336 339 342 342 342 341 339 336 329 337 341 333 331 329 332 331 332 337 343 347 353 349 350 350 350 349 348 351 351 357 361 360 362 360 355 354 359 354
331 328 333 337 337 336 339 344 341 341 341 342 341 341 339 336 341 339 339 334 333 330 331 334 340 347 354 353 350 349 349 351 350 352 356 359 361 360 357 356 354 356 353 350
333 335 336 338 337 340 342 344 346 346 347 341 339 337 338 340 342 342 341 338 342 338 333 333 341 348 354 354 352 352 353 353 357 358 360 362 360 358 356 355 356 351 348 347
325 331 336 336 336 337 340 344 345 346 348 346 347 349 350 347 345 346 346 343 343 349 349 344 345 351 355 357 357 355 357 361 366 365 367 367 358 355 356 350 348 348 346 345
333 328 333 333 333 342 338 338 338 343 344 345 345 347 349 351 351 351 351 356 354 357 362 362 360 358 357 359 362 361 361 366 367 366 364 361 357 349 345 347 346 346 345 343
333 336 337 337 338 340 338 336 333 335 337 339 342 341 345 348 351 354 356 357 357 358 359 360 362 362 362 362 363 364 364 362 362 363 361 356 348 347 347 346 345 342 341 341
335 329 331 333 329 333 332 331 330 331 331 330 334 339 342 342 345 347 348 349 356 358 359 360 359 359 359 360 359 359 357 358 358 356 347 347 347 346 346 344 342 342 341 340
329 325 326 325 325 327 327 327 329 329 330 327 326 332 338 339 341 341 343 339 351 355 357 355 353 352 353 350 352 351 352 352 350 344 346 346 347 345 344 340 340 341 340 339
326 325 325 324 324 325 324 325 327 328 329 330 330 326 333 335 333 335 330 334 344 345 348 348 348 353 352 352 352 351 348 345 345 346 347 347 347 345 340 338 339 340 338 336
325 324 323 324 325 325 325 322 322 324 327 329 331 332 333 332 331 330 332 334 343 348 350 345 348 349 350 349 345 345 346 349 348 347 346 347 345 342 338 337 337 336 334 330
325 323 323 323 324 324 323 323 322 323 323 328 330 332 332 332 331 332 333 333 336 339 341 342 346 346 348 350 350 349 347 349 348 347 344 342 339 339 338 339 336 333 332 329
323 323 323 322 321 322 321 319 320 322 323 326 328 328 325 330 331 325 324 332 333 335 341 342 340 339 338 342 340 340 341 340 340 341 340 339 339 338 337 335 334 333 331 329
319 319 319 319 320 322 322 324 320 318 324 324 322 327 328 329 325 326 329 329 326 326 334 336 340 340 338 336 329 334 334 336 338 338 338 337 336 334 332 332 333 332 330 328
321 321 322 323 322 322 322 324 323 324 324 325 325 320 324 323 327 327 324 324 325 321 324 332 331 334 338 336 335 336 337 336 335 334 333 333 331 329 328 328 328 328 327 328
322 322 321 322 323 323 323 324 324 325 324 325 326 325 325 326 326 327 327 329 328 329 327 327 330 330 333 333 332 331 330 331 332 332 331 330 330 329 328 328 327 327 326 326
321 321 322 323 322 324 324 324 324 324 324 323 322 322 325 325 325 325 327 328 328 329 329 331 332 332 333 333 331 330 330 330 330 329 329 328 328 328 327 327 326 326 326 325
321 321 322 322 321 320 319 322 323 322 321 321 321 321 322 323 324 324 324 324 325 327 326 327 328 328 327 328 328 327 328 328 328 328 328 326 325 324 324 324 324 323 325 324
320 320 319 320 321 321 322 320 321 322 321 320 319 319 320 324 321 318 318 316 318 322 324 322 325 325 323 323 322 322 323 323 322 323 325 324 322 320 320 319 320 323 323 321
319 318 318 317 316 317 317 318 320 320 320 318 318 318 317 319 320 320 321 318 318 319 318 319 320 319 320 320 320 319 322 320 319 319 318 317 317 317 316 316 316 315 315 316
317 314 313 313 313 313 314 315 314 315 316 316 315 315 316 316 316 318 318 317 317 318 319 318 316 317 318 318 318 317 318 318 318 318 317 317 316 316 315 315 314 313 312 313
314 311 310 310 309 309 310 311 311 312 312 312 312 313 315 315 315 314 315 315 315 316 316 317 318 319 320 317 318 317 318 318 318 318 317 317 316 316 315 315 314 314 313 313
310 310 309 308 307 308 308 308 308 310 310 311 313 313 313 312 313 313 313 313 311 312 312 315 315 315 315 316 315 316 316 317 318 317 317 316 316 316 316 315 314 314 314 313

GFSNGP_850_thetae_012.txt.gz
Theta_e
321 323 324 324 324 324 322 322 322 323 319 320 320 321 324 328 337 339 341 338 339 343 345 346 347 348 348 348 348 348 349 350 351 350 350 351 349 343 340 342 342 344 349 351
322 324 325 326 326 326 325 324 323 320 320 319 321 324 327 330 333 338 337 339 338 343 345 346 347 347 348 349 348 349 349 349 349 350 351 351 350 348 340 340 344 346 347 350
319 322 325 326 327 326 325 324 324 322 321 320 321 323 324 328 330 333 339 338 342 345 345 346 347 347 349 349 349 351 350 350 350 350 349 350 350 350 348 343 344 350 351 353
319 321 327 327 327 326 325 326 325 323 322 322 323 326 326 328 330 332 335 338 337 346 346 347 348 347 347 349 350 351 351 350 350 350 349 349 350 349 351 351 351 352 353 354
321 323 324 330 329 326 324 326 334 326 329 325 325 326 329 330 331 330 332 335 339 342 346 347 347 347 348 350 351 352 352 351 350 350 350 351 350 349 351 354 355 355 355 357
322 325 328 326 332 332 329 343 339 339 337 335 329 326 326 337 335 329 328 330 334 335 333 335 346 346 346 349 350 351 351 350 349 350 351 351 351 353 353 354 355 357 358 357
324 329 326 334 334 333 334 332 338 338 338 336 336 333 338 337 337 337 332 329 329 332 334 332 334 347 346 347 348 346 346 348 352 352 351 350 353 357 355 354 358 360 358 356
327 333 338 325 333 333 332 344 346 347 344 347 347 343 345 341 341 340 337 337 336 332 331 329 332 332 340 346 344 345 348 352 354 354 353 354 355 359 357 356 356 355 356 355
324 330 323 326 335 341 342 342 344 345 345 346 347 348 347 348 349 349 345 341 338 336 336 332 332 333 335 339 344 349 350 352 353 354 354 354 357 359 357 357 355 357 356 355
327 326 328 337 340 336 340 341 342 342 343 344 346 348 350 350 349 350 354 360 361 360 357 341 337 336 344 339 343 350 350 351 352 353 355 356 359 358 356 357 354 354 351 346
326 326 327 330 334 334 333 335 336 339 341 342 343 343 346 348 350 352 353 353 352 349 356 360 361 345 349 351 352 352 351 352 355 358 358 361 363 358 355 353 352 348 343 343
332 326 327 326 332 330 330 331 328 328 331 336 339 339 341 342 340 339 343 344 345 338 337 333 345 353 358 357 354 353 357 358 359 362 362 361 356 351 348 346 345 342 340 339
327 325 325 325 325 327 328 329 329 327 326 328 334 334 334 335 331 330 331 332 332 332 330 333 336 334 357 361 359 357 357 360 359 354 353 347 332 332 346 344 342 340 340 339
325 325 325 325 324 325 326 329 330 332 332 332 332 331 332 331 332 333 336 335 337 333 335 338 342 335 356 357 355 359 357 354 354 352 350 342 341 344 343 341 341 342 340 339
325 325 324 323 323 323 326 327 330 331 332 332 331 331 332 333 334 334 337 340 339 335 340 340 345 347 347 349 351 350 352 352 351 348 347 346 346 344 342 339 338 338 338 337
323 324 323 324 326 325 322 324 327 328 328 328 329 330 327 326 329 331 331 337 340 341 342 343 344 346 346 347 344 347 347 346 347 347 348 347 345 343 339 339 335 335 335 335
322 322 323 324 325 324 324 323 323 325 328 328 326 323 324 323 324 326 325 327 335 337 338 340 341 342 343 345 346 347 346 348 347 346 346 343 340 336 332 325 331 333 333 333
321 321 321 322 320 320 320 319 325 325 320 322 324 324 324 323 325 324 323 326 324 326 332 333 336 336 334 333 335 334 338 338 336 337 338 338 336 334 334 335 333 331 332 331
321 321 320 321 322 323 324 324 324 325 325 324 325 326 326 326 326 326 326 325 326 325 325 331 332 330 334 333 328 331 330 330 331 330 331 335 336 336 334 334 333 331 330 329
323 323 323 323 323 324 324 325 324 324 324 324 325 325 324 325 326 328 328 328 329 330 328 324 324 324 329 332 333 333 335 335 336 335 334 332 330 329 329 328 330 329 329 328
322 322 322 323 324 323 323 324 322 321 321 323 323 322 323 325 324 324 325 327 327 328 329 329 326 323 322 331 331 330 331 329 329 331 330 329 330 329 328 328 327 327 327 326
319 321 321 321 322 322 322 321 321 319 319 319 321 323 319 318 318 316 321 323 322 322 323 324 322 323 324 325 326 328 329 329 330 329 327 326 325 325 325 326 327 326 326 326
317 317 318 318 318 319 320 319 317 317 318 317 318 321 322 320 318 318 317 319 320 320 321 319 319 322 319 319 325 324 325 325 327 327 327 327 327 322 322 323 324 324 325 325
311 311 311 315 316 313 317 317 317 315 314 315 316 317 318 320 320 317 317 317 318 320 319 318 319 317 318 318 318 321 324 323 322 321 322 322 320 320 320 320 319 318 317 316
309 309 309 309 309 309 311 311 311 311 312 314 315 316 315 314 314 314 315 316 317 318 318 318 318 319 319 318 318 318 318 318 318 318 317 317 316 316 316 316 315 315 314 314
309 307 307 307 307 307 308 310 310 311 313 312 312 311 312 311 313 313 312 312 314 315 315 314 314 315 316 317 318 317 317 318 318 317 317 317 317 316 315 315 315 314 313 313
306 306 306 306 306 307 306 308 308 308 311 310 309 308 309 309 308 308 308 307 311 311 310 308 308 308 308 309 311 313 315 315 315 316 317 316 316 315 315 314 314 314 313 313

GFSNGP_850_thetae_015.txt.gz
Theta_e
317 317 319 320 320 322 320 321 322 323 318 319 320 320 321 327 327 328 336 341 342 342 342 342 341 342 343 345 346 346 345 346 346 347 348 348 349 350 348 341 341 341 344 347
316 318 321 322 321 322 322 322 321 321 317 318 320 321 320 324 326 327 335 338 341 342 343 343 343 343 342 344 346 347 347 346 346 347 347 349 349 350 350 348 342 342 343 343
316 317 318 322 322 323 323 321 321 322 320 317 318 318 318 322 324 326 326 327 333 339 340 341 340 341 342 343 345 347 347 347 348 348 347 348 350 350 350 349 349 342 343 344
315 317 324 322 322 323 323 322 320 320 320 320 320 324 324 326 326 327 329 329 331 332 337 338 339 339 341 343 345 347 347 348 349 348 347 348 351 351 350 350 348 347 342 342
316 319 321 324 326 325 323 323 325 321 321 320 322 323 323 325 326 327 327 328 329 336 338 339 339 340 344 345 346 348 348 348 349 348 347 349 349 351 352 352 350 348 348 342
316 321 325 323 327 329 327 325 336 328 323 321 320 321 323 326 328 327 328 330 332 334 336 340 342 342 344 345 346 347 347 347 347 348 349 349 349 350 352 353 351 351 349 345
318 319 322 326 334 331 331 326 336 336 334 325 322 322 326 334 338 338 334 330 330 335 340 341 343 345 347 348 348 345 346 346 348 350 350 349 350 352 352 353 355 352 351 350
319 325 328 331 335 340 336 336 343 340 340 340 340 340 340 339 342 342 341 340 342 343 337 333 342 345 347 347 345 347 347 350 351 351 353 355 354 355 356 357 356 353 355 356
323 325 324 327 329 335 334 338 340 344 345 345 347 347 347 348 346 348 348 349 348 346 348 346 345 337 336 340 344 346 347 347 349 352 355 356 356 357 358 359 357 358 357 358
324 325 328 330 329 332 332 334 337 340 344 345 346 347 348 349 349 348 347 344 342 339 341 347 346 353 352 344 345 347 347 347 348 351 353 344 356 358 358 359 356 356 355 353
325 325 327 328 330 329 330 332 335 338 340 342 343 341 343 343 346 347 348 348 350 350 348 344 347 343 340 353 356 350 348 348 351 353 354 356 358 359 359 358 354 351 351 348
323 326 327 327 330 325 326 327 332 334 334 335 339 338 337 335 334 336 337 336 337 338 336 336 337 336 337 333 340 357 349 348 350 352 354 356 356 358 359 357 351 347 342 336
326 326 326 328 326 325 328 331 329 330 331 332 332 333 333 334 335 335 334 333 333 335 335 334 333 334 333 331 332 338 357 354 354 353 354 356 354 357 349 344 337 335 333 332
321 324 325 327 326 327 330 330 331 331 332 333 334 334 335 336 337 338 337 335 338 340 339 340 341 340 337 335 337 334 346 346 352 354 354 355 352 346 341 338 333 331 339 339
325 325 324 326 326 329 329 329 330 329 328 328 331 331 332 333 335 338 340 341 341 341 342 342 342 342 335 334 333 337 338 334 334 341 346 345 335 331 335 335 336 340 340 339
324 324 323 325 325 328 328 327 326 326 326 325 325 325 325 325 326 328 334 338 339 340 338 337 340 342 342 343 338 337 335 335 336 344 342 332 330 334 339 342 341 341 340 338
323 323 323 324 324 323 324 323 326 326 325 324 325 323 322 323 325 323 324 331 333 335 335 336 335 334 340 342 341 340 341 343 343 343 342 342 343 341 338 336 338 339 338 335
322 322 322 321 321 321 324 324 320 322 325 324 323 323 324 324 325 324 325 324 324 324 327 328 330 332 329 335 337 340 340 342 342 341 341 340 340 338 338 339 337 335 335 333
322 322 322 323 323 322 322 324 325 325 325 326 326 326 328 328 328 328 328 328 328 325 324 325 326 325 328 328 332 331 330 331 334 337 337 336 336 334 330 328 328 327 326 327
321 322 323 323 323 325 325 325 324 324 325 324 325 325 325 325 326 324 323 325 326 325 325 324 322 322 325 332 332 334 333 334 332 331 329 329 330 330 330 331 332 332 332 331
322 323 323 322 321 321 320 320 322 323 322 321 319 318 318 320 322 322 320 317 316 321 321 325 327 327 327 329 330 330 330 330 329 330 331 333 333 333 333 331 331 331 331 330
318 320 321 316 317 318 317 318 320 321 323 321 320 318 317 317 319 320 320 318 319 318 319 319 320 323 324 326 327 327 326 327 327 329 329 328 329 328 329 328 328 328 328 328
314 316 317 317 315 314 315 316 316 318 320 321 319 318 318 318 318 318 318 319 319 318 318 318 318 318 321 325 325 326 327 327 328 327 327 326 326 326 328 327 327 327 326 326
309 310 310 311 313 312 312 315 315 315 314 314 313 313 314 316 317 318 319 318 317 317 316 317 318 318 318 318 320 322 324 324 324 323 324 324 321 323 322 322 323 323 323 324
307 307 307 308 310 310 311 313 313 314 315 313 313 312 313 313 314 314 315 315 315 315 315 314 315 316 317 317 317 317 317 317 318 319 320 320 319 318 319 319 318 317 317 317
306 306 306 306 307 307 309 312 311 310 310 309 309 308 309 309 310 312 312 311 311 311 310 310 311 311 312 313 314 314 315 317 317 317 316 316 316 315 314 313 313 313 313 313
305 305 305 306 306 306 306 306 306 307 307 307 306 305 305 305 305 306 306 305 305 306 306 306 306 306 306 306 307 307 308 309 309 311 314 316 317 316 315 313 314 314 312 312

GFSNGP_850_thetae_018.txt.gz
Theta_e
315 315 316 317 318 319 316 319 320 321 321 320 319 318 320 326 325 325 326 328 328 333 338 339 339 340 341 341 342 343 343 344 344 344 345 345 345 346 347 347 348 342 340 341
314 316 316 317 319 320 319 318 318 319 318 317 319 321 321 323 324 324 326 327 327 334 340 340 340 339 341 341 342 342 343 343 343 345 345 345 345 346 347 347 348 347 342 341
315 315 315 318 318 319 319 318 319 320 320 319 318 317 318 321 324 325 326 326 326 331 337 341 341 341 341 341 342 342 343 343 344 346 346 345 345 346 347 347 347 349 346 343
314 315 319 317 317 322 320 320 319 320 319 319 321 323 324 325 325 326 326 326 326 326 328 338 342 342 342 341 342 343 343 345 346 346 346 347 347 346 346 347 346 347 348 346
315 315 316 318 325 330 329 328 321 320 320 318 321 321 321 323 323 324 326 326 326 328 328 331 336 341 342 341 342 343 343 345 345 345 346 347 347 346 346 347 348 347 348 348
311 317 320 321 327 329 328 331 334 328 320 320 318 319 321 327 324 324 325 325 326 327 329 332 335 336 335 339 340 342 342 342 343 345 346 348 348 348 347 347 348 349 349 349
313 317 317 321 328 333 332 333 336 336 338 320 320 323 326 326 327 329 328 327 327 330 333 337 339 340 340 341 342 341 343 346 347 347 347 347 347 349 351 350 351 351 350 349
313 317 319 323 331 339 334 334 334 337 339 338 326 327 334 340 343 343 342 342 338 331 331 332 337 343 343 344 345 346 347 347 349 351 351 349 346 337 350 355 354 353 353 352
316 317 316 326 326 331 331 332 333 333 340 341 343 343 345 347 348 348 347 347 346 344 342 344 344 334 340 346 348 349 349 349 349 350 351 349 351 349 355 355 354 355 354 357
317 318 321 326 330 329 330 330 333 336 340 342 341 343 343 343 345 345 346 346 344 344 344 342 340 339 341 345 349 347 344 344 348 350 351 353 353 356 357 357 355 355 354 350
315 317 322 328 327 328 329 333 335 336 337 336 334 335 336 336 335 335 336 338 338 338 338 338 337 338 339 339 339 339 338 339 347 346 348 351 352 354 357 357 357 355 358 357
315 317 322 325 325 327 329 332 332 332 332 333 335 336 336 335 335 335 335 335 336 336 335 334 334 333 332 332 332 332 333 333 334 340 348 350 353 355 357 357 358 357 358 356
318 320 321 325 326 330 330 330 331 333 333 334 336 336 336 335 335 335 336 337 335 335 334 334 333 334 337 336 335 334 334 335 334 336 339 347 353 356 356 358 358 358 353 351
317 317 323 325 328 330 330 331 332 333 334 334 335 336 337 338 338 339 340 340 339 338 338 338 338 339 338 340 338 335 334 335 350 351 350 349 352 354 354 355 348 335 333 334
317 319 323 325 327 329 331 332 332 331 330 330 330 331 334 336 338 339 339 338 337 338 338 338 339 340 340 339 337 336 335 336 340 344 342 349 352 351 348 341 333 333 333 333
320 319 319 324 325 327 327 327 325 325 324 323 325 325 323 330 335 336 336 337 337 335 333 332 333 338 340 338 337 334 333 334 338 336 336 333 335 336 336 335 333 333 333 338
322 321 322 324 326 326 326 325 325 324 324 325 326 325 324 324 324 327 330 330 330 330 331 331 330 330 334 338 339 339 336 337 333 332 334 335 329 327 330 332 331 333 332 338
322 322 321 323 323 323 324 326 326 326 327 328 327 327 327 327 328 327 324 324 326 326 326 326 327 329 330 331 332 335 336 338 336 336 337 332 334 334 335 336 337 338 339 339
321 320 321 322 324 324 325 325 325 326 327 326 326 324 321 322 325 323 323 324 325 325 324 324 324 327 331 333 332 330 332 333 334 336 336 337 337 336 337 337 335 335 335 335
322 323 323 322 323 324 324 324 325 321 321 323 323 320 317 317 318 319 319 319 318 319 321 325 327 330 331 331 331 332 333 330 330 334 336 335 333 331 331 332 333 333 332 330
319 320 319 320 321 323 321 319 318 318 317 318 320 320 319 319 319 318 318 317 317 319 319 319 325 327 328 327 326 327 328 330 331 330 332 332 333 332 331 330 329 328 327 327
315 314 314 316 318 319 321 321 319 318 317 317 317 317 318 319 319 318 318 318 318 319 319 318 321 325 325 326 327 328 329 328 329 329 329 329 329 329 329 329 330 330 331 331
315 315 314 315 315 315 317 317 317 316 315 316 317 317 317 317 317 317 316 316 317 317 318 318 318 318 318 319 322 324 326 325 325 325 325 325 326 326 327 328 328 327 327 328
310 311 312 314 314 315 314 312 313 312 312 312 313 314 315 315 314 313 313 314 314 315 315 316 317 317 317 317 317 316 317 318 320 321 324 323 324 322 321 319 319 325 325 324
307 308 310 311 311 309 309 310 310 309 309 309 310 311 312 311 311 308 309 310 310 311 311 310 311 313 315 315 315 315 316 316 317 317 317 317 317 317 320 320 321 321 321 320
306 306 306 307 308 309 309 309 308 307 307 306 306 305 305 305 305 305 305 305 305 305 305 306 307 307 307 307 308 310 310 310 312 313 316 316 316 317 315 312 312 313 314 314
305 305 305 305 305 305 306 306 306 306 305 305 304 303 303 303 303 303 303 303 302 302 302 302 302 303 303 303 304 304 305 305 306 307 307 309 311 313 314 314 314 314 313 311

GFSNGP_850_thetae_021.txt.gz
Theta_e
318 318 319 320 320 321 323 325 328 326 326 326 327 329 328 328 329 326 326 326 327 328 328 329 333 338 339 339 342 343 343 343 342 343 343 344 344 344 345 346 346 346 347 347
318 317 318 319 320 320 321 322 322 323 324 325 324 325 327 326 326 327 326 325 325 326 327 329 335 336 337 339 340 341 342 341 342 343 343 343 345 345 345 345 346 346 347 347
318 318 319 320 320 321 321 322 322 324 324 324 325 326 326 326 327 327 326 326 326 326 326 327 328 328 339 339 340 341 341 342 343 344 344 344 344 345 344 344 345 346 346 347
315 317 320 321 321 324 325 324 323 323 324 324 325 326 326 325 326 326 325 325 325 326 326 326 327 333 337 340 340 340 341 342 342 343 343 344 345 344 345 345 345 345 346 347
313 317 318 318 320 330 333 327 332 335 327 325 324 325 328 326 324 323 324 325 325 325 325 325 325 326 336 340 340 340 341 341 341 342 343 345 346 345 345 346 346 345 346 346
313 312 316 320 322 328 333 329 337 339 341 338 325 327 329 326 325 324 324 324 324 325 326 327 327 329 333 339 340 341 341 342 343 345 345 345 345 348 348 346 345 346 346 347
313 314 315 317 324 335 337 330 337 338 339 341 343 328 328 329 325 325 325 325 325 325 326 327 328 332 334 335 336 338 340 342 343 344 345 346 347 347 348 350 350 348 346 346
312 313 313 315 321 325 336 335 337 338 337 337 340 342 332 337 330 329 330 331 327 326 327 329 335 338 340 340 340 341 342 343 343 344 346 348 348 349 350 351 351 351 350 350
313 312 313 315 320 327 333 334 335 336 336 337 340 342 340 345 343 345 344 339 336 334 332 332 333 336 341 343 345 345 346 346 347 347 348 349 350 350 352 355 352 354 355 353
314 312 314 315 318 323 329 331 333 335 334 337 342 341 343 342 341 341 340 341 341 340 342 344 343 342 342 343 345 345 345 345 344 346 348 350 352 353 355 355 356 355 357 354
315 315 315 314 316 322 328 330 334 334 333 335 338 338 338 337 336 336 336 335 336 337 337 336 336 336 335 335 335 335 335 335 336 342 346 347 348 350 352 353 353 353 356 355
314 315 316 317 320 324 326 331 332 333 334 334 335 335 336 338 341 339 338 337 337 338 336 336 335 335 334 334 334 334 333 333 333 333 337 345 352 349 351 353 353 353 355 355
315 313 314 317 318 321 326 332 331 332 335 336 336 338 340 343 341 340 340 340 339 339 339 339 338 338 338 338 338 336 335 335 334 335 344 347 350 352 354 352 355 357 357 356
312 312 312 316 318 324 328 331 332 332 331 334 334 335 338 338 337 338 339 339 339 339 339 339 339 338 337 336 335 334 333 333 335 335 344 347 348 348 348 349 350 356 359 357
311 311 312 316 319 323 325 328 329 328 327 330 335 334 337 336 335 334 334 333 332 332 334 336 336 338 337 337 337 336 336 334 337 338 337 335 335 335 341 343 348 350 351 355
314 317 317 318 322 319 326 327 325 326 326 325 328 333 334 334 333 333 333 332 331 330 329 330 333 335 337 338 338 337 337 337 335 335 335 336 335 335 331 333 336 333 337 339
313 316 319 321 322 324 325 326 325 327 328 326 325 324 324 327 328 328 327 325 326 327 327 327 329 332 332 332 333 334 336 337 336 335 334 333 333 332 329 331 328 328 331 328
320 321 319 322 321 325 324 322 325 327 326 326 327 327 326 324 324 324 324 324 324 324 325 327 331 331 332 331 331 334 334 335 336 337 335 333 332 334 332 330 332 332 333 334
319 317 317 323 324 325 325 326 325 323 324 325 325 323 320 318 319 320 321 324 324 325 328 330 331 332 332 333 332 330 332 335 336 336 335 336 336 336 334 332 333 333 332 332
316 318 322 321 322 321 319 319 317 316 316 318 318 318 318 317 317 318 319 320 322 325 326 326 327 327 328 328 329 330 330 330 331 333 334 334 334 335 335 335 334 334 335 336
318 316 317 318 316 316 319 317 318 319 319 319 318 318 318 318 318 318 317 317 318 321 322 323 324 326 327 327 327 325 325 327 328 329 330 331 331 331 331 332 334 334 334 333
315 313 314 316 316 314 314 315 316 317 318 317 317 316 317 316 317 317 317 315 316 317 317 317 317 318 320 323 325 326 326 326 325 325 326 327 327 328 328 327 328 329 329 328
312 312 313 313 313 312 314 316 316 317 317 317 316 316 315 314 314 314 313 313 314 315 315 314 315 316 315 316 316 317 318 319 323 324 324 325 323 324 325 325 325 326 326 327
311 310 309 308 309 311 311 311 312 313 314 314 313 313 311 310 309 307 307 309 310 310 310 311 313 314 314 313 314 315 316 316 316 317 317 317 319 320 320 319 319 322 323 323
308 308 309 309 308 307 306 306 308 308 309 308 308 308 307 307 307 305 306 306 306 307 307 307 308 309 309 309 309 310 311 312 315 315 316 317 316 313 312 312 314 317 317 320
305 305 306 306 306 306 306 306 306 303 303 303 303 302 302 302 302 302 302 302 303 303 303 303 303 304 304 304 305 306 306 306 306 307 310 312 313 314 314 314 313 312 311 311
302 303 304 304 304 304 304 304 303 302 300 299 299 298 297 297 297 297 297 297 297 297 297 297 299 300 301 301 302 302 303 303 304 304 304 304 304 305 306 307 308 308 308 310

GFSNGP_850_thetae_024.txt.gz
Theta_e
329 325 325 328 328 328 329 329 330 330 330 330 329 330 330 329 329 329 331 333 335 339 341 344 344 346 347 351 350 350 351 354 354 344 344 344 343 342 343 344 344 345 346 346
326 324 323 325 326 326 328 329 329 329 330 330 329 328 329 328 328 328 328 328 329 331 338 338 338 339 347 348 348 350 350 350 353 353 348 344 346 345 344 344 344 345 346 346
326 324 324 326 325 325 326 327 327 329 329 329 329 329 328 327 327 327 328 329 330 332 334 337 338 335 334 344 350 349 348 351 350 351 348 347 349 348 345 345 348 345 345 346
324 324 326 326 326 326 326 326 326 327 327 328 328 327 327 327 328 328 328 329 330 330 330 331 336 335 344 347 340 343 347 345 348 347 348 355 351 348 347 349 348 346 345 345
320 322 324 324 323 324 326 327 327 328 329 328 327 326 327 326 327 329 329 330 330 330 331 332 334 335 339 347 346 349 343 341 340 344 348 351 349 345 346 349 350 348 348 345
317 319 323 323 323 326 326 330 329 333 334 336 338 336 331 327 327 328 329 330 330 330 332 331 326 330 340 344 347 339 343 345 343 341 343 342 342 345 348 348 348 355 355 348
316 317 319 320 324 330 330 340 337 336 338 340 343 341 341 341 338 336 335 334 334 333 330 328 329 327 335 344 339 344 351 352 348 346 343 343 344 345 348 350 355 355 355 355
314 315 316 316 318 324 331 333 333 334 337 339 341 343 343 343 344 339 337 339 342 335 335 342 332 333 333 333 342 352 353 354 353 348 352 357 351 350 353 356 356 355 357 357
315 315 315 315 317 318 319 322 329 328 330 334 337 341 344 346 344 343 344 346 347 344 349 350 344 351 348 345 347 352 351 352 354 356 356 354 356 357 359 357 358 359 358 358
313 313 315 314 314 316 318 320 322 326 327 332 335 339 344 346 346 347 346 346 347 350 350 351 355 357 358 348 346 349 350 353 355 358 359 360 359 360 359 359 361 359 359 359
315 315 313 313 314 315 317 321 325 326 330 334 335 339 344 346 345 344 342 343 346 347 347 347 347 345 345 345 346 356 356 357 358 357 357 359 360 359 359 359 359 360 360 359
315 313 313 314 314 318 319 321 323 326 329 334 335 339 339 341 342 343 345 346 347 347 345 344 343 338 335 334 333 333 334 341 346 348 350 354 355 358 357 356 359 359 358 358
314 313 314 315 315 315 317 318 320 325 332 336 335 338 337 338 342 344 342 342 343 342 346 345 340 340 338 341 337 336 341 338 346 343 349 348 349 351 353 356 359 355 356 358
312 312 313 314 315 315 318 320 322 328 332 334 336 337 339 339 341 342 342 342 343 344 345 344 339 339 343 341 339 341 340 337 341 343 344 345 342 341 341 341 345 347 349 349
310 311 311 312 314 315 319 324 327 329 331 333 338 339 339 338 339 339 339 338 338 339 339 340 341 340 342 344 343 343 342 342 341 338 336 335 338 338 337 338 337 337 337 344
310 310 311 314 315 316 319 323 321 328 329 331 335 336 336 335 334 333 333 334 334 334 334 336 339 339 339 336 340 339 338 336 337 340 340 340 340 339 336 336 335 333 334 333
311 312 314 317 319 320 322 319 321 327 328 330 330 327 326 327 328 328 330 330 329 331 331 332 335 335 335 339 334 338 336 337 336 334 334 336 339 337 336 334 332 334 328 328
313 315 317 320 320 319 319 325 328 327 327 325 324 325 325 325 326 324 325 328 327 327 330 331 333 333 333 336 338 338 336 335 336 336 335 335 335 334 334 334 333 332 328 328
317 318 321 320 321 321 322 323 321 321 321 321 322 322 322 322 323 324 325 325 325 325 326 328 329 330 330 331 333 334 335 337 335 335 335 335 334 335 335 335 334 333 332 332
316 313 316 318 316 317 317 317 318 319 318 318 318 318 319 320 320 320 319 319 319 320 322 325 326 326 328 326 327 328 330 331 332 333 332 334 334 332 332 333 334 335 332 332
315 316 316 317 317 317 318 317 317 317 317 317 316 315 314 313 314 316 315 314 314 316 317 319 321 322 323 325 325 325 325 325 326 327 326 327 327 327 327 328 329 330 331 333
316 316 315 316 316 316 317 317 316 316 316 315 313 312 312 313 312 312 310 311 311 314 314 315 316 316 318 320 321 320 320 320 323 323 323 323 324 324 325 326 326 326 327 329
309 311 311 312 313 313 315 315 312 312 312 310 310 309 308 307 307 306 306 307 308 310 310 311 312 312 313 315 317 318 319 318 317 315 316 318 319 318 319 320 321 321 322 322
309 309 308 308 308 309 308 307 307 307 307 307 306 306 306 306 305 305 304 305 305 305 305 306 307 309 310 311 311 312 313 315 316 316 316 315 314 313 313 314 315 318 317 318
307 308 308 308 307 307 306 305 305 304 303 303 303 302 302 301 301 301 301 302 303 303 303 303 304 305 306 307 307 307 307 308 308 312 313 312 313 313 313 312 311 311 311 312
304 306 306 305 305 305 305 304 303 303 302 302 301 300 300 300 299 299 299 299 299 299 300 300 299 301 302 303 304 305 305 304 306 306 306 307 307 307 307 307 308 309 310 310
300 301 304 304 303 302 302 302 301 300 300 300 299 299 298 298 297 297 296 297 297 296 296 296 297 296 298 299 300 301 301 302 301 303 304 304 304 304 304 304 303 302 302 302

GFSNGP_850_thetae_027.txt.gz
Theta_e
332 333 332 330 329 330 330 331 332 332 333 333 332 334 333 333 333 333 336 337 337 339 341 342 345 349 351 353 354 355 356 357 358 359 359 359 356 349 343 340 339 339 342 345
332 331 330 330 332 330 330 330 331 331 332 333 332 331 332 331 331 331 331 332 334 335 337 343 344 347 350 353 353 352 355 355 357 359 360 360 359 357 354 344 340 341 341 342
332 331 331 331 331 331 331 331 331 332 332 333 333 332 332 331 331 330 330 330 331 331 332 337 341 344 346 350 352 352 352 356 356 358 359 361 361 361 357 352 352 346 343 344
329 331 333 331 330 330 330 331 331 331 332 332 332 331 330 330 330 330 330 330 330 331 331 333 334 335 341 345 349 352 354 353 356 356 359 359 357 353 360 360 352 354 352 349
327 330 330 329 329 330 329 330 329 330 330 330 329 329 329 329 329 329 330 330 331 331 331 332 333 334 337 345 348 347 342 351 354 358 359 359 353 350 357 357 357 355 358 358
324 327 332 329 327 326 328 331 330 329 330 331 331 333 336 341 341 338 332 333 333 331 332 333 334 335 335 338 344 349 343 346 354 356 358 358 356 353 353 360 359 360 357 355
320 323 325 327 329 327 330 343 339 332 333 334 338 341 343 343 344 343 343 343 340 340 339 336 337 337 338 338 342 343 354 355 357 355 358 358 355 352 354 359 362 361 359 361
318 320 323 322 323 329 330 329 330 334 333 335 337 339 339 341 344 346 345 343 338 340 344 341 339 342 345 342 342 348 351 355 358 358 359 360 357 358 360 360 360 360 361 361
317 319 320 319 319 320 320 322 325 327 329 330 331 335 336 339 346 348 346 347 346 347 345 347 353 354 352 349 351 353 355 356 358 358 359 358 360 360 363 361 362 362 362 362
315 316 317 316 317 317 317 318 320 321 323 328 330 335 337 340 348 348 348 348 347 350 352 355 360 359 360 363 359 358 359 359 359 361 361 363 361 363 362 362 362 362 361 361
314 315 315 314 315 315 316 317 318 322 326 327 328 333 338 341 349 348 347 346 350 352 354 354 354 354 354 356 361 361 362 362 362 362 362 363 362 361 362 362 362 362 362 361
315 315 315 315 314 314 314 316 320 322 322 324 327 332 338 339 344 348 349 349 352 352 350 350 351 352 352 352 353 355 360 361 360 359 361 362 361 363 360 361 361 360 359 360
313 312 313 314 314 315 314 317 318 319 319 320 325 334 338 341 342 342 343 345 348 350 350 347 343 344 349 349 350 351 352 347 349 346 348 349 352 353 354 356 355 356 356 356
312 313 314 314 316 316 315 316 316 316 317 319 325 334 338 338 340 341 343 347 348 345 345 344 344 345 347 348 349 348 343 342 347 346 348 350 351 349 347 346 345 344 342 343
312 312 313 314 314 315 315 316 318 321 322 326 330 333 336 338 342 343 343 343 342 342 343 343 343 344 345 345 345 345 345 345 345 342 340 341 343 344 342 341 341 338 337 335
311 312 314 314 314 314 314 316 317 319 325 325 329 332 337 339 339 339 338 339 339 339 339 340 342 343 341 343 343 343 340 338 342 343 343 343 343 342 340 338 338 338 335 331
310 311 310 312 314 314 315 317 318 324 323 327 330 332 335 334 334 334 335 336 336 336 337 338 340 341 342 341 340 340 339 339 339 340 339 340 340 340 340 340 339 336 334 330
310 311 312 313 315 318 319 321 322 322 324 329 327 328 329 330 330 330 330 330 331 332 333 333 335 336 337 338 338 339 338 337 337 335 336 336 336 334 334 333 333 334 336 335
314 314 316 319 320 318 320 320 320 321 322 323 323 323 324 324 323 323 323 323 325 326 328 330 329 331 333 333 334 335 337 336 335 336 336 336 336 334 332 333 332 332 333 333
314 311 312 314 315 316 315 315 316 317 317 319 317 317 317 317 316 316 317 317 320 321 323 326 327 328 326 327 328 330 332 331 331 331 330 330 330 330 329 329 331 332 332 331
313 314 314 314 316 314 313 315 315 314 313 313 311 311 312 313 312 312 312 312 313 314 315 319 322 324 324 324 324 325 325 325 326 327 325 324 324 323 324 325 325 326 328 329
312 312 312 310 310 309 311 313 312 312 313 314 313 311 310 309 309 309 308 309 311 311 311 312 314 318 320 322 323 322 321 321 321 321 319 319 318 319 320 320 320 321 322 323
310 310 311 310 310 309 308 308 308 308 308 309 308 308 307 307 306 307 306 305 306 306 307 309 311 312 313 316 317 319 320 320 320 318 317 316 316 316 316 315 316 316 317 318
309 310 309 309 309 308 308 307 306 305 305 304 304 304 305 305 304 304 303 303 304 304 304 305 307 308 310 311 311 312 312 315 316 316 316 317 317 316 316 316 316 314 313 313
307 308 308 308 308 307 307 307 306 306 305 304 304 304 303 302 302 302 301 301 301 302 302 301 303 304 306 307 308 308 309 309 309 311 311 311 311 311 311 311 310 311 312 312
303 306 306 306 305 306 306 305 304 304 304 303 303 302 302 301 301 300 300 299 299 299 299 299 298 300 301 302 304 304 305 304 307 307 308 308 308 308 308 306 305 305 305 305
303 302 304 304 304 303 302 302 302 301 301 302 302 301 300 299 298 298 298 299 299 298 299 299 298 298 299 300 300 300 301 301 300 302 304 305 306 306 306 306 306 305 304 302

GFSNGP_850_thetae_030.txt.gz
Theta_e
331 333 333 331 330 331 332 334 334 333 333 336 337 337 338 337 337 338 340 342 344 347 350 350 351 354 355 355 356 356 357 360 359 358 357 355 355 351 349 343 339 337 339 341
333 333 333 333 331 330 330 330 332 332 333 335 337 335 337 336 334 334 335 339 340 340 342 344 351 351 353 355 357 357 357 357 357 358 359 360 360 359 354 348 346 345 342 342
333 333 333 335 333 332 331 331 331 334 335 336 337 337 336 333 333 332 333 333 333 336 337 339 341 352 353 352 354 356 357 357 358 359 359 359 359 360 360 357 354 350 350 348
330 332 336 333 333 332 332 331 332 333 335 338 338 335 333 332 332 332 332 331 331 331 333 332 335 343 348 353 352 351 355 356 360 359 360 360 360 360 360 361 358 356 354 351
330 332 333 333 333 332 332 333 333 333 334 334 332 332 332 331 331 331 331 332 331 332 332 332 335 339 341 340 346 349 347 352 353 357 359 360 360 360 360 361 363 360 356 358
326 330 333 332 331 331 331 332 340 334 332 332 331 331 344 346 345 345 345 345 343 340 338 333 335 334 335 343 346 344 343 342 347 352 354 358 360 361 360 361 362 364 361 358
322 326 330 329 329 329 333 340 336 337 335 334 340 344 343 341 343 346 346 345 344 342 342 340 336 336 337 336 340 344 343 347 347 347 351 358 360 364 363 364 364 363 363 363
320 324 327 323 326 332 333 327 328 331 332 334 334 336 338 339 339 344 347 346 344 342 338 341 343 335 337 338 337 342 346 348 350 350 355 360 362 364 366 364 363 362 364 362
319 321 326 320 321 321 322 323 323 325 325 327 331 333 336 338 340 348 349 348 351 349 347 347 347 348 347 349 348 343 352 350 352 353 360 359 363 363 364 363 362 362 362 362
317 319 319 318 318 318 319 319 319 320 322 328 330 330 332 338 341 346 351 350 348 349 351 358 361 361 358 359 357 353 353 357 357 358 362 361 361 364 362 363 362 362 365 365
316 316 316 315 316 316 316 317 317 318 320 325 326 327 330 334 339 342 348 353 353 354 356 358 358 362 363 363 361 362 359 360 362 362 363 363 362 361 366 364 363 364 364 362
315 315 317 318 316 316 316 316 317 317 319 322 323 323 323 332 338 340 343 347 352 353 353 353 354 354 354 351 357 365 363 364 364 363 363 362 364 362 361 362 363 362 362 361
313 313 314 315 314 315 316 317 317 317 318 320 320 320 321 328 337 339 342 345 346 351 352 350 349 350 352 353 354 356 356 359 355 360 353 365 361 364 364 361 360 360 360 359
309 311 313 314 315 315 316 317 319 318 319 318 318 319 320 330 336 339 345 346 345 346 346 345 345 348 351 352 344 348 350 349 349 349 351 353 354 355 352 351 349 348 349 350
307 308 310 313 314 316 316 317 317 317 318 319 320 325 328 329 336 339 344 346 348 346 346 344 345 345 347 349 350 349 347 345 344 343 344 343 345 345 344 343 342 341 339 336
308 307 309 311 314 315 316 316 316 316 317 318 319 322 327 329 333 339 341 342 343 341 340 342 342 344 346 344 343 339 343 346 346 346 345 345 344 344 342 341 339 339 338 334
310 311 311 314 314 315 315 315 315 315 316 317 318 325 325 331 333 338 339 339 339 339 340 341 343 344 342 342 341 342 340 341 341 341 341 341 341 340 340 340 340 339 337 335
312 313 313 313 314 315 315 316 316 317 319 322 323 325 328 332 333 331 332 332 331 331 334 336 337 339 339 341 340 339 339 338 338 337 337 336 336 337 334 334 332 332 334 334
311 314 315 315 316 316 317 318 318 320 321 319 318 322 320 324 319 318 323 327 327 329 329 329 331 334 334 336 337 337 336 335 334 334 333 332 331 330 329 330 331 331 332 333
311 311 311 312 312 313 313 313 314 314 314 313 313 316 314 314 316 315 319 316 314 316 320 326 327 326 327 329 330 331 330 330 330 330 330 328 327 325 325 323 326 326 328 328
310 310 311 311 311 311 311 312 313 311 310 310 310 312 312 312 314 316 320 320 316 317 320 322 323 323 324 324 325 325 325 325 324 323 322 322 321 321 321 321 321 321 322 322
310 309 309 308 308 309 310 311 310 309 309 310 309 308 307 307 307 307 308 311 312 313 316 318 319 320 321 322 321 321 321 320 319 319 319 318 317 316 316 315 315 316 316 317
310 310 308 308 307 306 305 307 307 307 306 306 306 305 305 304 304 304 304 305 306 308 310 311 312 313 314 315 316 317 319 319 318 318 318 317 317 317 316 315 315 314 313 313
309 308 309 309 307 306 306 305 305 305 304 304 304 304 304 303 302 303 302 302 303 304 306 308 308 309 310 311 311 311 312 313 315 315 314 314 314 314 313 312 313 312 311 311
305 308 306 306 307 307 306 306 305 304 304 303 303 302 301 301 302 300 300 300 300 301 300 302 303 304 306 306 307 307 307 308 309 311 311 311 310 309 308 307 306 306 305 305
304 306 306 305 304 304 305 304 303 302 303 303 302 301 301 300 300 300 300 300 300 300 300 299 300 301 302 302 303 303 303 304 304 306 307 308 308 308 308 307 306 305 304 303
304 304 304 304 304 303 302 302 302 301 300 301 301 300 300 299 299 299 300 300 300 300 300 300 299 300 300 300 301 301 301 301 301 302 302 303 304 304 305 305 305 304 303 302

GFSNGP_850_thetae_033.txt.gz
Theta_e
328 328 329 330 328 328 327 326 328 326 331 334 336 336 337 339 339 339 339 346 350 352 354 354 353 352 351 351 350 350 350 349 347 345 344 343 340 335 332 333 336 335 336 339
331 330 329 331 329 329 328 328 328 327 327 331 335 336 335 335 336 338 342 346 349 350 353 354 353 353 353 352 352 352 352 352 352 352 352 350 344 340 338 335 335 336 336 337
330 331 333 334 332 329 329 328 328 329 328 334 335 333 332 334 332 333 332 333 338 342 351 354 355 354 354 353 353 353 353 353 354 355 355 355 355 354 347 343 342 340 341 341
327 330 335 331 331 333 329 330 328 327 334 332 335 339 337 332 332 332 332 333 332 332 334 338 341 354 353 354 354 355 355 355 356 356 356 357 357 357 357 356 352 349 347 347
327 330 332 332 330 329 331 335 335 339 335 335 342 344 345 346 345 344 342 338 335 335 336 333 333 335 355 354 354 355 356 357 356 356 356 357 358 358 358 358 358 358 357 356
322 331 336 324 325 328 330 338 332 336 338 334 342 346 343 343 346 346 344 343 338 336 339 340 341 338 343 349 353 355 355 356 356 358 358 358 359 359 359 359 359 359 359 359
320 325 329 323 325 329 337 335 328 327 332 336 339 341 339 341 346 348 347 346 342 339 340 341 341 336 342 345 345 344 348 349 349 349 352 355 356 359 361 361 361 361 361 362
320 325 329 320 322 329 328 322 323 323 326 332 333 336 339 341 344 351 351 349 350 347 345 340 339 340 336 337 343 346 346 345 344 344 344 346 351 355 360 362 363 363 364 364
318 322 318 319 319 319 319 320 319 320 321 328 327 328 332 338 339 342 349 349 349 349 349 353 348 346 342 337 340 345 341 343 349 351 350 351 352 357 362 363 365 365 365 363
316 316 316 316 318 317 317 316 317 317 319 324 325 324 323 335 337 337 343 349 349 351 358 359 358 355 349 344 338 342 345 344 341 354 356 355 356 361 363 364 364 365 363 362
312 316 315 315 316 316 316 318 317 317 317 319 322 322 321 322 335 330 335 336 342 350 354 355 356 359 361 359 357 359 356 355 358 356 355 356 359 362 362 362 362 361 361 360
311 310 313 313 313 314 316 316 317 319 318 319 320 320 320 320 326 333 330 333 332 339 349 353 352 349 349 351 357 361 361 361 362 361 359 361 360 361 362 364 366 364 362 364
308 309 309 310 310 313 316 316 316 318 318 319 318 318 319 323 323 333 330 335 343 344 345 349 350 348 348 349 348 358 364 363 361 361 362 361 361 362 363 362 362 364 363 361
311 308 308 309 310 313 314 316 317 318 318 318 318 320 323 327 329 329 329 336 342 345 346 344 345 346 347 351 346 354 352 351 355 355 357 363 362 364 365 360 357 354 354 351
312 310 309 308 309 311 314 315 316 317 318 317 317 318 318 323 326 327 329 337 339 345 345 343 344 346 347 347 349 347 347 347 348 350 351 354 351 346 345 345 345 345 343 340
310 312 309 308 308 310 312 314 316 316 316 317 316 316 318 317 320 326 330 339 343 343 343 342 343 344 344 343 347 347 345 346 343 343 346 345 344 343 341 340 339 339 338 336
313 309 308 309 309 311 313 315 316 316 316 316 316 315 321 319 317 323 335 339 341 340 342 343 342 344 345 343 342 341 342 344 344 344 344 344 343 342 340 339 338 337 336 335
311 312 313 314 314 315 315 315 315 316 316 316 316 318 319 319 325 332 331 333 334 337 338 335 339 342 340 341 340 340 340 339 339 338 338 339 338 338 338 337 336 335 334 332
308 309 309 310 315 314 314 315 316 317 318 318 319 319 321 322 323 324 325 329 328 331 332 333 336 338 340 339 338 337 337 336 334 333 331 331 330 331 330 330 330 331 330 329
306 307 307 308 310 310 311 311 312 312 312 313 312 312 315 315 317 317 321 318 317 322 324 324 326 330 331 331 331 332 333 331 329 329 328 328 325 323 324 324 323 323 322 322
307 306 306 306 306 307 307 308 308 308 308 307 307 306 307 310 313 316 318 318 317 319 321 322 323 324 324 325 324 324 324 323 323 321 320 319 318 318 317 317 317 318 318 319
308 307 306 306 305 304 304 305 305 306 306 306 305 305 305 306 306 310 310 311 313 316 318 319 321 320 320 320 319 319 320 320 318 318 317 316 316 316 315 314 313 312 312 314
309 308 307 306 306 306 305 304 304 304 304 304 304 305 306 305 304 307 308 308 309 310 311 312 315 319 320 320 319 318 318 317 317 317 317 315 314 314 313 313 311 311 311 310
307 308 308 307 306 305 304 304 304 304 304 302 302 302 301 301 303 304 303 303 305 308 308 309 310 310 311 313 313 313 314 313 314 313 312 311 311 311 311 309 308 306 305 305
306 305 304 305 306 306 304 303 303 304 303 302 301 300 300 300 300 300 300 301 301 303 303 304 305 307 306 308 309 309 309 310 310 309 309 309 308 308 307 306 306 305 304 303
304 306 304 303 303 303 302 301 301 301 301 300 300 300 299 300 300 300 300 300 300 300 301 301 301 302 302 302 303 305 305 304 305 307 307 307 306 306 306 305 305 304 303 302
304 303 303 303 302 302 301 301 300 300 300 300 300 300 299 300 300 300 300 300 300 300 300 300 300 300 301 301 301 301 301 301 301 302 303 304 303 302 303 303 302 302 301 301

GFSNGP_850_thetae_036.txt.gz
Theta_e
314 317 321 323 326 327 323 323 324 324 325 323 324 330 328 329 331 337 346 348 348 349 349 349 349 349 349 349 349 349 349 348 346 345 345 342 340 338 336 335 333 334 335 342
314 324 326 327 328 328 324 325 323 321 323 322 328 332 332 336 334 339 346 349 350 350 350 350 350 350 350 350 350 350 350 349 348 346 344 342 340 337 336 335 334 334 334 334
317 323 329 331 327 328 325 324 325 324 323 330 332 339 338 329 336 341 346 350 352 351 351 350 350 350 350 350 350 350 350 350 350 349 347 345 342 340 338 336 334 334 334 334
317 322 332 325 323 326 333 330 328 334 333 337 344 344 345 341 338 338 340 346 349 351 352 352 352 351 350 351 351 351 351 351 351 351 351 351 351 351 350 350 348 344 339 337
319 324 328 325 322 323 326 329 324 328 339 343 342 343 344 348 347 344 340 340 342 348 351 353 353 353 352 351 351 351 351 351 351 352 352 352 353 354 355 355 355 355 355 354
314 326 331 323 321 326 327 329 323 328 337 339 336 345 340 348 349 347 344 342 340 340 338 337 344 350 353 354 353 352 352 352 352 352 353 353 354 354 355 355 356 356 357 357
319 327 324 320 319 323 329 328 321 323 326 330 338 339 340 348 350 350 349 347 342 339 340 341 340 339 344 353 354 354 353 353 353 353 354 355 355 356 356 357 357 358 358 359
321 324 327 319 319 319 318 317 317 321 325 324 323 333 337 338 344 349 350 350 348 341 340 339 341 342 338 350 356 356 355 352 353 354 355 357 357 357 358 358 359 359 360 361
316 319 316 317 317 316 316 317 317 317 322 322 321 321 332 334 332 340 345 353 358 358 356 352 347 346 344 340 343 345 349 352 354 356 355 354 354 354 357 358 360 361 362 362
313 314 312 316 316 316 313 315 318 319 317 320 320 321 319 322 333 331 332 337 350 354 355 356 358 359 356 353 348 342 338 340 343 342 346 349 350 351 352 353 357 361 363 363
309 309 311 313 311 312 312 314 317 318 320 319 319 319 319 323 329 330 329 332 337 349 350 352 352 352 351 353 357 359 355 345 340 339 340 347 356 356 356 354 359 361 362 361
309 307 306 308 309 309 310 312 316 317 318 318 318 320 326 329 332 330 328 330 338 339 344 348 349 347 344 343 344 347 358 359 358 359 356 359 360 358 360 361 362 362 359 361
308 308 308 310 311 310 309 311 315 317 318 318 318 321 320 325 328 328 326 326 334 342 343 343 344 345 343 345 345 343 353 357 360 362 362 360 359 358 359 364 361 359 362 360
312 312 310 310 309 311 310 312 314 316 317 317 318 318 318 318 320 325 324 331 332 339 341 344 343 343 343 346 348 346 353 353 356 360 360 362 363 363 361 362 359 358 358 359
313 313 311 309 310 310 309 311 313 315 316 316 316 316 316 317 317 316 319 323 329 338 343 343 342 343 344 345 345 348 347 350 352 355 357 358 362 364 361 357 351 347 340 339
311 311 309 310 311 309 309 310 310 314 316 316 316 316 315 315 318 316 314 316 334 340 344 343 341 340 343 342 343 348 345 346 348 349 350 348 356 355 346 343 339 336 335 335
309 309 310 311 308 308 309 310 312 316 315 316 316 315 315 315 316 316 319 327 334 339 341 341 338 338 343 346 342 345 346 344 343 345 345 344 343 343 340 339 337 336 336 334
307 307 308 312 314 313 314 315 315 315 315 315 316 316 315 317 317 318 318 327 334 335 336 338 337 342 343 343 342 341 343 344 343 343 342 340 339 338 337 337 336 335 334 332
306 307 307 307 309 310 310 311 313 313 313 314 316 315 316 319 320 321 323 325 331 333 333 335 339 341 341 341 340 340 340 340 339 338 338 337 336 334 333 333 332 331 329 329
306 306 307 306 306 306 306 307 307 308 308 311 312 314 314 314 315 319 321 323 324 326 329 335 336 338 337 336 337 337 336 334 333 331 330 329 329 327 326 326 326 325 324 323
306 305 305 305 305 305 304 305 305 305 305 305 306 307 307 309 311 314 316 319 317 320 323 329 333 333 329 328 326 330 332 329 329 329 325 323 322 320 320 319 319 320 320 320
306 305 305 305 304 304 303 302 302 303 303 303 304 304 305 305 305 310 311 312 313 318 321 321 322 324 322 321 319 319 319 319 318 317 316 315 315 314 313 313 312 312 313 314
308 306 305 305 304 304 303 303 302 301 300 300 301 301 301 301 303 304 307 308 308 311 316 317 318 319 319 320 319 318 317 317 316 316 316 315 314 313 313 312 311 309 309 308
306 307 306 305 304 303 303 303 302 302 300 300 299 300 300 300 300 301 302 303 304 306 308 310 312 314 316 317 316 317 316 315 314 314 313 312 311 310 309 308 308 306 305 303
304 304 305 306 306 303 302 302 302 301 300 300 299 299 299 299 299 299 299 301 303 304 304 305 307 310 311 309 310 310 310 310 309 308 308 308 307 307 306 306 305 304 303 301
305 303 302 302 302 301 301 300 301 300 300 300 300 300 300 300 300 300 300 299 300 300 301 303 303 304 306 306 305 306 307 308 308 308 307 307 306 305 305 304 303 302 301 301
303 302 302 302 302 301 300 300 300 300 300 300 299 299 299 299 299 299 299 300 300 300 300 301 301 301 301 301 302 302 302 303 304 304 304 304 304 303 302 301 301 300 300 299

GFSNGP_850_thetae_042.txt.gz
Theta_e
310 311 311 311 312 313 315 318 326 324 324 324 323 322 319 323 326 325 326 330 338 341 343 344 345 346 346 346 346 346 347 347 347 347 346 346 346 346 346 346 346 344 341 337
310 309 310 311 313 314 315 318 318 319 319 325 320 326 340 341 342 337 329 329 330 337 342 344 345 345 345 346 346 346 347 347 347 347 347 347 346 346 346 345 345 345 343 338
309 311 313 315 317 323 325 325 324 321 325 329 332 343 341 342 344 344 339 329 328 335 341 343 344 344 344 345 346 346 347 347 347 347 347 346 346 345 344 344 344 343 342 338
310 310 325 322 320 324 323 321 323 325 326 336 336 344 343 340 341 344 341 333 329 337 338 342 343 345 345 345 346 346 346 346 347 347 347 347 346 345 343 343 342 342 341 338
310 313 324 323 320 320 322 322 318 321 324 327 338 342 344 342 340 343 348 335 339 341 340 342 343 344 345 345 346 346 346 346 346 347 348 348 347 346 344 343 341 341 341 340
312 317 333 321 318 318 319 324 318 318 322 322 337 344 342 337 341 346 346 341 339 340 342 344 344 345 345 345 345 346 346 346 347 348 348 348 348 348 348 348 347 347 346 346
314 318 324 317 318 316 325 321 315 318 319 321 326 326 330 338 344 346 350 344 345 343 344 345 345 346 346 346 346 346 346 347 347 348 348 349 349 350 350 350 350 351 352 353
319 327 329 317 315 318 314 313 313 314 317 320 328 330 333 338 346 347 348 347 347 348 347 347 347 347 347 347 347 347 348 348 348 349 349 349 350 350 351 352 352 353 354 354
313 317 311 315 312 312 312 312 312 312 316 323 327 328 326 328 337 345 350 350 352 349 348 349 349 349 349 349 349 349 349 349 349 350 350 350 351 351 351 352 352 353 354 354
312 310 311 313 311 310 311 312 313 314 316 320 323 323 322 321 325 333 341 348 349 349 352 353 351 350 351 352 351 351 352 352 352 353 354 354 354 353 353 354 354 354 355 356
310 309 310 313 310 310 311 312 315 315 315 316 319 318 317 317 317 318 327 338 345 347 347 346 348 353 354 354 353 351 350 352 354 355 355 356 356 355 355 356 356 356 357 357
311 309 309 309 311 312 311 311 313 315 315 316 316 317 317 316 315 315 315 320 337 342 343 343 344 343 344 346 349 349 348 346 345 344 345 347 348 349 351 351 354 357 359 359
309 309 311 312 312 311 311 312 312 313 315 313 315 316 316 316 314 313 313 313 315 339 343 342 342 342 342 340 338 337 339 344 347 347 345 345 346 349 351 350 356 359 359 359
308 308 309 310 310 311 310 310 311 311 313 312 312 313 314 315 315 315 313 312 311 314 335 343 342 341 340 338 338 339 338 338 341 349 354 355 356 357 358 359 359 363 364 364
307 307 308 311 311 311 309 310 310 310 310 312 312 312 313 314 313 313 312 311 310 310 311 324 342 340 339 340 339 344 346 349 349 351 357 360 361 360 359 358 355 353 352 353
306 307 309 309 310 309 309 310 310 309 309 310 311 312 315 315 313 313 312 311 310 311 311 312 328 340 339 339 341 345 345 348 350 351 356 359 360 360 359 357 352 348 348 348
306 305 306 307 306 308 309 311 310 309 310 311 316 316 314 315 315 315 314 313 313 312 312 312 312 318 338 337 337 340 344 344 344 346 348 354 357 354 354 352 349 344 340 338
305 305 305 305 305 305 305 307 309 310 312 313 312 313 314 314 314 313 313 313 313 314 316 315 315 318 328 334 336 338 340 339 341 342 344 347 348 350 348 345 342 340 337 336
304 304 304 304 304 304 304 305 306 307 308 309 310 311 311 313 313 312 313 314 315 317 319 322 322 326 330 332 336 340 339 338 339 337 340 344 345 343 341 339 338 336 335 333
304 303 302 302 302 302 303 304 303 304 304 305 306 307 308 310 310 311 310 311 313 314 317 321 324 327 331 335 339 342 339 336 339 337 336 339 339 338 336 334 333 332 331 330
305 303 303 303 301 301 300 300 300 303 303 303 303 303 304 305 306 307 309 310 309 312 315 318 321 324 331 332 331 338 339 337 336 337 335 336 333 333 331 327 325 323 323 322
306 305 303 302 303 303 302 301 299 300 301 303 302 303 304 304 304 304 303 304 306 309 313 316 319 322 326 328 332 335 336 334 334 333 332 328 326 323 321 319 318 317 317 316
306 306 305 304 302 302 302 303 302 299 299 299 301 302 302 302 302 302 302 302 303 304 309 313 318 318 320 326 329 330 331 332 329 327 324 320 320 314 310 308 307 305 305 304
304 304 304 306 305 304 302 300 300 301 299 299 299 299 301 301 301 301 302 303 302 303 303 306 311 314 315 320 321 324 323 323 318 314 312 309 308 306 304 303 303 301 300 298
303 302 302 302 300 299 300 300 300 299 299 299 299 299 299 299 300 300 300 301 302 302 302 304 307 312 313 313 314 313 313 311 310 310 309 308 308 306 304 303 299 297 296 295
302 302 302 302 300 299 299 300 299 299 299 299 299 299 299 299 299 299 300 300 299 301 301 301 302 306 309 310 310 310 309 308 307 306 306 305 304 303 303 302 301 299 297 296
301 300 300 301 299 299 299 299 299 299 299 299 299 299 299 299 299 299 299 299 300 299 299 299 299 300 302 302 303 305 305 305 304 303 301 300 299 299 299 297 296 296 296 296

GFSNGP_850_thetae_045.txt.gz
Theta_e
310 309 310 311 313 314 316 322 330 331 333 331 332 333 332 329 328 328 327 334 341 342 341 342 346 346 346 347 345 345 346 346 346 347 347 347 346 346 345 345 345 346 345 341
309 307 309 312 313 314 315 317 322 326 330 332 331 330 329 331 337 339 339 334 336 342 340 341 342 343 343 345 344 345 345 346 346 346 346 347 346 346 346 345 346 346 346 346
309 308 312 316 314 315 317 320 322 325 328 330 335 343 343 343 343 343 344 346 344 335 339 337 339 342 343 343 344 345 345 346 346 346 346 346 346 346 346 346 346 346 346 346
309 309 317 317 322 317 325 325 326 328 330 333 339 344 343 340 340 341 343 345 346 340 335 336 337 344 344 346 345 344 345 346 345 345 345 346 346 346 346 346 345 344 345 345
311 315 316 325 323 323 328 324 321 325 329 334 341 346 346 341 339 339 342 345 348 344 331 337 342 342 344 345 345 345 345 345 345 345 345 346 346 346 346 346 345 343 343 343
310 315 323 323 319 319 322 330 318 321 324 334 341 349 343 337 339 342 344 351 347 335 334 340 342 344 344 345 345 344 344 345 345 345 345 345 346 346 345 344 343 343 342 340
310 312 312 317 318 318 331 325 315 317 320 332 335 332 331 333 338 342 343 348 343 344 341 342 343 343 344 346 343 343 345 345 346 345 345 345 346 347 347 347 346 344 343 342
311 313 315 312 317 322 317 314 315 316 317 328 325 323 323 330 337 340 342 346 349 347 345 343 342 342 343 344 344 345 345 345 346 346 346 347 348 348 349 349 349 349 349 350
311 312 307 312 313 313 313 314 314 314 315 320 321 318 316 317 325 338 343 344 348 350 348 347 345 344 344 345 345 345 346 346 346 347 347 348 349 349 350 350 351 351 351 352
310 310 311 312 312 312 312 312 313 314 314 316 319 319 317 314 314 327 342 343 343 346 347 347 346 347 347 346 346 346 346 347 348 348 349 349 350 350 351 351 352 353 355 355
311 310 310 311 311 312 313 312 313 315 314 314 316 318 318 318 315 313 317 341 343 344 346 348 351 353 353 351 350 349 348 349 349 350 350 350 351 354 353 352 356 354 357 355
311 309 310 311 312 312 312 312 312 312 315 314 313 316 317 318 317 315 311 313 333 342 343 345 345 346 347 351 356 355 355 354 352 352 352 352 353 353 353 354 354 354 355 356
308 307 309 310 310 311 310 311 310 311 311 313 312 314 316 317 317 318 315 311 311 315 342 342 342 341 341 342 342 346 354 355 356 354 354 353 355 355 355 354 355 355 356 358
307 307 308 311 311 309 309 310 310 311 312 312 312 312 314 317 318 317 316 312 311 311 315 340 340 340 340 339 343 342 342 340 337 348 343 353 349 349 350 352 353 353 357 359
306 306 307 309 310 309 310 310 311 310 310 311 311 312 313 317 318 317 314 312 311 311 312 314 333 339 338 340 344 344 347 349 350 356 358 358 357 356 355 356 357 354 357 361
305 305 305 305 306 307 309 310 310 310 311 311 313 316 315 315 315 314 313 312 311 310 311 312 313 323 337 337 340 343 345 349 352 354 356 358 360 359 358 357 357 357 357 354
304 304 304 304 304 304 305 306 307 309 311 311 312 313 314 314 314 313 313 312 312 312 312 312 312 314 323 336 336 340 343 344 345 348 353 361 359 357 356 355 353 349 346 345
304 304 304 303 303 303 303 303 305 306 306 306 308 310 311 311 312 312 313 313 313 313 313 312 312 313 317 330 335 338 340 339 340 339 344 351 354 354 353 350 346 342 340 338
303 303 302 302 302 302 302 302 303 304 304 304 305 306 308 309 310 310 311 312 313 312 314 316 313 313 314 325 333 338 340 340 340 338 336 342 345 346 346 345 343 339 337 335
303 303 302 302 302 301 301 301 301 303 303 303 303 304 305 305 306 307 309 311 310 309 312 313 316 315 314 317 330 334 336 340 339 339 336 340 342 343 343 341 339 337 335 333
305 303 302 302 302 303 303 301 301 301 301 302 303 302 302 303 304 305 306 307 308 310 311 312 314 315 316 317 327 332 333 336 338 337 336 335 337 336 336 335 334 332 330 328
306 305 305 303 303 302 302 302 302 300 301 301 301 302 302 303 303 303 303 303 304 305 308 310 314 316 316 316 322 327 330 331 334 336 334 332 333 332 332 330 328 325 322 321
305 305 306 305 304 303 302 300 299 301 300 300 300 300 300 301 301 302 302 303 303 305 305 308 310 314 317 319 316 319 324 327 330 329 330 329 328 324 324 322 321 319 316 313
303 303 303 303 301 302 301 300 300 299 299 300 299 300 299 300 300 300 301 302 302 303 303 305 310 314 316 318 317 319 323 320 321 315 317 319 316 311 310 310 309 305 305 304
303 302 302 301 300 300 300 300 300 299 299 300 300 300 300 300 299 300 300 301 302 303 303 303 307 310 311 309 310 309 312 308 308 303 302 303 302 299 298 296 296 295 295 294
302 301 300 301 300 299 299 299 300 299 300 300 300 300 301 301 301 300 300 300 300 301 303 302 303 305 304 303 303 303 304 303 303 302 301 301 301 300 299 299 297 296 296 295
300 300 300 300 299 299 299 299 300 300 299 299 300 299 300 301 300 301 300 300 299 299 299 301 301 301 301 301 301 300 301 300 300 300 299 299 298 298 297 297 296 296 296 296

GFSNGP_850_thetae_048.txt.gz
Theta_e
311 310 310 310 310 314 319 322 325 326 328 330 333 332 332 332 331 332 332 335 341 343 346 349 350 352 352 352 351 350 350 351 350 343 343 343 344 344 344 345 345 345 345 345
311 310 310 310 309 310 313 316 320 322 325 327 330 331 331 330 332 333 336 336 333 339 343 347 350 352 354 352 352 352 351 351 351 344 344 345 346 345 345 345 345 345 345 345
311 309 309 309 310 311 312 315 318 322 325 329 333 335 335 334 334 338 341 342 344 341 339 344 347 351 352 352 352 352 352 351 351 347 345 345 346 346 346 346 345 344 345 345
311 309 311 310 311 312 313 314 318 321 323 327 333 335 345 344 344 344 344 345 346 345 345 340 344 346 351 352 352 352 352 349 348 348 346 346 346 346 347 346 346 346 345 345
312 311 310 311 313 317 315 316 318 323 324 324 329 335 346 344 343 344 345 346 347 348 347 348 342 345 349 351 354 353 351 348 346 345 346 346 346 347 346 347 347 346 345 345
312 311 312 314 310 308 319 323 326 327 330 329 331 340 341 340 340 341 344 346 348 351 352 350 350 344 347 351 352 353 351 344 344 345 345 346 346 346 346 346 346 347 346 345
311 312 311 310 309 308 322 328 323 324 327 336 338 336 331 331 335 339 342 345 350 352 352 351 349 343 347 351 351 349 354 355 354 349 346 346 346 345 345 346 348 345 349 346
311 311 312 310 308 316 321 317 316 318 324 325 323 322 322 324 332 341 345 347 352 349 346 344 341 345 350 351 351 354 354 355 353 347 349 353 347 347 347 347 346 345 344 344
311 313 310 305 306 313 314 316 315 316 320 319 319 319 319 320 323 331 343 349 353 352 350 349 350 349 353 354 354 356 356 355 355 352 346 354 351 352 355 352 357 356 357 356
308 309 305 309 310 312 314 314 314 315 316 318 320 319 320 320 320 321 333 343 348 352 355 354 353 353 354 356 355 358 358 359 360 359 358 358 358 359 359 359 359 359 359 359
307 305 307 310 309 312 313 313 313 314 315 314 318 318 319 321 321 318 320 335 343 346 348 349 351 354 357 358 357 358 359 360 361 360 359 361 361 360 360 359 360 359 360 360
310 306 307 307 310 312 313 312 312 313 314 316 316 317 319 320 321 321 318 320 331 340 342 343 343 346 349 356 359 354 356 357 358 358 361 360 361 359 360 360 360 360 360 362
307 307 309 310 310 310 312 312 312 313 314 313 314 316 319 321 321 320 319 320 321 324 334 336 337 339 344 347 354 361 357 357 356 357 358 359 359 356 354 356 360 359 359 360
305 306 307 307 307 309 312 312 312 311 312 312 317 318 319 321 321 320 318 320 321 320 323 329 335 338 341 345 345 352 356 350 356 356 348 345 342 343 339 343 350 354 356 356
306 305 306 306 306 306 307 309 311 312 313 314 314 315 317 318 318 319 319 318 319 321 322 318 324 334 339 343 345 346 352 349 348 340 337 335 335 335 337 338 353 352 354 356
306 305 306 306 305 304 305 305 306 306 308 309 309 311 312 315 316 316 317 318 319 318 319 316 315 321 334 339 343 345 346 346 345 345 343 342 340 336 338 351 351 352 356 359
305 304 304 304 305 305 304 304 304 304 306 306 307 307 309 310 312 313 313 315 315 315 317 315 313 315 320 333 339 339 344 347 353 352 337 341 353 353 352 349 347 352 353 354
305 304 304 304 304 304 304 304 303 304 304 304 305 305 307 307 308 310 311 311 312 315 316 317 318 314 315 319 332 338 339 341 342 348 350 351 350 349 350 350 352 353 351 349
305 305 304 304 304 304 303 303 303 302 302 303 303 304 305 306 307 307 308 310 311 312 315 316 316 317 318 314 320 331 336 338 337 336 340 346 344 343 344 343 343 344 343 341
307 306 305 305 305 304 304 303 303 303 302 302 302 303 303 304 304 305 306 306 307 307 309 311 313 314 315 319 314 328 335 336 333 332 331 338 340 343 344 343 341 340 338 338
308 307 306 305 305 305 304 304 303 303 302 302 302 302 302 302 303 303 303 304 304 306 307 309 311 313 313 316 319 327 330 334 335 334 334 334 335 339 340 339 338 337 334 334
308 307 307 306 306 305 304 304 303 303 303 302 302 302 301 301 302 302 303 302 304 305 306 308 310 313 315 316 318 325 327 328 330 328 332 332 332 334 336 335 332 332 331 329
306 306 305 305 304 304 303 302 303 303 303 303 303 302 301 301 301 301 302 302 302 304 306 308 311 313 316 318 318 317 319 324 325 327 328 330 328 324 326 329 326 323 322 321
306 305 304 304 303 302 302 302 302 303 304 303 303 302 302 301 301 301 302 303 302 303 303 305 310 313 315 316 317 318 318 318 319 320 322 326 326 324 311 314 314 315 311 311
304 304 303 304 302 302 302 302 302 302 302 302 303 303 302 301 301 300 300 302 302 302 303 304 307 310 309 309 309 310 310 310 308 312 308 309 314 310 307 303 303 298 299 300
304 303 303 302 301 301 301 301 301 301 302 302 302 302 302 301 302 301 300 300 301 301 302 302 301 301 301 301 301 301 300 299 298 297 297 296 296 296 295 295 295 294 294 295
303 302 303 302 302 301 300 301 301 301 301 301 302 302 302 302 302 301 301 300 299 300 300 300 300 300 300 300 300 300 299 299 298 297 297 298 298 297 296 296 296 296 295 295

GFSNGP_850_thetae_051.txt.gz
Theta_e
314 314 314 314 315 316 317 320 322 326 329 332 333 333 333 332 333 333 333 338 340 345 347 350 351 353 353 353 352 351 350 351 351 352 349 349 345 346 338 341 342 344 344 348
316 314 313 313 313 314 314 314 319 323 325 327 327 327 330 331 333 334 335 336 338 341 345 349 351 353 355 353 353 352 351 350 351 351 350 346 341 341 340 342 343 344 345 345
316 315 313 313 313 313 313 314 313 315 320 322 324 326 327 331 333 332 334 335 338 336 342 344 348 353 353 355 353 353 353 352 352 353 350 348 343 341 341 343 344 344 345 345
317 314 315 313 313 312 312 313 314 315 315 318 320 322 324 332 344 345 344 341 343 343 342 341 344 347 352 355 356 355 354 356 353 354 353 350 351 345 343 343 344 344 344 344
317 315 313 312 312 312 316 315 317 318 319 316 317 319 323 327 345 346 346 347 347 347 347 346 343 344 348 353 358 356 357 355 357 355 357 354 352 350 345 345 345 345 345 345
315 315 315 313 313 313 312 317 315 317 319 318 317 322 326 339 347 346 345 346 348 349 349 349 350 346 346 351 354 357 357 357 358 357 358 356 351 350 349 346 346 345 345 345
317 315 314 312 312 311 313 315 316 320 320 317 321 322 325 337 339 340 343 346 348 351 351 352 353 351 345 348 353 355 357 359 359 358 358 356 355 353 350 347 356 350 355 352
314 315 316 312 312 313 313 310 310 317 320 322 327 334 331 330 332 335 338 344 347 355 355 355 355 355 352 347 350 354 357 358 359 360 359 360 359 358 358 359 357 359 355 359
314 314 313 311 309 309 307 308 309 319 327 330 330 329 327 326 328 330 340 345 350 356 356 350 349 355 354 346 354 354 356 358 358 360 360 359 360 360 361 359 360 359 361 359
308 311 310 309 306 307 307 309 312 316 321 323 324 324 323 324 324 327 336 346 351 353 359 357 354 349 347 355 355 356 358 358 359 360 360 359 363 364 361 360 361 359 358 357
308 307 304 308 309 308 310 312 313 315 317 319 321 323 322 323 321 323 327 336 341 346 349 354 356 357 356 359 357 358 356 359 360 360 361 361 363 362 361 360 359 358 354 351
309 304 307 307 306 308 311 311 313 317 315 316 319 321 323 320 317 320 322 326 330 335 341 344 350 356 358 358 358 359 360 360 361 360 362 361 362 361 360 360 360 360 358 358
304 304 304 305 303 309 311 312 313 313 316 318 320 321 323 321 320 317 320 322 324 326 330 337 344 350 354 357 357 360 360 362 361 361 361 361 360 360 361 360 359 360 360 360
307 306 305 304 304 306 310 310 312 313 314 316 317 318 318 320 320 320 320 321 322 321 324 330 339 344 349 352 358 357 360 359 360 362 361 362 363 362 360 357 357 358 359 359
306 307 305 304 303 304 305 305 307 308 309 310 312 313 315 316 316 319 320 320 318 316 317 319 332 337 340 347 350 355 356 359 360 360 360 359 358 357 351 354 354 351 344 346
306 306 306 306 306 306 304 304 303 305 307 308 309 309 311 313 314 316 316 318 318 318 317 315 317 331 337 341 344 347 350 355 354 355 354 343 337 337 337 338 338 339 340 339
307 306 306 306 306 306 305 304 304 304 304 305 306 307 308 309 310 310 312 313 314 316 318 318 316 317 327 339 341 343 346 348 350 349 349 345 342 338 340 334 334 335 335 335
307 307 306 306 305 305 305 305 304 304 304 304 304 305 306 307 307 308 308 309 310 312 314 318 317 318 316 329 338 340 342 342 345 347 349 348 347 340 338 336 334 337 342 345
307 307 306 306 306 306 305 305 304 304 303 303 303 304 304 304 305 306 307 306 306 308 311 313 316 321 322 315 324 336 340 340 338 339 345 347 346 347 347 347 349 348 347 343
309 308 307 307 306 306 305 305 305 305 303 303 303 303 303 303 304 304 303 304 304 305 308 309 312 315 321 321 320 325 334 338 337 335 334 339 339 341 342 341 340 341 337 337
309 309 308 307 306 306 305 305 304 304 305 303 303 302 302 302 303 302 303 303 303 306 308 309 311 312 313 315 322 330 330 333 332 333 331 335 334 340 337 332 330 332 332 332
308 307 308 306 305 305 305 305 305 304 304 304 304 303 303 302 302 302 302 302 303 305 308 311 313 314 316 316 323 328 329 329 328 330 334 335 334 334 337 337 334 329 328 327
307 307 307 306 305 304 304 305 305 305 304 304 304 304 304 303 302 301 301 302 302 303 306 310 312 315 318 322 323 325 326 325 325 326 327 329 331 331 331 333 333 332 326 325
307 306 305 306 305 304 304 304 304 305 305 305 304 304 304 303 302 301 302 302 302 302 302 304 309 312 315 317 318 318 318 319 320 321 322 321 318 317 316 316 317 320 321 318
306 306 306 305 305 304 304 304 304 303 304 305 305 303 304 303 302 301 301 301 301 301 301 301 303 305 307 307 309 309 309 311 312 312 313 314 312 310 309 309 311 309 307 306
306 305 305 304 303 303 303 303 303 303 304 304 304 304 304 303 302 303 301 301 301 300 299 300 300 300 299 299 299 299 299 299 301 301 300 299 300 299 298 297 296 296 296 295
306 303 305 305 303 303 302 302 303 303 302 304 304 304 304 304 303 302 302 302 301 301 301 300 300 300 299 298 298 298 298 298 298 298 298 298 297 296 296 295 295 295 295 295

GFSNGP_850_thetae_054.txt.gz
Theta_e
315 315 316 316 316 317 317 318 322 324 325 330 328 330 332 333 333 334 335 333 337 341 347 355 354 353 353 353 353 353 353 354 355 355 353 352 347 343 334 333 333 337 340 344
315 315 316 317 316 316 317 317 317 319 322 324 324 326 328 330 330 329 331 336 337 337 349 353 354 354 354 353 354 353 352 353 353 355 356 353 351 350 346 337 335 336 339 342
316 314 315 317 317 316 316 316 317 317 320 321 321 322 324 324 325 325 327 334 336 338 341 345 355 355 355 354 354 354 352 353 352 354 356 354 354 352 352 349 338 334 336 340
318 316 319 317 317 317 315 316 316 316 317 318 318 316 316 318 320 322 323 336 346 338 342 345 347 345 357 357 355 355 353 353 353 353 354 355 354 355 353 352 345 334 335 339
318 317 315 314 315 315 317 316 315 316 317 316 316 316 318 318 317 319 323 331 348 348 347 345 345 347 355 357 357 355 356 353 355 352 352 353 353 352 352 352 349 340 337 340
318 317 316 314 314 313 314 315 315 314 314 315 315 318 321 318 319 320 330 346 347 348 349 348 340 345 346 355 357 357 355 357 355 355 353 353 352 351 351 350 344 340 341 341
318 318 314 313 313 313 314 314 315 316 316 316 318 320 321 323 319 333 339 339 347 348 350 339 338 346 348 348 354 357 357 357 358 358 355 357 356 355 354 354 356 352 348 347
318 318 317 314 314 315 315 314 313 312 312 314 314 315 321 323 328 336 339 340 343 347 347 347 355 355 348 348 349 354 360 358 360 359 360 359 360 359 359 358 359 360 356 358
312 316 312 310 311 311 311 311 310 310 311 313 314 317 322 330 333 334 332 335 341 344 349 361 361 362 355 349 345 352 355 360 358 361 361 362 361 362 361 360 361 360 361 360
309 311 309 308 307 307 308 308 308 309 310 313 315 320 328 328 327 327 331 337 342 347 350 343 346 356 362 353 352 354 357 358 358 361 363 362 361 362 361 361 360 362 362 362
308 307 305 307 306 306 306 307 307 309 313 314 317 325 324 324 323 325 328 334 338 342 346 349 353 354 357 356 360 357 359 358 359 360 363 363 361 364 361 362 360 360 362 360
308 305 303 304 304 303 306 310 310 313 314 316 318 322 321 319 321 323 325 328 332 339 342 347 351 355 357 357 362 360 362 361 361 360 363 362 361 364 362 361 362 363 359 362
306 305 305 303 303 302 306 309 312 313 313 313 317 322 321 318 318 319 321 322 326 329 335 339 346 351 356 359 361 364 364 362 361 361 362 362 362 363 363 364 362 360 361 360
307 305 305 303 303 302 303 305 308 309 310 311 312 315 318 320 320 320 319 319 318 321 328 330 336 345 352 354 358 361 361 361 361 361 362 362 363 362 362 362 362 360 359 358
307 306 306 305 305 303 302 302 303 305 308 309 310 310 314 315 316 316 318 318 317 316 320 325 329 336 347 347 349 356 360 358 361 363 361 363 363 361 360 360 359 359 359 358
307 307 307 306 306 304 303 302 302 303 303 305 307 308 309 311 313 314 315 317 315 315 316 318 325 334 340 343 346 350 355 356 358 360 359 358 362 361 361 359 358 357 352 350
308 307 307 307 306 306 305 303 302 302 301 302 303 306 307 308 308 309 312 312 312 312 315 317 317 327 334 340 342 343 348 351 354 356 357 357 358 359 355 351 352 351 347 345
307 307 307 307 307 306 306 305 303 301 301 301 301 302 305 305 305 306 306 307 310 311 313 316 317 319 332 337 340 341 342 347 348 346 344 343 343 346 343 344 340 337 337 340
309 308 308 308 307 306 306 306 305 304 303 302 301 302 302 304 304 304 305 306 308 309 312 312 316 320 320 330 337 339 339 338 345 346 346 344 346 349 345 341 341 341 342 342
310 309 309 308 308 307 306 306 306 305 303 303 302 302 303 303 303 304 305 305 306 307 309 310 313 319 320 321 332 335 337 335 335 337 343 343 345 345 343 342 342 342 344 342
310 310 309 307 307 306 307 306 306 306 304 305 304 304 303 303 303 303 305 305 306 308 310 313 314 314 316 325 329 327 330 334 333 330 333 336 332 335 337 335 342 339 336 334
309 308 308 307 306 306 307 307 306 306 305 305 305 305 303 302 302 302 302 303 304 307 310 312 315 316 317 322 328 329 327 324 332 331 331 329 329 325 325 326 329 329 331 331
309 309 307 307 306 306 305 306 307 307 306 305 305 305 303 302 301 301 301 302 303 303 307 310 312 316 319 322 325 326 327 325 323 325 329 331 325 323 327 327 323 323 324 322
307 307 308 307 307 306 306 306 306 307 307 305 305 304 303 302 301 301 301 301 302 302 302 306 308 312 315 317 317 318 320 322 323 323 323 323 321 320 318 315 320 319 318 322
308 307 307 306 305 305 304 305 305 306 306 306 305 305 303 302 302 301 301 300 300 300 300 300 302 306 308 308 309 310 311 312 312 314 313 311 310 309 310 313 312 312 315 317
308 307 306 306 306 305 303 304 305 304 306 306 305 304 304 303 302 302 302 302 302 301 301 300 300 300 300 300 300 300 299 300 302 303 303 304 304 306 305 304 304 304 302 301
308 306 306 306 305 304 303 304 305 303 303 305 305 305 304 304 303 303 303 302 302 302 302 302 301 301 300 300 300 299 299 298 298 297 296 296 296 296 296 296 296 296 296 296

GFSNGP_850_thetae_057.txt.gz
Theta_e
312 313 313 314 314 315 314 314 314 314 317 323 322 322 324 324 323 324 327 344 343 342 340 341 342 349 352 352 352 352 354 353 352 350 350 348 338 328 326 326 326 330 335 346
312 313 313 314 315 316 316 315 315 315 315 315 316 317 317 316 317 318 319 321 322 327 337 341 342 347 352 353 353 352 354 355 354 354 352 351 348 340 333 328 326 327 332 337
314 314 314 315 314 315 315 316 314 314 314 315 315 317 316 317 318 318 319 318 328 338 345 343 344 340 340 352 354 353 353 355 355 354 354 353 352 349 344 340 336 333 332 332
314 314 316 315 314 315 316 316 315 315 314 315 316 316 316 316 317 320 320 327 327 344 348 347 342 346 342 349 354 354 354 354 354 354 353 353 353 352 352 349 345 342 339 336
312 314 313 313 313 313 314 314 315 315 315 316 317 316 315 317 320 320 320 319 333 339 346 348 340 343 347 351 350 354 354 353 353 352 353 353 353 352 352 352 350 348 346 343
315 314 314 311 312 312 313 312 313 315 315 315 314 316 315 317 315 315 315 315 332 334 327 327 345 349 341 339 339 353 356 354 353 352 352 352 351 352 352 352 351 351 349 346
316 318 316 312 312 314 315 314 313 313 314 313 312 313 313 314 313 312 313 314 328 332 326 326 338 350 349 340 342 347 353 357 354 353 353 352 352 352 352 351 351 351 350 348
314 317 315 310 311 314 311 309 309 310 311 311 311 311 311 313 312 310 310 313 332 326 328 332 341 345 356 357 350 349 359 358 357 354 354 355 353 352 352 352 352 352 352 351
309 311 309 309 308 307 307 307 307 308 309 310 309 309 310 311 311 311 328 325 331 323 327 333 332 334 347 349 351 355 348 358 358 359 357 356 356 354 354 354 354 353 354 353
306 309 308 307 306 306 304 305 305 307 307 308 308 309 309 311 315 324 331 332 331 327 331 333 333 340 339 333 345 354 356 350 360 358 359 359 359 357 356 356 356 356 356 356
307 307 306 306 305 304 303 304 305 307 309 308 309 311 313 314 319 325 327 329 332 334 335 336 340 343 339 333 331 346 356 356 354 362 359 360 361 360 360 359 358 357 358 358
307 306 306 305 304 303 302 303 304 307 311 311 314 314 315 316 321 325 326 328 330 333 335 337 340 343 346 345 338 340 353 358 360 357 361 360 362 362 362 362 361 360 359 359
307 307 306 305 304 304 303 302 303 304 307 310 311 312 316 318 322 322 322 323 326 330 332 334 337 341 345 349 351 354 354 351 358 361 362 361 362 362 362 363 364 362 360 361
308 307 306 305 305 304 303 302 301 303 305 306 309 310 310 315 317 319 319 320 319 322 325 330 333 338 342 346 353 356 359 361 364 363 363 362 362 362 361 360 360 365 361 364
308 307 307 306 306 305 304 302 302 302 301 302 305 307 308 309 311 314 316 316 317 318 321 325 329 334 342 346 349 352 358 359 359 363 363 361 361 361 361 360 361 362 362 362
308 307 307 307 307 306 305 304 303 301 301 301 302 303 306 307 309 310 312 313 315 317 316 321 325 327 335 341 346 347 349 354 356 358 358 358 357 361 363 362 361 362 363 361
308 308 307 307 307 306 306 305 303 302 301 300 301 302 303 305 306 307 308 309 310 314 314 316 321 323 326 334 341 346 349 348 352 358 358 356 355 356 360 360 360 360 357 356
308 308 308 308 307 306 306 305 305 303 302 301 301 302 302 302 303 305 306 308 310 310 313 314 314 320 323 330 340 341 344 348 350 352 353 354 355 357 355 355 353 352 348 344
309 309 309 308 308 307 306 306 305 304 304 302 301 301 301 301 302 304 306 307 310 312 312 312 314 318 326 330 335 337 337 345 346 347 347 349 347 346 348 346 340 338 341 341
310 309 308 308 308 307 307 306 306 304 305 305 302 301 300 300 301 302 303 305 307 308 311 313 314 316 321 326 332 334 333 336 340 343 345 345 343 342 340 340 338 337 338 339
310 309 309 307 307 306 307 306 306 306 305 305 303 302 302 301 300 301 301 302 305 310 312 313 316 318 320 325 328 330 333 332 333 334 338 339 340 340 340 339 338 338 339 338
309 308 307 308 307 307 306 307 307 306 306 305 304 302 303 302 301 300 300 300 301 307 312 314 316 319 322 326 327 328 328 329 328 329 332 332 331 330 331 329 329 329 329 329
309 308 308 307 307 307 307 306 307 307 306 305 303 302 302 301 300 300 300 299 300 303 308 309 312 314 319 320 321 322 323 323 324 325 325 325 324 326 328 327 326 323 321 321
307 308 307 307 306 305 306 306 307 307 306 305 303 302 302 302 302 301 300 300 300 300 302 305 309 313 314 313 315 315 315 317 317 316 316 319 321 322 320 321 323 321 319 320
309 308 307 305 306 305 307 306 306 306 305 305 305 303 302 302 302 302 302 301 301 301 300 300 300 302 303 303 307 309 309 310 311 314 313 314 314 314 315 316 314 313 312 312
309 307 306 307 305 304 305 305 305 306 306 305 304 304 303 303 302 302 302 302 301 301 301 300 300 300 300 300 299 299 300 301 303 304 305 305 305 306 306 306 306 306 307 305
307 306 305 306 305 304 304 304 304 304 305 305 305 304 304 303 303 303 302 302 302 301 301 300 300 300 300 300 300 299 299 298 298 298 297 297 297 296 296 296 296 296 296 296

GFSNGP_850_thetae_060.txt.gz
Theta_e
310 311 312 312 312 313 312 312 312 311 312 313 314 314 315 318 318 325 333 345 342 335 333 336 339 337 346 348 348 348 347 347 347 347 346 346 346 336 328 331 339 341 338 345
311 312 312 313 313 314 313 313 314 313 311 311 314 315 316 317 318 322 325 323 333 342 346 346 344 341 342 346 349 349 349 349 348 348 348 348 348 347 344 328 329 330 335 332
313 311 312 312 312 313 313 313 313 313 312 312 312 314 314 320 320 321 320 318 317 330 330 333 344 341 341 342 345 350 350 351 351 351 350 350 350 349 348 346 333 328 329 329
311 312 312 310 310 311 312 313 313 313 314 314 314 315 316 316 316 315 315 314 314 314 336 335 339 342 342 344 344 350 351 352 353 353 352 352 352 351 350 349 346 337 329 328
312 309 310 312 311 312 313 312 314 314 314 313 312 313 315 314 312 312 312 311 312 312 317 336 331 328 344 343 345 345 351 352 353 355 354 354 353 352 351 351 348 345 339 336
312 313 312 311 309 310 312 310 309 310 310 310 311 312 311 312 311 311 311 311 310 311 312 334 333 331 341 341 340 349 349 351 353 353 355 355 353 353 352 352 351 348 347 344
313 314 314 308 309 310 313 311 308 307 307 307 308 310 310 310 310 310 310 310 310 310 315 319 327 337 337 343 340 339 337 350 352 354 353 355 354 353 352 352 352 351 349 348
308 312 313 307 308 309 308 306 306 305 305 305 306 307 308 309 309 309 309 309 309 311 326 323 326 322 334 339 343 339 339 339 345 347 351 352 355 354 353 353 352 352 352 351
309 306 307 307 306 306 306 305 304 304 304 305 306 307 308 308 308 309 309 309 309 309 317 328 331 324 324 324 338 338 337 344 346 343 354 354 355 355 354 353 353 353 353 352
306 305 305 305 306 305 304 304 303 303 304 306 306 309 309 308 309 309 310 309 309 310 311 330 329 329 328 326 326 334 336 333 345 352 355 356 355 355 354 353 353 353 353 352
307 306 306 306 305 305 304 304 304 303 304 306 308 310 310 311 311 312 313 313 313 313 316 326 327 329 332 333 336 343 337 336 338 349 352 355 357 356 356 355 355 354 354 353
305 306 306 305 305 305 304 303 303 303 303 305 307 309 309 309 311 312 313 317 320 322 326 327 328 330 332 335 335 342 341 338 338 349 350 352 357 358 358 357 357 357 356 356
307 308 307 307 305 305 304 303 303 303 303 303 304 307 307 307 313 317 316 320 322 325 326 326 328 331 334 334 336 338 341 345 343 345 353 360 357 360 359 359 359 359 359 358
308 308 308 307 306 306 305 304 303 303 302 301 302 304 305 307 308 311 314 317 321 321 326 327 328 330 332 334 336 335 335 336 345 350 355 359 360 360 360 360 360 360 361 361
308 308 307 307 307 307 306 305 303 302 302 301 301 302 303 304 305 307 307 313 317 317 318 323 326 329 330 329 333 337 338 343 349 354 360 361 359 360 361 361 361 361 362 362
308 308 307 307 307 307 306 306 305 303 302 301 301 301 301 301 302 305 305 309 313 314 315 319 322 326 329 331 334 336 339 342 346 349 356 361 358 359 360 361 361 360 359 360
308 308 307 307 307 307 306 306 305 303 302 301 302 301 301 301 302 304 306 307 308 310 313 315 316 320 325 331 332 334 338 341 344 346 349 356 357 353 356 357 358 358 356 358
309 309 308 308 308 308 307 306 305 304 304 303 302 301 301 301 301 303 304 304 307 310 311 312 314 316 322 326 329 333 339 343 345 345 344 347 354 357 354 354 354 357 358 357
310 310 308 308 308 308 307 306 306 305 305 304 304 301 301 301 301 301 303 303 306 307 311 313 314 316 322 325 327 335 337 339 343 344 346 348 350 354 355 354 354 355 355 353
310 309 308 309 308 307 306 306 306 306 305 304 302 302 301 300 300 300 301 301 302 304 308 313 316 317 321 323 327 329 331 337 340 345 346 349 350 350 351 350 349 346 345 343
310 310 309 309 308 307 306 307 306 306 305 303 302 301 300 300 300 299 300 300 301 303 309 313 317 318 322 326 324 325 328 332 339 340 340 340 341 340 340 338 338 337 338 340
309 308 308 307 307 307 307 307 307 306 304 302 302 301 301 300 300 299 299 299 300 302 306 309 314 318 317 319 316 323 325 326 325 331 330 328 326 326 328 333 335 335 337 339
308 308 308 307 307 306 306 306 307 306 305 302 302 302 302 301 301 300 300 300 299 300 303 305 311 313 316 313 311 319 322 324 323 327 324 325 326 326 321 320 325 329 330 330
308 308 308 307 305 305 306 307 307 306 305 304 303 302 302 302 301 301 301 300 300 299 300 301 305 309 312 312 312 309 316 318 318 318 319 319 320 320 323 324 321 319 322 326
309 308 307 305 305 305 307 306 305 305 305 304 303 302 302 302 302 302 301 301 300 300 300 299 300 301 301 303 302 305 309 311 310 308 311 312 314 316 319 318 316 316 315 315
308 307 306 306 305 306 306 305 305 306 305 304 304 304 303 303 303 302 302 301 301 300 300 300 299 299 299 299 297 297 298 300 301 303 305 305 306 306 306 306 306 306 306 306
306 305 305 304 304 305 305 304 305 306 305 304 304 304 304 303 303 303 302 302 301 301 300 300 300 299 299 299 298 298 297 297 297 297 296 296 297 298 297 298 298 299 300 300

GFSNGP_850_thetae_063.txt.gz
Theta_e
309 309 311 311 312 312 312 312 312 311 311 310 309 310 314 321 322 323 322 318 327 338 334 336 334 344 339 344 346 346 346 345 345 344 344 344 343 344 335 328 331 341 344 345
311 311 311 312 312 312 312 311 312 312 313 310 314 314 317 317 316 316 316 313 313 322 336 337 335 344 343 339 343 347 347 347 347 347 346 345 345 345 345 343 329 329 335 342
311 310 310 310 311 312 312 313 312 313 311 313 312 313 314 313 313 313 312 312 311 311 315 330 335 335 342 343 338 345 347 348 348 347 347 347 347 346 346 346 346 343 330 329
309 309 308 308 309 311 311 315 313 314 313 312 311 311 314 312 311 311 311 311 310 310 311 314 326 339 339 343 342 341 346 347 349 349 349 349 348 348 348 348 348 347 347 342
308 305 308 311 310 309 310 312 309 310 309 309 309 310 312 314 312 310 310 311 311 310 310 310 316 323 333 345 344 345 343 346 350 351 350 351 351 350 350 351 350 350 349 348
309 309 312 310 308 308 309 312 307 307 307 306 307 310 310 311 310 310 311 311 311 311 311 311 312 315 321 334 344 346 344 345 346 352 353 352 352 352 353 353 353 352 351 349
312 315 312 308 307 308 312 309 305 306 305 305 305 307 307 307 308 308 309 311 311 311 311 311 310 317 319 322 323 338 344 340 344 345 353 355 354 353 353 354 354 354 353 352
307 308 307 307 307 307 306 305 305 304 304 304 303 304 305 306 307 309 309 309 310 310 311 311 311 310 318 317 321 325 332 339 340 340 342 351 352 353 353 353 354 354 354 353
303 303 305 306 305 305 305 304 304 303 303 303 303 303 306 308 310 309 309 309 309 309 310 310 310 310 311 319 323 319 321 328 337 334 344 343 343 349 345 350 352 353 354 354
303 303 305 306 306 304 305 304 304 303 303 303 303 304 306 309 310 309 309 310 311 310 310 310 310 310 310 316 326 323 321 324 329 334 334 345 349 351 353 354 354 353 354 354
306 305 306 306 305 305 305 305 303 303 303 303 304 304 305 307 309 308 309 310 311 313 311 310 310 310 309 312 326 325 322 323 321 330 335 339 347 348 350 354 354 354 354 355
303 305 305 306 306 306 305 305 304 303 303 303 303 304 304 306 307 307 308 311 314 313 312 312 315 311 312 312 322 325 325 321 323 325 336 335 340 344 347 348 352 355 355 355
307 307 307 307 307 307 306 306 306 304 302 302 302 302 302 304 305 306 307 310 312 315 315 317 319 322 326 324 323 319 326 327 322 329 325 328 333 345 348 347 350 353 355 355
308 308 307 307 307 307 307 307 306 305 303 302 302 301 302 303 304 304 306 308 310 316 320 320 321 324 326 326 328 326 327 332 324 331 334 332 330 333 338 338 346 356 355 356
308 308 308 307 307 307 307 306 306 305 303 302 302 302 302 302 302 303 304 306 308 310 316 316 321 323 325 326 328 328 330 330 327 328 330 330 338 349 354 353 353 357 359 358
308 308 308 308 307 307 307 307 306 304 304 304 303 302 301 302 302 302 303 304 305 308 312 312 316 318 322 322 326 328 328 328 328 330 332 332 345 349 354 360 358 359 359 358
308 308 308 307 307 308 307 307 306 305 304 304 304 304 302 301 301 301 302 303 304 306 308 310 313 315 316 319 323 326 328 330 330 331 331 331 329 342 351 358 360 358 358 360
311 310 309 308 307 308 308 307 306 306 305 305 304 303 302 301 300 300 301 301 303 305 306 308 310 311 314 317 319 324 326 327 329 328 335 335 341 346 348 356 358 356 356 358
311 310 310 309 307 307 307 307 306 306 306 305 302 301 300 300 300 299 299 300 301 302 307 309 312 313 315 317 319 322 324 326 329 329 340 343 343 344 343 345 354 356 353 351
310 310 310 308 308 308 307 307 306 306 306 303 302 301 300 299 299 299 299 299 299 300 303 306 311 314 316 317 320 323 326 328 331 331 337 338 339 343 345 345 351 354 355 354
310 310 310 309 308 307 306 306 307 306 305 302 302 301 300 300 300 299 299 299 299 300 301 302 305 310 314 318 321 324 323 324 326 330 333 339 341 343 346 347 348 350 352 351
309 309 308 308 308 307 306 307 306 306 303 302 302 301 301 301 301 300 299 299 298 299 300 300 301 304 310 313 316 318 317 318 319 318 320 331 338 340 340 342 342 342 343 343
309 308 308 308 307 307 306 306 306 306 304 302 302 302 302 302 301 300 300 299 299 299 299 300 302 306 309 311 312 313 313 313 314 313 311 315 325 327 328 329 331 331 329 334
309 309 307 307 307 305 305 306 307 306 304 302 302 302 302 302 302 301 300 300 299 299 298 299 301 306 308 310 309 310 312 311 310 309 302 307 311 319 320 320 321 323 320 321
308 308 307 306 305 305 306 306 305 305 304 303 302 302 303 303 302 301 301 300 299 300 299 298 299 301 302 303 305 308 309 309 307 309 301 307 300 311 314 317 317 317 319 317
305 306 306 305 305 305 306 305 305 305 304 304 304 303 303 303 303 302 301 301 300 299 299 299 298 299 299 299 299 299 300 302 302 302 300 301 303 306 306 307 306 308 309 309
303 304 305 305 305 306 305 305 305 305 305 304 303 303 303 303 303 302 302 301 300 300 299 299 299 298 298 297 297 298 298 299 299 300 300 300 301 301 301 302 302 303 303 302

GFSNGP_850_thetae_066.txt.gz
Theta_e
308 310 311 311 312 311 311 309 311 309 312 311 311 311 313 313 313 312 312 312 321 328 335 336 338 343 342 342 344 344 344 344 344 343 343 343 342 342 342 337 331 333 340 341
310 310 311 311 311 311 311 311 311 310 312 311 312 313 313 312 311 312 311 311 310 312 324 330 337 339 341 342 340 342 344 345 345 345 345 344 343 343 343 342 341 332 331 334
308 309 309 310 310 310 311 311 312 312 312 311 311 310 310 312 311 310 310 310 311 311 310 316 328 333 333 342 343 340 343 345 346 346 346 346 346 345 344 344 343 343 337 329
307 306 305 306 308 309 312 313 310 311 310 308 308 307 309 311 311 310 309 310 311 311 311 311 312 318 323 333 344 343 337 340 345 346 346 347 347 347 347 346 345 345 344 344
305 302 307 310 308 307 309 311 308 308 307 306 306 307 310 311 311 309 309 309 310 310 311 311 311 311 317 323 340 345 342 342 345 347 348 348 348 348 348 348 347 347 347 346
303 309 310 309 307 307 308 312 305 306 305 305 305 306 308 309 309 309 308 309 310 311 311 311 311 311 313 315 321 325 342 345 344 346 349 350 350 350 349 349 350 350 350 349
308 310 310 306 306 307 310 308 305 305 304 304 304 305 305 305 306 307 307 308 309 310 310 310 311 311 311 312 314 318 322 338 344 342 346 347 348 349 351 351 351 351 351 352
307 308 305 306 305 306 305 305 305 304 303 303 303 303 303 303 304 305 306 308 309 310 310 310 310 310 311 311 310 319 318 317 324 339 339 341 350 350 352 352 352 353 352 352
300 301 304 305 305 305 305 304 304 304 303 303 304 304 303 303 304 305 306 309 309 310 310 310 310 310 310 311 311 310 315 315 318 322 333 338 343 351 350 352 353 351 352 350
301 302 303 305 305 305 304 304 304 303 303 303 303 303 302 303 304 305 306 308 308 308 310 310 310 310 310 310 310 310 311 317 316 317 322 332 338 344 345 342 345 350 349 350
306 304 305 305 305 305 305 305 305 304 303 303 302 302 303 304 304 304 305 306 307 307 307 309 311 311 310 310 311 311 314 319 321 318 318 322 333 342 350 348 346 350 351 351
302 305 305 305 306 306 307 307 306 306 306 304 302 302 302 301 302 303 304 305 306 306 306 308 311 314 312 311 311 315 320 320 321 322 319 319 321 328 340 350 351 352 351 353
306 307 307 307 307 306 306 306 306 307 306 304 302 302 301 302 302 302 303 304 304 304 305 308 310 314 313 312 315 319 320 322 323 325 324 321 321 321 323 331 346 350 349 352
307 307 307 307 307 307 307 306 306 305 304 304 303 303 303 302 302 302 302 302 302 303 305 307 309 313 316 318 318 319 323 325 326 327 328 327 324 325 323 328 330 337 344 346
308 308 307 307 307 307 307 307 307 306 305 304 304 304 304 303 303 302 302 302 302 303 304 306 307 311 315 316 317 319 321 324 326 328 328 329 326 325 324 325 327 333 344 343
308 308 308 308 307 307 307 307 307 307 306 305 304 304 303 303 303 301 301 301 301 302 303 304 306 307 312 315 317 318 320 323 324 325 327 328 327 324 324 325 328 340 338 342
309 308 307 308 308 307 307 307 307 306 306 305 304 303 302 301 300 300 300 299 300 301 302 303 305 305 307 311 315 317 317 319 323 323 325 327 328 325 326 325 327 334 342 352
310 310 310 308 309 307 306 306 307 307 306 305 305 302 300 299 299 299 298 299 299 299 301 303 304 305 307 309 312 314 315 317 320 322 325 327 328 326 326 326 325 324 331 348
310 310 310 310 309 308 307 306 307 307 306 306 303 301 300 300 300 300 299 298 298 298 300 301 303 304 307 310 311 311 315 317 317 318 322 323 322 325 326 330 329 346 349 346
310 310 309 310 309 309 308 307 307 307 306 305 302 301 301 300 300 300 299 299 298 298 298 299 301 303 308 312 313 312 313 314 317 320 322 325 326 327 328 337 339 346 349 350
311 310 310 309 308 308 308 307 306 306 306 303 302 301 301 301 300 300 299 298 298 298 298 299 299 301 302 304 309 312 313 316 318 319 323 326 327 330 333 337 340 342 346 345
310 310 310 309 308 307 307 306 306 306 306 302 301 302 302 302 301 300 299 300 299 298 297 298 298 299 300 300 302 304 309 310 313 317 320 322 326 328 330 333 338 340 342 344
309 309 309 308 308 307 307 306 306 306 304 302 301 302 302 302 302 301 300 299 298 298 297 297 298 299 300 299 299 300 303 305 308 310 313 315 318 321 322 324 329 336 339 338
308 308 308 307 307 307 306 305 306 306 304 302 301 302 303 303 302 301 301 300 299 298 298 297 298 299 298 298 299 297 300 301 302 305 305 308 310 310 312 312 315 316 328 331
306 306 305 304 306 305 305 305 305 305 304 303 302 303 303 303 303 302 301 300 299 299 298 297 297 297 298 298 297 298 300 299 300 303 305 305 305 305 306 307 307 307 309 313
303 303 303 302 303 305 305 305 304 305 304 304 303 302 303 303 302 302 301 300 300 299 299 298 298 297 296 296 297 298 298 297 299 302 303 304 305 304 304 304 306 305 304 304
304 305 304 304 305 305 305 304 304 305 304 303 302 302 302 302 301 301 301 300 300 299 299 299 298 298 297 297 296 296 296 297 297 299 301 301 303 303 301 303 301 301 301 299

GFSNGP_850_thetae_069.txt.gz
Theta_e
314 313 314 314 314 314 315 315 318 317 317 318 319 318 315 314 314 314 311 311 312 313 316 325 337 341 342 342 343 343 346 345 343 344 343 341 341 341 342 341 338 334 337 342
315 313 313 314 313 313 313 313 314 315 317 315 315 315 316 315 314 313 313 312 311 312 311 312 318 330 334 338 342 342 344 344 346 344 344 344 343 342 342 342 342 341 336 334
315 313 312 312 313 313 314 316 315 316 317 314 315 313 313 312 313 312 311 311 311 311 311 311 311 312 320 330 341 344 342 340 343 345 344 345 345 344 344 343 343 342 342 341
314 312 313 313 311 311 315 315 315 316 313 311 310 310 310 312 311 311 310 310 310 310 311 312 311 311 312 316 327 340 345 341 340 342 344 345 345 345 345 345 345 345 344 343
316 313 312 312 311 311 313 313 310 311 310 309 308 309 313 310 309 308 308 308 308 309 310 311 311 311 311 313 314 330 336 342 340 343 342 344 345 346 346 346 346 346 346 345
315 315 315 313 309 308 310 314 308 308 308 308 307 313 313 309 307 307 307 307 308 309 309 310 311 311 311 311 312 313 323 330 345 344 345 347 346 347 346 347 347 348 348 347
316 316 315 311 308 309 315 314 307 307 306 306 307 306 305 305 306 306 306 306 307 308 310 310 310 310 310 311 311 312 312 326 321 334 340 343 346 348 349 349 349 349 349 349
313 314 315 309 308 312 309 307 306 306 305 305 305 305 305 305 306 306 305 306 307 309 309 310 310 310 310 310 310 310 312 311 319 320 332 339 343 345 347 348 348 350 351 351
312 314 308 308 308 307 306 306 306 305 304 304 304 304 304 305 305 305 305 306 307 308 309 310 310 310 310 310 310 310 310 312 311 319 322 320 327 337 340 347 351 349 351 352
309 310 307 308 307 307 306 306 305 305 304 305 305 304 304 304 304 304 304 304 305 307 308 308 308 309 309 310 311 311 310 310 311 311 319 321 322 327 334 343 347 352 351 352
310 309 307 306 307 307 306 306 306 306 306 306 306 304 304 304 303 303 302 302 302 305 306 307 308 308 308 308 309 312 312 311 311 311 312 321 321 321 326 337 345 347 349 351
315 309 310 308 306 306 307 307 307 308 307 307 306 305 304 304 304 303 303 302 302 303 304 304 305 306 306 307 308 313 314 313 313 312 312 319 323 319 319 320 327 343 350 348
309 307 307 306 306 306 306 306 307 307 306 306 306 306 305 305 305 303 303 302 302 303 303 302 303 305 305 307 308 312 317 317 319 316 314 321 323 325 321 318 320 323 331 344
306 307 307 307 308 307 306 306 306 306 306 306 305 305 305 305 305 304 303 303 301 302 302 302 303 303 304 306 308 311 313 315 317 319 320 322 324 326 328 322 320 319 325 323
307 307 309 307 307 307 307 307 307 307 307 307 306 305 305 305 304 303 302 301 301 300 301 301 301 303 304 305 306 308 310 313 314 316 319 321 324 327 328 329 321 319 320 324
309 308 307 307 308 307 307 307 307 306 307 306 306 305 304 303 301 300 299 300 299 299 299 299 300 301 302 303 305 306 307 310 314 315 316 318 322 325 327 328 325 323 320 321
308 308 308 308 308 308 307 306 306 307 307 306 305 305 304 301 300 300 301 299 299 299 299 299 299 300 302 303 305 306 307 309 311 315 316 318 321 323 325 326 326 326 325 321
309 310 310 309 309 308 308 306 306 307 307 306 305 304 301 301 300 300 300 299 299 299 298 298 299 300 301 303 304 305 307 307 310 312 315 316 317 321 323 325 327 330 330 324
310 310 310 310 310 309 309 308 307 307 307 306 306 302 301 302 300 300 300 300 299 298 298 298 298 299 300 302 303 305 307 308 309 311 313 315 317 319 322 324 326 328 331 327
311 311 310 310 309 309 309 309 308 307 307 306 305 301 301 302 301 301 300 299 299 298 298 298 298 298 299 301 302 303 305 308 309 311 312 314 315 317 319 321 322 324 329 331
311 311 310 310 309 309 309 308 307 306 306 306 303 301 302 302 302 302 301 299 298 298 298 297 297 297 298 299 300 301 304 307 309 310 310 314 316 317 320 323 325 328 328 327
310 310 309 310 309 309 309 308 307 306 306 305 302 301 302 303 302 302 301 300 299 298 297 297 297 297 297 298 298 299 301 303 307 310 310 312 315 318 320 323 324 326 329 331
308 308 308 309 308 308 308 307 306 306 306 304 301 302 303 303 302 302 302 301 299 298 297 297 297 297 297 297 297 297 298 299 301 303 305 305 309 314 318 322 324 326 330 332
306 306 306 306 307 307 307 307 306 306 305 302 301 302 303 303 302 303 301 300 299 298 297 297 296 296 297 297 297 297 297 297 297 298 299 301 304 308 313 317 319 322 323 324
304 304 303 303 303 303 304 304 305 305 304 302 303 303 303 302 302 302 300 300 300 299 298 298 297 296 296 296 296 296 295 295 295 296 296 298 299 302 308 311 312 313 313 314
304 305 304 304 303 301 301 304 305 305 304 304 304 303 303 302 301 301 301 300 300 299 299 298 298 297 297 296 295 295 295 296 296 296 295 295 296 298 300 302 304 305 304 307
304 303 303 304 304 304 303 304 305 304 304 304 304 302 300 299 300 300 300 300 300 299 299 299 298 298 298 297 296 295 294 294 296 298 297 297 295 298 300 301 301 301 301 301

GFSNGP_850_thetae_072.txt.gz
Theta_e
318 317 318 318 318 318 321 324 326 326 326 327 325 323 321 320 319 315 314 314 314 312 312 314 325 335 340 340 343 345 348 350 350 350 350 348 349 349 342 341 342 339 337 345
320 317 318 318 317 317 317 319 322 323 323 321 321 321 320 319 319 318 316 315 314 313 312 312 311 314 327 334 341 342 344 345 349 351 352 351 347 343 346 346 341 342 342 339
320 317 316 317 318 317 317 318 320 321 323 319 320 318 317 317 319 317 316 315 315 313 312 312 312 312 312 321 334 340 344 344 343 347 350 354 353 351 345 343 345 343 342 342
318 317 316 318 316 316 318 319 319 320 318 317 316 316 316 317 315 314 313 313 313 313 314 314 312 312 312 312 313 329 342 344 345 343 346 349 351 352 352 351 350 350 348 343
318 317 316 315 315 315 318 318 316 317 315 314 314 314 317 314 313 312 312 312 312 312 313 315 316 314 312 312 312 311 317 335 341 344 345 345 348 348 349 352 352 351 351 350
317 320 318 319 314 313 314 318 314 314 314 313 313 315 318 312 311 311 311 311 311 311 312 314 316 316 316 317 312 311 312 314 328 336 343 342 344 346 348 349 349 351 353 352
319 320 318 315 312 313 316 319 313 312 312 312 313 312 310 310 310 310 310 310 310 311 312 313 314 315 316 317 318 312 311 312 314 323 329 339 342 343 346 350 349 349 349 353
319 320 322 313 313 317 315 311 311 310 310 310 309 309 309 308 309 309 309 309 309 310 311 312 313 314 315 316 316 313 311 311 311 312 314 322 331 340 343 345 347 350 350 351
318 319 314 313 313 312 310 311 310 309 308 307 308 309 308 307 307 308 308 307 307 307 307 308 310 312 313 314 314 314 313 311 311 311 312 314 320 322 325 343 345 347 349 351
315 313 312 313 311 310 310 309 309 308 308 308 308 308 307 307 307 306 307 306 306 305 306 306 308 309 311 312 312 313 313 314 311 311 312 312 318 328 331 332 344 347 349 349
315 313 311 311 311 311 310 309 309 308 308 309 308 308 308 307 307 307 307 307 306 306 306 306 306 307 308 308 309 310 312 314 316 317 313 314 321 326 330 328 338 341 347 350
319 314 313 312 311 310 310 309 309 309 309 309 308 308 308 308 307 306 306 306 306 306 305 304 305 306 307 306 306 308 310 312 314 317 319 320 322 322 325 323 318 323 323 336
314 312 312 311 310 310 310 310 309 309 309 309 308 308 308 307 307 306 306 305 306 305 303 304 303 303 304 305 304 306 307 309 312 314 318 321 321 322 323 325 324 318 319 320
313 311 311 310 310 310 310 310 309 309 309 309 309 309 308 308 307 306 305 303 304 303 303 302 301 301 302 302 303 304 305 307 308 312 314 317 319 320 322 324 327 329 331 331
312 311 311 311 310 310 310 310 310 310 309 309 309 309 309 308 307 305 304 303 303 302 301 300 300 300 300 301 303 304 305 306 309 310 313 314 317 318 319 321 324 328 331 332
313 311 310 311 310 311 311 310 310 309 308 309 309 309 308 307 306 304 303 303 302 303 301 299 300 299 299 300 301 302 303 305 306 308 310 313 315 317 318 319 321 324 327 329
313 313 311 310 310 310 311 310 310 309 308 309 309 309 308 306 305 305 304 303 303 303 301 299 299 299 299 299 300 301 302 304 305 306 309 311 313 315 317 319 319 321 325 328
312 311 311 310 311 311 311 311 310 309 309 309 309 309 307 306 305 304 304 303 303 302 301 299 299 299 299 300 300 301 302 303 305 306 308 309 310 314 318 318 319 320 322 326
312 312 312 312 312 311 311 311 311 309 309 310 309 308 307 305 305 304 304 303 302 302 300 299 298 298 298 299 299 300 301 303 304 305 306 309 310 311 313 316 318 320 322 324
314 313 313 313 312 312 311 311 311 310 310 310 309 308 306 305 305 304 304 303 301 302 299 298 298 298 298 298 299 300 301 302 304 305 305 306 309 311 313 315 316 318 321 324
314 313 313 312 312 312 312 311 311 311 310 310 308 307 306 305 305 305 305 303 301 300 298 298 297 297 297 297 297 298 298 299 301 302 304 306 308 309 310 312 314 318 319 321
312 311 311 311 311 311 311 311 311 310 310 309 308 306 305 305 305 304 304 303 302 299 299 298 297 297 296 296 296 296 297 298 298 299 300 302 304 306 309 311 313 315 318 321
309 309 309 309 310 308 308 308 311 310 309 309 307 306 305 305 304 304 303 302 302 300 300 298 298 297 296 295 295 295 295 296 297 298 298 299 300 303 305 310 313 314 316 318
307 307 307 306 306 307 309 308 307 308 307 308 306 305 305 305 304 303 303 303 300 300 300 298 298 298 296 295 294 294 294 294 295 296 297 298 299 301 303 306 309 312 314 317
307 307 307 307 306 303 304 306 308 305 307 306 306 305 305 305 304 303 302 302 301 300 301 300 299 298 297 296 295 294 294 294 294 294 295 296 297 298 299 301 303 306 309 312
306 305 305 306 304 303 301 304 306 303 304 305 305 304 304 303 302 302 301 301 301 301 301 301 300 299 297 297 296 295 294 294 295 294 294 295 295 296 296 297 298 300 302 303
305 303 304 305 304 303 302 303 303 305 305 305 304 303 302 302 302 301 300 300 300 301 301 301 300 300 298 298 297 296 295 294 294 296 295 294 294 295 295 294 295 296 296 297

GFSNGP_850_thetae_075.txt.gz
Theta_e
321 320 323 324 324 323 325 327 329 333 335 333 331 330 324 320 318 318 317 317 316 316 314 320 326 336 344 343 344 347 349 351 352 353 353 351 354 354 354 354 352 344 344 351
320 320 320 321 321 320 322 325 327 330 332 328 325 325 325 325 323 319 318 318 316 316 316 314 314 315 325 337 341 343 345 347 351 352 352 354 354 355 356 356 354 352 347 346
322 320 319 319 320 320 321 322 325 329 329 326 326 324 323 324 322 320 319 318 318 317 317 318 318 316 316 317 327 339 342 342 345 348 351 352 353 353 353 354 355 354 352 352
323 323 323 320 320 319 320 321 325 326 325 324 323 321 320 321 319 318 318 317 317 317 317 317 318 317 316 317 313 314 329 342 346 345 346 348 349 351 352 353 352 352 354 354
322 323 321 320 318 318 321 321 321 323 321 320 318 319 320 317 316 316 316 316 316 316 316 317 319 319 318 318 315 314 312 317 337 344 347 347 347 350 351 350 351 353 353 352
321 322 322 321 318 317 318 323 318 319 318 318 317 320 323 316 315 315 315 315 315 315 315 316 318 318 319 320 320 322 318 312 312 321 338 342 343 348 350 350 354 354 353 353
323 323 322 320 316 316 318 322 317 316 316 316 317 317 315 314 314 313 314 314 313 314 314 316 316 317 318 319 320 321 320 319 315 312 313 321 332 338 343 347 349 349 351 348
322 323 328 317 316 318 320 317 315 315 314 314 314 313 312 312 312 312 312 312 312 312 312 312 313 314 316 317 318 318 318 317 315 314 313 312 316 319 330 340 346 348 348 348
322 324 320 317 317 317 317 316 314 314 312 311 311 312 311 311 311 311 310 311 310 311 311 311 311 312 313 314 315 316 317 317 317 314 314 315 312 312 317 329 332 335 346 345
318 317 316 316 314 313 312 313 312 311 311 310 311 311 311 311 310 310 310 310 310 310 310 310 310 311 311 311 312 313 313 314 315 316 316 316 319 313 314 325 332 335 344 345
317 316 315 315 314 313 312 312 311 311 311 311 311 311 311 311 311 310 309 309 309 308 309 309 309 309 309 310 310 310 311 311 313 315 317 318 320 322 322 323 329 333 336 341
321 317 317 315 314 313 313 312 311 311 311 311 311 311 311 311 310 309 309 309 308 308 308 309 308 308 308 308 307 308 308 309 311 312 314 317 319 322 322 322 321 317 322 321
317 316 315 315 314 313 313 312 312 312 312 312 311 310 310 311 310 309 309 308 307 306 306 306 306 306 306 305 305 305 306 307 308 309 311 314 316 319 323 324 324 322 317 316
317 316 315 314 313 312 312 312 312 312 311 311 311 311 311 310 310 310 309 307 306 306 306 305 304 304 304 303 303 303 303 304 306 306 308 310 313 316 318 321 323 324 324 325
315 315 314 313 312 312 312 312 312 311 311 311 311 310 310 310 309 309 308 307 306 305 305 304 304 303 303 301 301 301 302 303 304 305 307 308 311 315 317 318 320 321 322 324
315 315 314 313 313 312 313 312 312 312 311 311 310 310 310 309 309 308 307 306 305 305 304 304 303 303 302 301 301 301 301 301 302 304 304 306 308 311 313 316 317 319 320 321
314 315 315 313 312 312 313 312 312 311 311 310 310 310 310 310 309 307 307 305 305 305 304 303 303 302 301 300 301 301 301 301 301 302 303 305 306 308 312 314 316 318 319 320
314 314 314 313 312 312 312 312 311 311 311 311 310 310 311 310 308 307 306 305 305 305 304 303 302 300 300 299 299 299 299 300 301 302 302 304 305 306 308 311 314 316 318 320
315 314 314 313 313 312 312 312 312 311 311 311 310 311 311 309 308 307 306 306 305 305 304 302 300 300 298 298 298 299 299 300 301 301 302 303 304 305 306 308 310 313 315 316
315 315 314 314 313 313 312 312 312 312 312 311 310 311 310 309 307 306 306 307 306 304 302 302 300 299 298 297 297 297 297 297 298 299 300 302 304 305 306 307 308 311 313 314
314 314 314 314 314 314 314 314 314 313 312 311 311 311 310 309 307 307 307 307 305 304 301 302 301 299 299 297 296 296 296 295 296 297 298 299 301 302 304 305 307 309 311 312
312 311 311 311 311 311 312 312 313 313 312 312 311 311 309 308 307 306 306 306 305 303 301 302 301 299 298 297 296 295 295 295 294 295 296 297 298 299 300 302 305 307 309 310
309 309 309 308 309 309 309 309 310 311 311 311 311 309 309 307 306 306 305 305 304 303 301 302 300 299 298 298 297 295 294 294 295 294 294 295 296 297 298 299 301 303 306 308
308 308 308 308 308 307 307 307 308 310 310 309 310 309 307 306 306 306 305 304 304 303 302 302 302 301 300 299 298 297 295 294 294 294 293 293 294 295 297 297 299 301 303 305
307 307 307 307 307 306 306 305 305 307 308 309 307 307 306 306 306 304 304 304 304 303 303 303 302 301 301 300 299 297 296 295 293 294 294 293 293 294 296 297 298 300 301 303
306 306 305 306 307 305 303 304 303 307 307 306 305 306 306 306 304 303 303 302 302 302 302 303 302 302 301 301 300 298 296 295 294 293 293 293 293 293 294 295 296 298 298 299
306 306 305 306 306 304 302 304 304 304 304 305 305 305 304 304 303 302 302 302 301 302 302 302 302 302 301 300 299 299 297 295 295 294 293 293 292 292 293 293 294 295 296 296

GFSNGP_850_thetae_078.txt.gz
Theta_e
324 323 322 325 325 326 326 328 333 338 341 337 334 329 326 323 323 322 320 320 321 319 320 331 337 337 342 344 345 345 347 348 349 350 353 355 354 353 353 353 353 351 347 345
324 323 322 323 325 325 325 325 328 334 335 333 329 326 325 324 323 322 321 320 319 320 320 318 318 325 331 340 343 343 343 345 342 341 347 350 351 352 353 353 353 354 352 347
325 322 322 322 322 322 322 323 333 336 332 329 329 328 327 326 324 322 321 321 320 319 320 321 320 317 319 321 330 342 342 341 343 345 337 339 351 353 352 353 353 353 353 353
325 323 324 322 322 321 321 323 329 331 330 328 326 324 325 323 321 320 320 320 319 319 319 320 321 317 315 319 316 317 323 328 339 344 345 348 350 352 353 352 352 353 355 355
325 324 324 323 321 321 321 323 326 328 327 325 323 323 321 319 318 318 318 318 318 318 318 320 321 321 320 322 321 323 319 314 321 334 342 345 345 349 349 350 351 352 351 352
323 324 324 323 319 318 320 324 323 324 324 323 321 325 322 318 317 317 317 317 317 317 318 319 319 319 320 322 322 324 321 318 315 314 316 332 341 344 346 348 350 351 351 352
323 324 325 322 318 318 321 322 321 321 321 319 320 321 319 317 316 316 316 316 315 315 316 316 316 316 318 320 321 321 320 318 316 315 314 314 315 326 338 341 343 347 349 350
321 325 328 319 318 319 322 319 318 318 317 317 317 316 315 315 314 314 314 314 313 314 314 314 314 315 316 317 318 318 317 317 317 315 314 314 314 314 313 315 326 338 342 346
323 327 322 319 320 321 320 318 317 317 316 315 314 314 314 313 313 313 313 313 313 313 313 313 313 313 314 314 313 313 313 313 312 312 313 313 313 316 316 314 314 317 332 337
322 321 320 319 318 318 317 318 316 315 313 312 313 313 313 313 313 313 312 312 312 311 311 312 312 312 311 311 311 311 311 312 313 313 311 311 313 315 318 321 317 316 327 333
319 317 317 316 317 315 314 314 314 313 312 312 313 313 313 313 313 312 311 311 310 310 310 310 311 310 310 310 309 308 309 309 310 311 312 313 315 316 318 320 322 322 323 331
324 318 319 317 316 316 315 313 313 312 312 313 313 313 312 312 313 311 311 311 310 310 309 309 309 309 308 308 307 306 306 307 308 308 310 310 312 313 315 318 321 323 323 321
319 318 318 317 317 316 315 315 313 313 313 313 313 312 312 312 312 311 311 311 310 309 308 308 307 307 306 305 305 305 304 305 305 306 307 308 309 310 313 314 317 319 324 325
318 318 318 318 316 316 315 315 313 313 313 313 313 312 312 312 312 311 311 310 309 308 307 306 305 305 305 305 303 304 303 303 303 304 305 306 307 309 310 312 315 317 316 321
317 317 316 316 315 314 314 314 314 313 313 313 312 312 312 312 311 310 310 309 308 307 306 305 305 304 304 303 303 303 303 303 302 302 303 304 304 305 306 308 311 314 317 319
317 317 316 316 315 314 314 313 313 313 313 312 312 312 312 312 311 310 309 309 307 307 305 305 304 304 302 302 302 302 302 303 302 302 302 303 304 304 306 307 307 312 314 315
317 316 316 316 315 314 314 314 313 313 313 313 312 312 312 311 311 310 309 308 307 306 306 305 304 303 301 301 301 301 300 300 300 301 301 302 303 303 304 304 307 309 311 314
317 316 316 314 313 312 312 313 313 313 313 312 312 312 312 311 311 309 309 309 307 306 305 305 304 303 301 300 299 299 300 300 300 300 300 301 301 302 303 303 304 306 308 309
316 315 315 314 315 314 314 314 313 313 313 312 312 312 312 312 311 309 308 308 307 307 307 305 304 302 302 300 299 298 297 297 297 297 298 299 299 300 302 303 304 304 305 306
316 315 315 316 314 315 314 315 314 314 313 313 313 312 312 312 311 309 309 308 308 308 306 305 303 302 302 301 299 299 298 296 295 295 296 296 296 297 299 301 302 304 306 306
314 315 314 313 313 313 314 314 313 313 312 311 312 312 313 312 311 310 308 308 308 308 306 303 302 303 301 301 300 299 298 297 296 295 295 294 295 295 296 297 299 300 303 304
312 311 311 310 310 309 309 310 310 312 313 314 315 313 312 312 310 309 308 307 307 306 304 303 303 303 301 301 301 300 298 297 297 296 295 294 293 294 294 294 295 297 298 301
310 310 310 309 309 309 308 308 308 309 310 311 312 312 311 310 307 308 308 308 307 306 304 304 303 302 302 301 301 300 299 298 296 295 295 295 294 293 293 293 294 295 296 298
309 307 307 308 309 308 308 307 308 308 308 309 309 310 310 307 306 307 306 307 306 305 304 303 303 303 302 301 302 300 298 299 296 295 294 294 293 292 292 292 292 293 295 296
307 307 308 308 309 308 307 306 306 306 305 307 308 309 308 306 306 306 306 306 305 304 304 304 303 303 302 302 302 301 300 298 296 295 294 293 293 292 292 291 292 293 293 295
308 307 307 308 307 305 304 305 306 305 306 306 305 306 305 305 307 304 305 304 303 303 303 304 304 303 303 302 301 300 300 299 298 295 294 293 293 292 292 291 292 292 292 293
308 306 306 307 305 305 303 305 305 306 306 305 305 305 306 306 304 303 303 303 303 302 303 303 302 302 302 301 300 300 300 299 297 296 295 294 292 292 292 291 291 291 292 293

GFSNGP_850_thetae_081.txt.gz
Theta_e
324 325 323 321 322 324 323 326 336 340 339 333 328 325 324 322 321 321 321 320 320 325 334 337 341 343 343 343 335 340 343 339 344 350 349 348 348 349 350 353 350 349 347 345
323 323 322 321 322 324 324 333 336 337 337 330 326 324 324 323 321 319 320 321 321 321 318 321 330 331 336 343 342 341 339 343 343 342 335 338 344 346 350 351 352 352 349 351
323 324 324 322 322 320 330 332 332 337 330 327 325 325 324 323 322 322 320 319 319 320 321 320 317 321 320 320 326 339 342 342 340 341 340 336 338 341 346 349 351 353 352 352
323 323 325 322 321 321 321 329 330 330 328 328 328 326 323 322 321 320 319 319 319 320 321 321 320 319 321 322 323 321 320 325 336 340 343 342 341 337 344 345 348 352 352 352
323 323 323 323 322 320 321 328 329 328 326 324 322 321 320 320 319 319 318 318 318 318 319 320 320 321 322 322 324 323 321 319 317 324 333 340 343 345 345 345 347 350 352 352
324 327 324 322 319 319 321 326 329 328 324 323 323 321 318 318 318 317 317 317 317 317 319 319 319 319 320 321 321 322 321 318 316 315 315 316 322 335 341 341 344 347 349 350
322 324 325 321 318 318 321 325 324 324 324 323 319 320 318 317 317 317 316 315 315 315 315 315 314 314 315 318 319 320 319 318 316 315 314 314 315 317 318 322 327 337 342 345
321 322 324 320 319 323 322 318 318 319 319 318 317 317 317 316 315 315 314 313 313 313 313 313 313 312 313 313 314 314 313 313 312 312 312 312 313 313 314 315 315 316 318 327
322 323 321 319 321 320 319 318 317 317 316 316 316 315 314 314 314 313 313 313 313 313 313 313 312 312 311 310 310 310 310 310 310 310 310 311 311 311 311 313 314 316 317 317
319 322 321 319 319 319 319 317 317 316 315 315 314 314 313 313 313 313 312 312 312 310 311 311 311 311 310 309 308 307 307 307 308 308 309 310 311 312 314 315 317 320 323 323
319 318 317 318 318 318 316 316 316 315 314 313 314 313 313 313 313 312 312 311 311 310 309 310 309 308 308 308 307 306 305 306 306 307 307 307 308 309 310 313 317 319 321 322
320 320 321 318 316 316 314 313 315 313 312 313 313 313 313 313 313 312 311 311 311 309 309 308 308 307 306 305 305 304 304 305 305 305 306 306 306 307 308 308 309 313 317 319
319 318 318 318 318 318 316 314 313 313 312 313 313 313 312 312 313 312 310 311 310 308 308 308 306 305 305 304 302 301 302 304 304 305 305 305 305 305 306 308 308 309 310 313
318 317 318 318 318 318 317 315 313 313 313 313 313 313 312 312 313 311 311 310 309 308 307 306 304 304 303 302 300 300 300 301 302 303 304 304 304 304 304 305 306 308 308 308
317 317 317 318 316 317 316 316 314 313 313 313 313 313 312 312 311 311 310 310 309 308 307 306 304 304 304 303 300 300 301 301 301 301 301 302 302 302 303 303 304 305 306 307
316 316 317 317 316 315 315 315 314 313 313 313 313 313 313 312 312 311 310 309 309 308 307 305 305 305 304 303 299 299 299 299 300 300 300 300 300 301 301 302 302 303 304 305
315 316 316 316 315 316 315 314 315 314 313 313 312 312 312 312 312 311 310 309 309 308 307 305 305 305 304 302 299 299 298 298 298 298 298 299 300 300 300 301 301 302 303 304
316 316 317 316 316 315 314 314 314 314 314 314 313 313 313 312 312 311 310 309 308 308 307 304 305 305 304 301 299 299 299 299 298 298 297 297 297 298 298 298 299 300 301 303
316 316 315 315 315 314 314 313 312 313 314 313 312 313 312 312 312 311 310 309 309 308 307 305 306 305 305 301 300 300 300 299 298 297 297 297 296 296 296 296 296 297 299 300
315 315 315 315 315 315 314 314 314 314 314 314 313 313 313 314 313 311 311 310 309 308 306 307 307 306 302 301 301 301 300 300 299 299 296 296 296 295 295 295 294 294 295 297
314 314 314 313 313 313 313 313 312 313 313 313 313 312 312 313 313 312 311 309 308 307 306 307 307 303 302 302 301 301 300 300 298 298 297 296 295 295 294 294 293 293 294 295
312 312 311 311 310 310 310 309 309 309 309 309 310 310 311 310 310 310 310 309 308 308 308 307 304 303 303 303 302 302 301 300 299 298 296 295 295 294 294 294 292 292 293 294
309 308 307 308 308 308 309 309 309 308 308 308 309 309 311 312 311 309 310 308 308 306 307 306 304 304 303 303 302 301 301 301 300 298 297 296 295 294 293 293 292 291 291 291
307 306 307 308 308 308 308 307 307 307 308 308 308 308 307 309 310 310 309 307 306 307 306 305 304 304 304 303 302 301 302 301 300 299 298 296 295 294 293 293 293 292 291 291
308 308 308 308 307 307 305 304 304 305 305 305 305 306 306 309 309 307 307 307 307 305 304 303 304 304 303 302 302 302 301 300 300 299 298 296 295 294 293 293 292 291 290 290
308 308 307 306 306 305 304 304 305 305 305 306 306 307 308 307 306 306 306 306 304 303 303 303 303 303 302 302 302 301 300 300 300 299 298 297 295 295 293 292 292 291 291 290
306 307 306 304 304 304 304 305 305 305 305 304 303 302 305 305 304 305 305 304 303 303 303 304 303 302 302 301 301 301 300 300 299 299 299 298 295 294 294 293 292 292 291 291

GFSNGP_850_thetae_084.txt.gz
Theta_e
321 320 320 320 320 321 320 322 333 335 334 328 325 323 322 322 322 322 324 327 331 337 341 341 342 342 343 341 335 334 341 338 340 339 343 343 344 345 346 346 346 345 345 343
320 324 322 320 320 325 331 335 336 333 330 324 323 322 321 321 321 321 321 320 320 322 323 329 335 341 342 342 341 339 340 343 341 339 340 341 342 342 344 345 346 347 346 346
321 322 322 320 319 320 330 335 334 335 329 324 323 323 322 320 320 320 321 321 321 320 320 322 321 322 328 334 339 340 340 341 341 339 339 340 339 336 339 341 344 347 348 347
318 319 323 320 319 319 327 330 328 326 325 324 323 323 322 321 319 319 319 320 321 321 321 321 322 322 323 323 320 325 329 338 341 341 341 339 339 337 339 335 342 344 345 347
318 318 319 322 319 319 319 327 328 326 325 324 322 321 321 320 320 319 318 319 320 321 320 321 322 322 324 324 323 321 321 320 325 331 338 337 335 341 341 340 340 344 344 344
317 322 321 319 318 318 321 324 325 325 322 320 320 319 317 319 319 318 317 318 319 319 320 319 320 321 322 322 322 321 320 319 318 317 318 324 331 328 331 335 340 341 342 344
318 320 322 319 318 318 321 320 324 322 320 319 317 318 317 318 318 318 317 317 317 317 318 317 316 316 318 319 319 319 319 318 317 315 315 315 315 316 317 317 318 328 338 337
314 316 318 320 319 319 317 318 322 322 321 321 320 317 317 317 317 316 315 314 313 313 313 312 312 312 312 313 313 312 312 311 311 311 311 311 311 312 312 313 314 316 317 316
316 316 318 320 320 318 317 318 319 320 318 318 317 316 316 315 315 314 314 313 313 312 312 312 312 311 310 309 308 308 308 308 308 309 309 309 310 310 311 311 312 313 315 317
314 319 319 320 320 319 317 316 316 317 318 317 316 316 315 314 313 313 313 313 312 312 311 310 310 309 309 307 306 306 305 305 305 306 307 307 308 308 309 310 312 313 314 316
313 315 317 319 319 319 318 316 316 315 315 315 315 314 314 313 313 313 313 312 312 310 307 307 307 306 305 305 304 304 304 304 305 305 305 306 306 306 307 307 308 309 310 312
314 318 317 317 318 318 318 318 317 315 314 313 314 313 313 313 313 312 312 311 310 310 308 306 306 305 304 303 302 301 302 303 304 304 305 305 305 306 306 306 306 307 307 308
319 318 318 318 318 318 317 316 316 315 313 312 313 313 313 313 312 312 311 311 311 310 309 307 306 303 302 301 300 299 300 300 301 302 302 303 304 304 305 305 305 306 306 307
318 318 317 318 318 318 318 316 314 314 313 312 313 313 313 312 312 312 311 310 311 310 309 306 303 302 302 302 300 299 300 301 301 301 302 302 302 303 303 304 304 305 305 306
317 317 316 317 317 317 317 317 317 314 312 312 312 312 313 312 312 312 311 311 310 309 308 307 304 303 304 303 300 299 299 299 300 300 300 300 301 301 302 302 303 303 304 305
316 316 315 316 317 317 316 316 316 313 313 312 312 313 313 312 312 312 311 310 310 309 309 308 306 304 304 304 300 299 299 299 299 299 299 299 299 299 299 300 301 301 302 302
316 315 316 316 316 316 315 315 315 315 313 313 313 313 313 312 312 312 311 311 310 309 308 308 307 305 304 304 303 299 300 300 299 299 299 299 298 298 298 299 299 300 301 301
315 315 315 315 315 315 315 315 315 315 314 313 313 313 313 313 312 312 312 311 310 309 309 308 308 305 304 305 302 300 300 300 300 300 299 298 297 297 297 297 298 298 299 300
315 315 316 315 315 315 314 314 313 314 312 314 313 313 313 313 313 313 312 311 310 309 309 308 308 305 305 305 301 300 301 301 300 298 298 297 296 296 297 296 295 296 296 297
316 315 315 315 315 315 314 312 313 312 312 311 312 314 313 313 313 313 311 312 311 311 310 309 308 306 306 303 301 301 301 301 300 299 299 298 297 296 295 295 295 295 294 293
314 313 313 313 313 312 312 312 312 312 313 313 313 313 311 311 312 313 312 312 310 310 309 308 307 306 305 302 302 302 302 302 301 300 300 298 298 296 295 295 294 293 293 292
311 311 310 310 310 310 309 309 309 309 309 309 309 309 309 310 311 312 312 312 311 310 308 307 307 307 303 303 303 303 302 302 300 301 301 299 298 296 295 295 294 293 292 291
308 307 306 307 308 308 308 308 309 309 308 308 308 310 309 308 309 311 311 310 310 309 307 306 306 305 303 303 303 303 303 300 300 300 300 299 298 296 295 295 294 293 293 291
307 307 307 307 307 306 306 305 304 304 304 305 306 307 308 308 307 307 310 310 310 309 308 306 306 304 303 304 303 303 301 300 300 300 300 299 298 298 296 294 294 293 293 292
308 308 308 307 305 305 304 304 304 304 304 304 305 305 305 306 307 307 309 310 309 308 307 307 306 304 304 304 302 301 301 300 300 300 300 299 298 298 297 294 295 294 293 292
308 307 306 304 304 305 305 305 304 304 303 303 305 305 306 306 307 307 308 307 306 306 304 304 305 304 304 302 301 301 301 301 300 300 299 299 299 298 297 294 294 294 293 293
306 304 303 303 304 304 304 304 304 304 304 303 304 305 306 305 306 305 305 306 306 306 305 305 303 303 303 302 301 301 301 301 301 301 300 299 299 298 297 294 293 294 294 293

GFSNGP_850_thetae_087.txt.gz
Theta_e
320 319 319 318 319 322 320 321 329 332 334 332 326 322 322 323 324 324 329 332 335 338 340 342 343 345 345 344 341 341 339 340 342 343 342 342 343 343 343 345 341 342 344 347
320 325 320 320 320 319 331 332 331 329 328 323 324 323 322 323 322 321 323 324 326 330 337 339 342 342 343 343 337 337 339 341 338 338 337 340 339 341 342 342 343 343 343 344
322 318 326 326 320 319 327 331 330 333 327 322 321 321 321 322 322 321 321 322 323 323 324 327 335 338 340 340 340 339 338 339 341 341 340 340 339 340 340 340 339 340 344 345
317 318 325 323 320 322 328 328 326 325 323 322 321 321 321 321 321 321 321 320 320 321 322 323 324 323 326 331 337 338 340 340 340 340 340 338 337 338 340 339 337 336 339 342
315 317 318 320 318 319 324 327 324 324 323 322 322 321 320 320 319 320 321 321 321 322 322 323 324 324 323 322 323 325 328 332 334 337 340 339 338 339 338 339 338 336 338 338
315 320 318 316 317 317 319 324 325 324 322 321 321 320 317 319 319 319 320 320 320 321 321 321 322 324 323 323 322 320 320 320 319 322 325 329 333 332 335 336 339 339 339 340
316 317 318 318 318 318 322 318 324 324 322 321 320 319 320 320 318 318 318 319 319 319 319 319 318 319 320 320 320 319 318 318 317 316 315 316 317 317 322 330 329 326 326 328
311 314 317 319 318 318 315 318 321 323 322 321 319 319 318 318 317 317 317 317 317 317 316 315 313 312 312 313 313 313 312 311 311 311 311 311 312 312 313 313 317 321 314 316
314 313 315 319 318 318 318 320 320 321 320 320 319 319 318 317 317 317 316 315 314 313 312 311 311 310 309 309 309 308 307 307 308 308 308 309 309 310 310 311 311 311 312 313
314 317 317 319 317 317 317 317 320 321 320 320 317 317 317 316 316 316 315 314 313 312 311 311 310 308 306 306 305 304 304 304 305 305 306 306 307 307 307 308 309 310 310 311
311 313 315 318 319 318 317 316 316 319 320 321 319 317 316 316 315 314 313 313 312 312 310 308 306 305 304 304 303 303 303 303 304 304 304 305 305 305 306 306 306 306 307 307
313 315 315 316 318 317 317 316 316 316 317 318 318 317 316 315 314 313 312 312 312 310 308 306 305 305 303 302 301 300 300 301 302 303 303 304 304 304 304 304 305 305 305 305
318 318 318 318 318 318 317 316 315 316 315 315 315 315 315 314 313 313 312 312 311 309 309 309 306 304 302 301 300 299 299 300 301 301 301 302 302 303 303 303 303 304 304 304
318 318 317 317 317 317 318 318 317 315 316 315 314 314 313 313 312 312 312 312 311 309 310 309 305 302 302 302 300 299 299 300 300 300 300 300 300 301 301 301 302 302 302 303
317 318 317 316 316 316 316 317 316 316 313 313 313 313 313 312 312 312 312 312 311 310 310 308 306 302 302 302 300 299 299 299 299 299 299 300 300 300 300 300 301 301 302 302
317 316 315 315 314 313 316 316 316 316 316 314 313 313 312 312 312 312 312 312 311 311 310 308 307 305 302 303 301 299 299 299 299 299 300 300 299 299 299 299 299 300 300 301
316 315 315 313 315 316 316 315 315 315 315 313 312 313 313 312 312 312 312 312 312 311 310 309 308 307 305 303 304 301 300 300 300 300 300 299 298 298 298 298 299 299 299 299
317 315 314 313 314 314 315 314 313 314 315 315 314 312 312 312 312 312 312 312 312 311 310 309 308 307 306 304 304 300 300 300 300 300 299 299 298 297 297 297 297 298 299 299
316 315 315 315 315 315 315 314 314 314 313 314 314 313 313 313 312 312 312 312 312 311 311 310 309 308 307 304 304 301 300 300 300 299 299 299 298 297 296 295 296 297 297 298
315 315 316 316 314 314 315 314 313 312 313 313 313 313 313 312 313 312 312 311 311 311 311 310 309 308 307 305 304 301 301 301 301 300 300 300 299 298 296 295 295 295 296 296
314 314 313 313 312 313 313 313 313 311 310 312 312 312 312 310 309 312 312 312 313 312 310 310 308 308 307 306 303 302 302 302 301 301 300 300 299 299 298 297 295 294 296 295
311 311 310 310 310 310 309 309 309 308 308 309 309 309 310 310 310 311 310 311 312 312 311 312 308 308 306 306 303 303 303 302 302 300 299 299 299 299 298 298 297 294 295 295
308 307 306 306 307 307 307 307 307 307 307 308 308 308 308 309 309 309 309 309 310 310 310 310 309 307 306 305 303 303 303 303 302 300 299 300 299 299 298 298 297 295 294 295
306 306 306 307 307 307 305 304 304 304 304 304 304 304 306 308 308 308 307 306 309 311 311 311 310 308 306 303 304 303 303 302 301 300 300 300 299 299 298 298 298 296 293 294
308 308 307 307 305 304 304 304 304 304 305 303 304 304 304 305 308 307 307 306 308 310 309 309 308 305 306 304 303 304 301 301 300 300 300 300 300 299 299 298 297 295 294 294
308 308 305 304 304 304 304 304 304 304 304 305 306 306 306 304 305 306 306 307 308 309 306 307 306 306 305 304 304 302 301 300 300 301 300 301 301 300 299 298 297 294 293 293
306 304 304 303 304 304 303 303 304 304 304 304 304 305 306 306 306 306 306 305 305 304 305 305 305 304 303 304 303 302 301 301 301 301 301 301 301 300 298 297 296 294 293 293

GFSNGP_850_thetae_090.txt.gz
Theta_e
319 318 318 319 319 321 328 318 327 326 332 330 327 323 323 325 327 330 332 336 338 340 342 343 344 345 344 344 344 343 343 342 341 339 342 342 342 342 341 342 342 341 341 344
320 320 323 324 320 324 331 332 331 330 332 324 325 324 322 324 326 327 329 334 336 338 340 341 342 344 345 344 343 342 341 338 337 336 341 340 339 339 340 341 342 342 341 342
321 317 325 326 322 327 329 329 329 332 326 321 321 322 322 322 323 324 325 326 329 335 337 339 340 340 340 341 339 338 338 339 339 338 340 340 337 339 338 339 340 340 338 340
318 317 326 321 319 325 328 327 326 323 322 321 321 322 323 322 322 322 323 323 324 325 327 331 333 337 338 339 338 338 338 338 339 339 339 339 340 339 337 336 339 339 338 336
315 316 316 319 316 317 320 326 323 322 321 320 320 320 319 321 322 321 321 322 323 323 325 324 324 326 329 331 333 334 335 336 337 338 338 338 337 338 338 338 338 339 339 336
314 317 317 314 317 318 318 320 323 322 321 320 320 320 317 320 322 321 320 320 321 322 323 324 324 323 322 321 321 323 324 323 324 325 329 334 335 335 333 334 334 335 337 338
315 315 316 315 317 318 321 319 323 323 322 320 320 321 322 319 320 321 320 321 321 321 321 321 322 322 321 320 320 319 318 317 317 317 316 317 319 321 322 323 327 326 319 326
310 313 315 317 317 318 315 318 322 324 323 321 320 321 319 319 319 320 320 319 319 319 318 318 317 316 314 314 313 313 312 312 311 311 311 312 312 312 312 313 314 316 318 316
311 312 312 318 318 317 317 318 320 324 324 322 320 320 319 319 318 318 318 318 317 317 316 313 312 311 310 309 309 308 308 308 308 308 308 309 309 309 309 310 310 311 311 312
314 315 317 318 317 317 317 318 319 321 324 322 320 320 319 318 317 317 317 316 315 313 312 311 311 310 308 306 305 305 304 304 305 305 305 306 306 307 307 307 308 308 308 308
311 312 316 318 319 318 317 317 318 320 321 322 320 320 319 317 317 317 316 314 314 313 312 311 309 306 304 303 303 303 303 303 303 303 304 304 304 305 305 305 305 306 306 306
312 315 316 316 318 318 317 317 317 317 319 320 321 321 320 318 319 317 315 314 313 312 311 308 306 304 304 303 302 301 301 301 302 302 303 303 304 304 304 304 304 304 304 304
316 318 316 317 317 317 317 316 316 316 316 316 316 317 319 318 317 316 315 314 312 312 310 308 307 305 303 301 301 300 300 300 300 301 301 301 301 302 302 302 302 302 302 303
317 318 317 318 317 316 317 317 317 316 316 316 316 316 316 316 317 315 314 313 312 311 309 308 308 305 301 301 301 299 299 299 300 300 300 300 300 300 300 301 301 301 301 301
318 317 317 316 316 315 316 315 316 316 316 315 314 315 315 315 315 314 313 312 312 311 309 309 308 305 301 302 301 299 299 299 299 299 299 299 299 299 299 299 300 300 301 301
316 317 317 316 315 314 313 314 316 316 315 315 315 314 313 314 314 313 313 312 311 311 310 309 309 305 302 302 301 299 299 299 299 299 299 299 299 299 298 298 298 299 300 300
316 315 315 315 313 313 315 315 315 314 313 314 315 315 313 312 313 313 313 312 312 312 311 310 308 306 305 303 303 303 300 299 299 300 299 299 299 298 297 297 297 298 299 299
316 316 315 314 313 313 314 314 313 313 314 314 314 314 312 312 311 312 312 312 312 312 311 311 309 307 307 305 303 303 300 300 300 300 299 299 299 298 297 296 295 295 296 298
317 316 314 314 315 314 314 314 314 312 312 312 313 313 313 313 311 311 311 311 312 312 312 311 310 308 307 306 304 303 300 300 300 300 300 300 299 299 298 297 296 295 295 295
316 315 315 315 315 314 313 314 313 312 312 312 312 312 312 313 313 312 311 312 312 312 311 311 310 309 308 306 304 304 301 300 300 300 300 299 299 299 299 298 297 296 295 294
315 315 314 313 312 312 311 312 312 310 309 309 310 309 310 312 312 311 310 307 309 310 311 311 311 309 308 307 305 305 301 302 302 300 299 299 299 299 299 298 297 297 296 294
312 311 310 309 309 309 308 308 308 307 307 307 308 308 308 309 308 310 310 308 306 308 310 310 311 311 309 310 307 305 302 302 302 302 300 300 299 299 299 298 298 298 297 295
308 307 306 305 306 306 306 306 305 304 304 304 304 304 305 307 308 309 310 309 309 309 310 311 310 311 308 308 307 305 303 303 303 302 301 300 299 299 299 299 299 298 298 296
306 306 306 307 307 306 304 304 304 303 304 304 304 304 304 304 304 307 308 308 307 306 307 310 309 309 310 308 304 304 302 301 303 302 301 300 300 300 300 299 299 299 298 296
307 307 307 307 304 304 304 304 304 304 304 304 305 305 305 305 305 304 308 307 306 306 307 309 310 308 307 305 305 302 303 303 303 301 300 300 300 300 300 300 299 298 297 295
308 307 306 304 304 304 303 303 304 304 303 304 306 305 305 305 304 306 307 306 306 307 308 308 307 305 303 303 305 304 303 303 301 300 300 300 300 300 300 300 297 296 296 295
308 305 303 304 304 303 303 303 304 304 303 304 304 304 304 305 305 305 306 306 307 306 305 304 305 306 306 306 305 303 302 302 302 301 301 301 301 301 301 300 298 297 296 295

GFSNGP_850_thetae_093.txt.gz
Theta_e
323 324 325 326 332 333 325 325 331 332 334 338 338 336 333 332 330 331 334 337 339 341 342 344 345 345 345 345 345 344 343 341 342 341 342 343 344 343 341 340 340 341 342 342
324 323 326 325 328 335 334 334 334 335 335 329 333 330 328 330 329 330 331 335 337 339 340 340 342 343 345 345 345 344 343 342 342 342 341 340 339 340 341 341 341 341 341 342
326 323 327 328 326 327 330 333 333 334 334 330 330 329 330 329 330 329 329 333 336 337 339 339 339 341 342 343 343 343 342 340 339 339 338 339 341 339 338 339 339 340 340 339
325 327 327 324 323 326 328 330 330 330 329 331 330 329 327 327 328 328 327 327 329 334 337 338 340 340 340 340 341 341 337 338 339 339 338 339 340 339 338 338 336 338 338 338
326 325 322 322 320 321 324 326 329 329 327 327 325 325 325 324 325 326 325 325 326 327 332 333 335 336 337 337 337 337 337 337 337 338 338 338 339 338 338 337 337 338 339 339
323 322 323 321 320 319 321 325 328 327 328 326 325 335 331 323 323 323 324 324 324 325 325 326 326 326 329 330 330 331 331 332 331 332 332 333 334 333 332 332 332 332 334 336
323 322 320 320 319 319 326 325 324 326 327 326 329 327 324 322 322 321 321 322 322 324 324 323 322 322 321 321 320 319 319 318 318 318 318 319 320 322 324 325 327 327 327 325
320 322 323 319 320 322 321 320 321 326 326 325 322 322 321 321 321 320 321 321 322 322 322 321 320 319 317 316 314 313 313 312 312 311 311 312 312 312 313 314 316 316 319 319
321 322 318 318 320 317 317 320 321 322 326 324 321 320 319 320 320 320 320 320 319 319 318 317 314 312 310 310 309 309 308 308 308 308 308 308 309 309 309 310 310 311 312 313
323 322 320 320 318 317 317 318 318 321 323 322 321 320 319 319 319 319 319 318 318 317 315 312 311 311 310 309 307 306 305 305 305 305 305 306 306 306 307 307 308 308 308 309
321 317 318 319 318 318 317 317 317 318 321 322 322 321 321 319 318 318 318 317 316 314 312 312 311 309 307 305 304 303 303 303 303 303 304 304 304 304 305 305 305 305 305 305
324 319 321 320 319 318 318 318 317 317 318 319 320 321 321 321 320 319 318 317 315 314 313 311 309 307 305 304 303 302 302 301 302 302 303 303 303 303 303 303 304 304 304 303
319 317 317 317 316 317 317 317 317 317 317 317 317 319 320 320 320 318 317 317 317 317 312 310 308 307 306 304 302 301 300 300 300 300 301 301 301 301 301 301 301 301 301 301
316 317 317 317 319 317 317 317 317 316 316 316 316 316 317 318 318 317 318 317 316 314 312 310 308 307 306 302 301 300 300 300 300 300 300 300 300 300 300 300 300 300 300 301
317 317 318 317 316 315 315 315 315 315 316 316 315 315 315 316 316 316 316 316 315 313 311 310 308 308 306 301 301 300 299 299 299 299 299 299 299 299 299 299 299 300 300 300
317 317 315 316 316 315 313 312 314 316 315 315 315 315 315 314 313 315 315 315 315 313 312 311 309 308 307 301 301 300 299 299 299 299 299 299 299 298 298 298 298 299 299 300
316 317 317 316 314 312 313 315 315 314 313 312 313 313 314 314 314 312 313 314 314 313 312 312 311 309 307 303 302 300 299 299 299 299 299 299 299 298 298 297 296 296 297 297
316 317 315 315 313 313 313 314 314 313 313 313 312 312 313 313 314 312 312 312 313 312 312 312 311 310 308 306 303 303 302 300 299 300 299 299 299 299 298 297 297 296 295 295
315 315 315 314 313 314 314 314 313 313 313 312 312 312 312 312 312 313 312 311 311 311 312 312 311 311 309 307 306 303 303 300 300 300 299 299 300 299 299 299 298 297 296 295
316 315 314 314 315 315 313 311 312 312 312 311 311 309 309 308 310 312 313 312 311 310 311 311 310 310 310 308 306 304 304 300 300 300 300 300 300 300 300 299 298 297 297 297
315 315 315 314 313 312 311 310 310 309 308 307 307 308 308 308 308 311 311 311 311 311 311 311 311 311 310 308 306 305 304 301 301 301 300 300 300 299 300 299 298 298 298 298
313 311 310 310 309 307 307 306 306 306 305 305 304 304 304 305 307 308 310 310 310 308 308 309 309 309 309 309 306 306 305 302 301 302 301 300 300 300 300 299 299 299 298 298
309 307 306 305 306 306 306 304 304 303 304 304 305 304 304 304 304 304 307 308 309 309 309 308 307 305 307 307 308 306 306 303 302 302 302 302 300 300 299 300 300 299 298 298
306 306 307 307 307 304 304 303 304 304 304 305 305 305 305 305 304 304 304 306 308 308 308 307 308 309 309 308 308 308 305 304 302 303 302 303 301 300 300 300 300 300 299 297
307 307 307 306 304 304 303 303 304 304 304 304 305 304 305 304 304 305 305 305 308 307 307 306 306 308 310 308 308 307 304 302 303 301 303 302 300 300 300 300 301 301 298 297
307 307 305 304 304 303 303 303 304 303 304 304 304 304 304 305 306 306 307 307 307 306 306 306 308 308 307 307 307 306 304 301 302 303 301 300 300 300 301 301 301 301 299 297
307 307 303 304 304 302 303 303 303 304 304 303 303 303 304 304 305 305 306 307 306 306 306 307 306 305 303 303 302 302 303 304 303 302 301 301 301 301 301 301 301 301 299 298

GFSNGP_850_thetae_096.txt.gz
Theta_e
328 327 328 328 328 327 328 328 330 331 333 343 345 345 342 339 339 338 340 340 340 343 344 344 345 346 345 345 343 343 345 344 343 343 343 343 340 342 343 343 347 346 348 349
328 328 327 331 332 330 329 329 329 332 333 336 341 342 341 339 335 338 339 339 336 340 342 344 346 345 346 345 345 344 344 344 343 342 340 342 340 345 343 341 342 343 346 347
328 327 329 329 329 330 332 332 333 331 339 337 340 339 339 339 337 338 338 337 334 339 340 341 343 344 345 345 345 345 344 343 342 343 342 341 340 340 340 340 341 341 342 346
327 328 330 328 327 328 330 331 332 334 335 336 337 338 338 338 338 336 335 332 332 337 339 339 340 341 343 343 343 343 343 342 342 342 342 340 338 338 339 339 339 338 338 339
328 329 327 326 326 326 327 330 330 334 334 336 336 335 334 334 335 335 335 334 332 335 337 337 338 339 340 340 340 340 342 340 337 339 339 339 340 340 340 339 338 337 338 338
324 327 328 327 323 322 324 329 328 332 333 334 334 340 338 332 332 332 331 332 332 331 334 334 334 334 335 336 336 336 336 337 337 337 336 337 337 337 337 336 335 334 337 337
324 324 323 324 322 322 327 329 328 331 332 332 335 331 331 330 329 328 328 328 326 325 326 326 325 325 326 328 328 327 327 325 325 326 325 327 331 332 331 330 331 329 329 330
324 324 325 322 323 325 326 324 325 329 331 331 329 328 329 328 327 326 325 324 324 324 323 322 321 320 320 319 318 317 316 316 314 314 314 314 315 316 317 319 321 322 322 322
323 325 323 323 323 322 323 323 324 326 328 330 328 327 327 327 326 325 324 323 324 323 322 320 318 316 313 311 310 310 309 309 309 309 309 309 309 310 310 311 314 313 315 316
323 322 322 323 322 322 322 321 321 324 327 327 327 327 326 326 325 324 324 323 322 321 320 317 313 311 311 310 309 308 307 306 306 306 306 306 308 309 311 311 312 313 313 312
323 322 323 323 322 321 320 320 319 322 325 327 327 326 326 325 324 324 323 321 321 320 319 316 312 312 310 308 306 305 304 304 304 308 306 306 307 308 309 306 306 310 309 309
322 320 319 320 320 321 320 320 320 320 322 324 325 326 325 325 324 323 322 321 320 319 318 315 313 311 309 307 305 304 306 308 309 309 308 308 308 304 304 304 304 304 304 304
321 321 320 322 321 321 320 321 320 320 321 322 322 323 324 325 324 322 321 319 318 317 318 316 312 310 308 307 305 303 307 307 306 306 307 307 307 307 305 302 302 302 302 302
320 320 321 321 321 320 320 320 318 319 319 320 321 321 321 322 323 322 321 320 319 318 317 314 311 310 308 307 305 302 304 303 305 306 305 305 305 306 306 306 306 304 300 301
320 320 321 321 321 321 320 318 318 317 318 318 319 319 319 320 321 321 321 321 320 319 317 315 312 311 309 307 303 301 304 304 304 304 304 304 304 304 304 304 304 304 304 301
320 320 319 320 320 319 318 317 316 316 316 316 317 317 318 318 319 319 320 320 320 319 318 316 313 312 309 307 304 304 305 303 303 303 301 303 303 303 303 303 303 303 303 302
321 320 319 319 318 318 317 316 315 316 316 316 316 316 316 316 317 317 318 318 319 319 318 317 315 314 310 308 304 305 304 301 301 303 303 303 303 303 302 302 302 302 302 299
320 319 319 319 318 317 316 316 316 316 316 317 316 315 315 315 316 317 317 317 317 317 317 317 316 314 310 309 305 305 304 304 302 304 304 303 303 303 303 302 302 302 301 300
319 319 318 317 316 316 316 316 316 316 316 315 315 315 315 314 315 316 316 316 317 316 315 315 315 313 312 309 307 306 305 305 304 304 304 303 303 304 304 303 303 302 302 301
318 318 318 318 318 318 318 317 316 316 316 315 315 314 313 313 313 313 313 315 315 315 315 315 314 313 312 311 310 307 306 306 305 305 304 304 304 304 304 303 303 303 302 301
319 319 319 318 316 314 313 312 312 311 311 310 310 310 310 310 311 311 312 311 313 313 311 312 311 311 310 310 310 307 307 306 305 305 305 303 304 304 304 304 304 303 303 302
318 316 315 314 313 311 310 309 309 309 309 309 309 309 309 309 309 309 310 311 311 312 311 309 309 310 311 311 310 308 306 306 305 306 305 305 304 304 304 304 304 303 303 303
314 313 312 310 309 309 309 308 308 308 308 309 308 307 307 306 306 307 308 309 309 311 311 311 310 308 307 308 310 311 309 305 305 305 306 306 305 305 304 304 304 304 304 303
311 310 310 309 309 308 308 307 307 307 308 307 307 308 308 306 305 305 305 307 307 309 309 310 309 308 308 307 307 307 307 307 304 304 305 305 305 305 304 304 303 303 304 304
310 310 310 309 308 308 307 307 307 306 307 307 307 307 307 307 306 305 305 306 307 307 308 309 308 307 309 309 308 306 305 305 305 302 302 303 303 302 304 303 304 304 304 304
310 310 309 308 307 306 306 306 306 306 306 306 306 306 306 306 307 306 307 307 308 307 308 308 308 307 307 308 307 307 306 305 304 302 301 302 305 305 304 304 304 304 304 303
310 309 307 307 306 306 306 306 306 306 305 305 305 305 304 305 305 306 306 307 306 306 307 308 308 307 307 307 306 306 302 303 302 301 302 302 302 303 304 303 304 304 304 303

GFSNGP_850_thetae_099.txt.gz
Theta_e
329 330 330 327 326 327 328 330 331 331 337 346 349 349 347 345 344 343 344 344 343 343 346 348 349 350 348 345 344 343 343 344 343 342 340 343 343 343 342 343 347 349 350 351
330 329 329 328 329 328 328 328 329 330 338 344 345 347 346 345 345 345 344 344 341 344 344 344 344 348 351 348 346 345 347 346 344 342 344 343 344 342 340 343 345 347 348 347
333 329 330 331 331 330 329 329 329 332 339 339 344 345 346 345 343 343 343 341 340 339 342 344 345 345 347 348 347 347 346 345 345 345 343 343 342 342 342 344 344 345 346 343
334 333 331 330 330 331 332 333 332 335 338 339 341 342 343 343 344 343 340 339 339 337 340 341 343 344 345 346 346 344 345 345 344 342 342 341 340 340 340 340 341 342 344 342
332 332 331 331 330 330 330 332 332 335 336 337 339 341 341 342 342 341 339 339 338 334 339 340 340 340 343 343 344 345 344 343 342 342 342 341 340 339 338 340 340 341 341 339
330 332 333 330 327 326 326 333 331 332 335 338 338 342 342 339 339 339 338 336 334 332 337 337 337 338 339 340 339 340 341 340 339 338 339 339 339 340 339 339 338 341 340 338
327 326 330 328 325 324 327 331 331 331 333 335 339 339 338 337 336 335 335 333 330 332 335 334 334 333 334 334 335 335 335 335 335 335 335 335 336 336 335 334 334 335 334 335
327 330 329 324 324 326 330 327 329 331 333 333 334 334 335 335 334 333 332 330 330 328 326 324 325 324 323 323 325 323 321 325 319 320 321 322 323 326 329 329 330 329 329 327
326 331 327 325 327 326 326 327 327 328 330 332 331 332 333 333 332 331 330 329 326 324 322 322 322 321 318 315 314 313 312 312 312 312 311 311 311 312 312 314 320 322 322 322
326 325 323 323 323 323 324 324 324 325 328 329 330 331 332 332 331 330 329 327 326 325 324 322 316 312 311 311 311 311 310 309 309 308 308 308 310 313 316 316 316 317 317 317
325 325 324 323 323 322 322 321 321 323 325 327 329 329 330 331 330 330 328 327 326 324 323 322 320 319 315 311 309 308 307 308 306 309 308 311 314 313 313 314 313 315 315 315
323 323 323 322 322 322 321 321 321 321 323 326 328 329 329 329 329 329 328 326 325 324 323 322 320 318 314 311 309 315 314 314 313 313 313 313 312 308 306 305 305 306 307 306
323 322 322 322 322 322 321 321 321 321 322 322 324 327 328 328 328 328 327 326 325 324 323 322 321 318 313 310 308 307 311 312 312 309 311 311 311 312 309 304 303 303 303 304
323 324 322 323 322 322 321 322 321 320 321 321 322 322 323 325 327 327 326 326 325 324 323 322 321 318 315 310 308 307 307 309 310 309 310 310 310 310 310 310 309 308 301 301
323 322 322 323 322 322 322 321 320 320 320 320 320 321 321 322 323 324 324 324 325 324 323 322 321 319 316 312 309 307 307 309 306 308 308 308 308 308 308 308 309 308 307 304
323 322 322 323 322 322 321 320 319 319 318 318 318 318 319 320 320 321 322 323 323 323 323 323 322 319 317 314 310 310 309 307 307 307 307 306 306 306 306 307 307 307 307 307
323 323 322 322 322 322 320 319 318 317 318 317 317 318 318 317 317 318 320 321 321 322 323 323 322 320 318 315 312 311 310 308 304 306 306 306 306 306 306 306 306 306 306 305
323 323 322 321 321 320 319 318 317 317 317 318 318 317 316 316 316 317 318 318 319 319 320 321 321 320 318 316 313 311 309 308 304 305 306 306 306 306 306 305 305 305 305 303
322 322 321 321 320 319 318 318 318 317 317 316 316 315 315 315 315 315 315 315 316 317 317 318 319 318 318 317 314 311 309 309 307 306 307 306 306 306 306 306 306 306 305 304
321 321 320 319 319 318 318 319 317 317 316 315 315 314 313 313 313 313 312 312 314 315 316 317 317 317 318 317 314 312 310 309 309 308 308 307 307 306 307 306 307 307 306 305
320 320 320 321 321 320 318 317 315 315 314 313 312 312 311 311 311 311 311 310 311 312 314 315 315 315 316 315 314 312 310 310 310 309 309 308 308 307 308 308 307 305 306 306
320 321 320 319 318 317 315 313 312 311 310 311 311 311 311 311 311 310 311 311 311 311 313 314 314 313 314 314 314 313 310 309 309 310 309 309 308 308 308 308 308 307 306 306
320 319 318 317 315 314 311 310 310 310 310 310 310 310 309 309 309 308 308 309 310 311 311 311 311 311 310 309 311 311 311 310 309 308 309 309 308 308 308 308 307 307 307 306
318 317 315 313 312 311 310 310 310 310 309 309 309 308 309 309 309 308 308 307 307 307 309 311 310 310 310 309 309 309 308 310 309 308 308 307 307 308 307 307 306 306 306 305
315 313 312 311 310 310 310 310 309 309 308 309 308 307 307 308 308 308 309 308 307 307 309 309 309 309 308 309 308 308 308 307 307 307 306 305 305 306 306 306 306 305 306 305
312 312 312 311 309 309 309 308 308 308 307 307 307 306 306 307 306 308 308 308 309 307 308 308 309 308 308 308 308 308 307 307 306 305 305 303 303 303 304 304 304 305 304 304
312 312 311 309 309 308 308 308 307 307 307 307 306 306 305 305 306 306 307 308 307 306 306 306 307 307 308 307 307 308 307 307 306 305 305 304 302 302 303 304 305 305 305 305

GFSNGP_850_thetae_102.txt.gz
Theta_e
328 329 330 331 327 327 329 328 330 333 343 345 347 351 349 348 349 349 348 348 352 351 352 355 353 351 350 349 347 343 344 343 343 342 342 342 340 343 343 342 340 339 346 346
333 330 331 331 331 327 327 328 329 335 347 342 342 345 348 346 345 346 346 346 343 345 348 350 351 352 349 349 350 345 343 344 345 345 344 341 341 341 341 342 342 341 340 345
337 334 332 331 332 331 328 328 329 345 344 337 335 335 348 347 346 347 345 343 342 343 343 345 345 351 351 351 348 348 346 346 346 346 344 343 343 345 344 342 340 336 336 337
337 333 335 333 331 331 335 330 339 339 340 340 342 347 346 346 346 344 342 341 339 339 342 344 344 344 348 349 349 348 348 348 346 346 345 343 342 342 341 342 341 340 341 336
336 334 333 332 332 331 334 336 334 337 338 342 343 343 344 345 344 342 340 340 338 336 340 341 343 344 345 346 346 347 345 345 345 344 341 341 341 340 340 339 340 341 342 341
333 336 335 333 329 328 330 337 332 333 337 339 339 342 345 341 341 341 338 337 336 336 338 339 340 341 342 343 343 343 344 344 343 342 342 342 340 339 339 338 340 340 341 340
329 333 332 329 328 326 329 335 331 333 335 339 343 341 340 339 338 338 336 333 331 336 337 338 338 338 339 339 339 339 339 339 339 340 338 338 338 338 339 338 338 338 338 338
332 334 334 327 327 327 332 329 331 333 334 336 336 339 338 337 336 335 333 331 330 334 335 334 335 334 336 335 335 335 335 334 336 336 336 335 335 334 335 334 335 336 335 333
330 335 329 327 329 328 329 329 329 330 331 334 333 335 337 336 335 333 332 331 330 328 326 325 325 324 323 322 322 319 317 319 324 317 314 315 316 316 317 319 326 326 325 324
328 330 326 325 325 325 326 326 325 327 329 330 331 333 334 335 334 332 331 330 328 326 324 323 322 318 314 312 311 311 310 311 310 309 309 309 310 311 316 318 317 315 319 320
325 326 325 324 323 324 323 322 322 324 327 328 330 331 333 333 333 331 330 329 328 327 326 320 314 312 313 313 312 310 309 309 308 309 309 308 311 312 314 317 317 318 319 319
324 325 327 324 324 323 323 322 321 322 324 327 328 329 330 331 331 330 329 329 328 326 325 324 323 320 317 313 312 313 312 313 312 313 313 313 314 312 312 310 309 313 315 316
324 324 324 323 324 324 322 322 323 322 323 323 326 327 327 328 329 329 329 328 327 327 326 324 323 321 316 313 311 310 315 315 315 313 315 314 314 314 313 310 308 304 304 305
323 325 325 324 324 323 322 322 322 322 323 322 323 323 324 329 325 327 327 327 327 326 325 325 323 322 318 314 311 310 308 311 313 313 310 312 312 312 313 313 311 311 310 303
324 324 324 324 323 324 323 323 322 321 322 322 322 322 322 323 326 328 328 327 327 326 325 324 324 323 321 317 312 310 309 312 310 310 311 311 310 310 311 310 311 312 309 307
325 324 323 324 324 324 323 322 321 321 320 320 320 320 321 321 322 322 323 324 324 324 323 324 323 323 322 319 315 311 310 310 310 309 310 309 309 309 309 309 309 309 309 310
325 324 323 324 324 323 322 321 321 319 320 319 318 319 319 319 319 319 319 320 321 322 323 323 323 322 322 320 318 315 314 312 308 307 309 308 307 308 308 308 308 308 308 308
325 324 323 323 322 322 321 320 319 319 319 319 320 318 318 317 317 317 318 318 318 318 319 319 320 323 322 320 319 317 314 312 311 306 307 308 307 308 307 308 307 307 307 306
324 323 323 322 322 321 319 319 319 319 319 318 317 317 316 316 316 316 317 316 315 315 315 315 317 318 320 320 319 318 315 312 311 309 306 308 308 307 308 307 307 307 307 306
324 323 322 321 320 319 319 320 319 318 318 318 316 315 315 314 314 314 314 314 314 314 313 313 313 313 316 318 318 318 316 314 311 310 308 308 308 308 307 308 307 307 307 307
323 321 320 321 321 321 321 320 318 317 317 315 313 313 313 313 313 312 312 312 312 311 312 312 314 316 316 315 316 317 317 314 312 310 310 309 309 308 308 308 308 308 308 308
322 322 322 321 320 319 318 317 315 314 312 312 312 312 312 311 311 310 310 310 310 311 311 312 312 313 312 314 314 315 315 315 312 311 311 310 310 309 309 308 309 308 307 307
321 321 320 320 319 317 316 313 312 311 312 312 311 311 310 310 310 309 309 309 309 308 308 310 312 312 311 311 311 313 313 313 313 311 310 310 310 309 309 309 309 309 309 308
320 319 319 318 317 316 313 311 312 311 311 310 310 309 309 309 308 308 308 309 309 308 308 308 309 310 310 310 311 311 310 311 311 312 311 309 309 309 309 309 309 308 308 307
319 318 317 316 314 313 312 312 311 311 311 310 310 309 308 309 308 308 309 308 306 307 309 308 308 308 308 308 310 309 309 308 308 308 308 309 309 308 308 308 308 307 307 306
318 316 314 313 312 312 312 311 310 311 309 308 308 308 307 306 308 307 308 308 309 307 308 308 307 308 307 307 307 308 309 308 307 307 307 307 308 308 307 307 306 306 306 305
315 313 313 313 311 311 310 310 310 309 309 308 307 306 307 307 306 306 307 309 308 307 307 307 307 306 306 306 307 308 307 307 307 306 306 306 305 305 306 306 304 304 304 304

GFSNGP_850_thetae_105.txt.gz
Theta_e
327 329 328 329 329 326 323 324 328 344 347 344 344 348 348 348 350 350 350 349 347 346 345 344 345 349 350 349 348 346 343 343 341 343 344 344 344 343 342 344 346 342 346 345
332 333 333 333 330 332 329 325 341 348 346 340 343 346 346 345 345 347 348 350 351 350 350 351 351 350 349 348 347 345 345 343 343 343 343 342 343 341 341 341 343 342 339 341
335 331 333 335 331 332 335 335 335 343 342 336 336 336 338 344 344 346 346 344 344 346 350 351 352 350 350 350 348 345 344 343 343 345 345 344 342 342 343 343 342 342 342 340
333 332 336 332 329 330 334 334 333 337 336 333 333 332 333 345 346 346 344 342 342 342 345 348 349 351 352 349 349 348 347 346 346 346 346 345 343 342 341 342 342 341 338 336
332 332 333 333 332 330 330 333 333 335 341 342 337 345 347 346 344 343 341 340 339 339 341 342 344 344 347 350 351 349 347 346 347 346 345 343 341 341 340 340 342 342 340 342
328 332 336 333 330 328 328 336 330 335 338 341 344 345 344 342 341 340 340 339 338 336 339 340 341 343 342 346 347 346 347 346 344 344 343 341 340 341 340 340 339 340 340 340
331 334 332 330 329 327 335 336 330 334 328 332 330 340 340 340 339 339 338 336 336 337 338 338 339 339 342 343 343 342 343 343 343 343 342 341 340 338 339 339 338 339 339 338
325 327 332 328 328 327 330 330 331 337 335 339 335 339 339 337 336 335 334 332 336 337 337 337 337 338 339 339 339 339 339 339 339 339 340 339 338 338 337 336 337 337 336 336
329 328 323 328 329 329 329 327 327 329 335 338 337 337 336 335 334 332 331 330 333 333 334 335 336 335 336 336 336 335 334 333 332 333 333 333 334 333 330 331 332 332 331 326
330 328 329 328 325 325 325 324 324 326 328 332 336 336 335 333 332 331 330 329 328 327 326 324 323 322 323 323 321 318 315 315 319 317 313 312 312 312 313 314 315 319 321 322
330 329 325 324 324 324 323 321 321 324 327 329 332 335 334 333 332 331 330 328 328 326 323 322 319 315 312 311 312 311 311 311 311 310 310 309 310 311 312 314 317 318 317 317
327 327 326 324 324 323 322 321 322 322 325 326 328 332 332 332 331 330 329 329 328 327 325 320 314 312 313 313 311 311 309 309 309 310 312 310 309 309 310 312 315 315 316 317
327 325 324 323 324 323 322 322 322 323 323 324 326 329 329 331 328 329 327 328 328 327 326 325 322 318 317 314 312 313 315 316 315 314 315 314 314 313 313 311 310 310 306 305
325 325 324 324 324 324 323 323 322 323 323 323 323 323 326 327 327 324 325 327 328 327 326 325 325 323 320 316 314 312 310 314 315 314 312 313 314 313 312 312 312 312 311 310
324 324 325 324 324 323 322 323 322 321 321 322 322 323 323 324 324 326 327 327 327 327 326 325 325 324 323 321 319 312 310 309 309 312 312 311 312 312 312 311 311 312 311 310
325 325 324 324 324 324 323 323 322 321 321 320 320 321 321 321 321 321 324 324 326 325 324 325 324 323 322 321 321 319 312 310 310 311 309 310 311 310 310 310 309 309 310 309
325 324 324 324 325 323 322 321 320 320 319 319 319 319 319 318 318 318 318 319 319 319 321 322 322 323 323 324 323 322 319 312 310 311 309 309 308 307 307 308 308 309 309 309
325 325 324 324 324 322 321 320 319 319 319 320 320 318 318 317 317 317 317 317 317 317 317 318 318 318 319 320 321 321 321 315 313 312 309 309 309 306 307 307 308 307 308 308
325 324 323 323 322 321 320 319 319 319 319 319 318 317 317 316 315 315 315 315 315 315 315 314 314 313 314 315 316 319 319 319 315 313 312 309 308 308 307 307 307 307 307 307
324 323 323 322 321 320 319 319 319 319 318 317 317 316 315 314 314 313 313 311 311 312 312 312 312 312 312 313 312 313 316 318 315 313 312 311 308 308 308 307 308 307 307 307
324 323 322 320 319 319 320 319 319 318 317 316 315 313 312 312 311 311 309 309 309 310 310 311 311 311 315 315 314 314 314 315 316 315 311 310 310 308 308 308 307 308 307 307
322 320 320 320 320 320 319 317 317 316 313 312 312 312 309 309 310 309 309 310 309 308 306 306 306 310 312 313 313 311 310 312 314 315 313 311 310 309 309 308 308 308 308 308
321 321 321 321 320 319 318 315 314 312 312 312 311 309 308 310 310 309 308 306 305 304 306 307 308 308 309 311 312 312 311 310 312 313 313 312 310 310 310 310 309 309 309 308
321 321 320 319 318 317 316 313 312 311 311 310 310 309 309 309 308 308 307 306 305 304 304 307 307 308 308 309 310 310 310 310 311 311 311 311 311 310 310 310 310 309 310 309
320 319 318 317 317 316 314 312 312 311 309 309 310 309 309 309 308 307 307 307 306 304 304 306 306 307 308 308 308 308 309 309 308 308 307 308 310 311 310 310 309 309 308 308
319 318 318 317 315 313 312 312 311 311 311 311 310 310 308 306 308 307 307 308 307 306 304 305 305 305 306 306 307 307 308 308 308 308 307 306 306 307 308 309 309 309 308 308
319 318 316 315 313 312 312 312 310 310 310 308 308 308 307 307 307 306 306 306 307 307 305 306 305 304 303 304 304 305 308 308 308 308 306 306 305 305 306 306 307 308 308 308

GFSNGP_850_thetae_108.txt.gz
Theta_e
324 331 331 331 331 332 329 323 323 326 341 342 339 347 348 349 348 346 343 342 342 342 342 345 345 344 344 343 343 344 342 346 344 344 342 342 343 344 345 345 344 343 346 346
332 329 330 333 332 335 336 335 347 346 347 342 346 346 347 349 349 348 349 344 342 343 345 345 345 343 340 345 345 345 345 346 345 342 342 343 344 344 343 341 341 345 345 343
332 328 331 334 331 333 335 334 335 344 341 338 340 344 344 346 348 348 348 347 345 345 345 345 345 343 341 343 347 346 347 344 343 342 343 343 342 342 342 342 342 341 343 342
327 326 334 330 329 329 332 332 336 340 338 335 332 339 344 345 346 347 348 347 347 347 347 346 345 343 344 344 348 348 346 346 344 343 344 344 343 342 342 341 342 341 341 341
326 328 330 331 329 330 329 331 334 339 339 340 340 343 342 344 345 345 343 343 343 343 346 347 347 348 347 348 348 348 346 345 344 345 344 343 344 342 341 340 341 341 340 338
324 329 331 329 329 328 328 332 332 334 334 337 342 343 340 341 341 340 339 338 337 338 340 340 343 348 349 349 348 348 348 347 347 345 346 344 341 341 340 339 340 341 341 341
326 328 327 326 325 327 334 331 333 332 333 337 337 337 337 338 338 338 337 336 336 337 337 338 341 342 343 345 345 346 347 345 346 344 343 341 340 340 340 339 339 339 339 339
321 325 327 326 327 328 328 333 332 331 328 334 332 329 329 336 336 334 332 334 335 337 337 336 338 339 342 341 342 342 342 341 342 341 341 340 339 338 338 338 338 338 338 337
327 323 321 326 327 329 329 334 331 337 329 327 329 329 332 335 333 331 331 334 332 333 334 335 336 337 338 338 338 338 338 338 338 338 338 338 337 336 335 335 336 336 336 335
323 325 326 326 323 323 322 325 329 330 331 335 336 336 334 333 332 332 330 329 331 332 332 330 331 332 332 333 333 332 331 328 327 328 329 330 329 327 327 329 331 331 329 327
323 325 327 324 324 324 321 322 325 327 333 334 335 334 333 331 330 329 329 329 327 325 325 324 322 319 317 314 313 312 312 312 312 313 312 311 311 311 313 315 315 316 316 319
323 325 322 323 323 323 322 321 322 325 327 333 333 332 332 331 330 330 328 328 328 326 325 317 314 312 312 312 312 311 310 310 309 310 310 310 310 310 311 311 314 316 316 316
327 325 324 323 323 322 321 321 322 322 324 327 331 331 330 331 330 326 327 325 325 325 325 325 322 315 314 314 313 313 313 314 314 313 314 314 313 313 313 312 311 309 310 309
324 323 324 323 322 322 322 322 323 323 323 323 326 328 328 327 328 326 325 325 325 325 325 323 324 324 322 318 315 314 313 313 314 315 314 312 313 313 313 312 311 312 311 311
324 324 324 324 323 323 322 322 322 322 323 322 323 326 328 327 325 326 325 326 327 326 327 326 325 324 323 323 321 320 319 312 311 314 314 313 311 312 313 312 311 311 311 311
324 324 324 324 323 322 323 322 321 322 321 321 321 322 321 321 321 322 324 325 325 325 325 325 325 325 324 324 323 322 321 320 312 309 309 311 311 310 311 311 310 310 310 309
324 324 324 324 323 323 322 322 321 320 319 320 319 319 319 319 318 318 317 317 318 318 320 322 322 322 321 323 322 322 322 322 320 312 311 310 309 309 309 309 309 309 308 309
325 325 324 324 323 322 321 320 320 319 319 319 318 318 318 317 317 316 316 316 316 316 316 316 315 315 314 315 315 318 320 321 320 320 317 311 309 309 309 307 307 308 308 308
325 324 324 324 323 322 320 319 319 319 319 319 319 319 318 317 316 315 315 315 315 314 314 313 312 312 311 311 313 313 314 316 318 319 318 315 313 310 308 308 307 307 307 307
324 324 323 323 322 321 319 319 319 319 319 319 318 317 316 316 314 312 311 309 309 309 310 310 310 310 311 311 312 315 313 313 313 316 318 317 316 313 309 308 307 307 307 307
324 323 322 321 320 319 319 319 319 318 317 317 317 316 315 310 307 307 309 308 308 307 307 306 304 305 304 306 310 314 315 313 312 312 313 315 314 313 311 308 308 307 307 307
323 322 321 320 319 319 319 319 318 318 317 317 314 311 306 306 308 309 309 308 304 303 303 303 305 306 306 306 307 311 313 313 312 310 310 312 314 314 311 307 308 308 308 307
323 322 321 319 319 319 319 319 318 317 315 313 308 305 305 309 308 309 308 306 305 304 303 304 304 306 307 307 307 309 311 311 311 309 309 311 312 312 309 310 309 308 308 308
322 321 320 320 320 319 318 317 316 314 308 306 306 308 309 309 309 308 307 307 306 306 304 304 305 305 305 307 307 307 309 309 309 308 309 309 311 311 310 310 309 309 309 309
321 320 321 320 319 318 317 315 314 312 307 307 308 308 308 309 309 308 307 306 306 306 303 304 304 304 304 304 305 306 308 308 309 309 308 308 307 307 310 309 309 310 309 309
321 320 319 318 318 317 316 315 313 311 308 309 309 309 309 308 308 308 307 306 306 306 304 303 303 304 304 304 303 304 305 308 308 308 308 308 307 306 306 308 310 309 309 309
321 320 318 317 316 316 315 312 311 310 310 310 309 309 308 307 307 307 307 306 306 305 306 305 306 306 305 305 305 303 303 305 306 306 307 306 306 306 305 305 305 307 307 308

GFSNGP_850_thetae_111.txt.gz
Theta_e
321 329 329 332 334 335 332 332 319 321 321 337 343 345 343 342 341 341 342 342 342 344 343 345 345 345 344 342 342 346 346 343 342 342 344 344 341 343 344 344 344 344 342 342
329 329 330 330 331 334 334 336 335 341 343 341 345 347 347 345 344 342 341 342 341 339 340 342 343 343 344 342 342 345 343 343 343 344 344 343 344 343 344 344 344 343 343 343
329 326 328 330 329 331 333 336 337 339 339 337 337 340 343 347 348 346 343 343 342 342 341 342 342 343 345 344 343 343 343 344 344 344 344 342 342 343 344 343 343 341 341 342
326 325 331 327 328 329 330 332 336 340 337 335 340 342 343 345 346 343 343 344 344 344 344 344 344 339 344 344 343 342 343 345 344 344 343 342 343 343 342 342 342 342 341 341
325 325 327 331 329 328 328 329 334 338 336 341 342 342 338 343 344 343 343 343 342 342 344 345 345 340 341 343 337 341 344 344 344 343 343 343 344 343 342 342 341 341 341 340
322 327 331 328 327 328 327 330 333 336 339 340 338 341 338 340 340 339 338 337 338 340 342 343 344 344 343 344 339 339 336 343 345 344 343 344 343 343 341 340 340 341 341 340
325 325 324 322 326 326 331 328 333 336 337 337 337 337 337 338 337 335 334 335 336 337 339 340 342 344 346 347 346 344 345 345 344 345 345 344 343 341 340 340 339 340 341 340
319 323 324 324 325 327 326 333 332 335 335 332 330 335 332 332 332 331 334 334 335 335 336 338 338 340 342 343 342 341 342 343 344 343 342 342 341 340 340 339 339 339 338 338
323 322 320 324 326 328 331 332 330 331 330 328 330 330 329 330 330 332 334 334 334 334 335 336 337 338 339 339 339 339 339 340 340 341 341 341 340 338 338 337 337 337 337 336
322 322 324 323 326 329 331 331 333 328 330 327 328 328 329 331 330 329 328 332 333 333 333 333 334 334 335 336 336 335 336 336 336 336 336 336 335 333 333 334 335 335 334 334
321 324 325 322 322 326 328 331 332 332 330 331 333 335 333 331 330 328 327 327 326 325 327 327 325 325 324 324 323 322 321 322 322 320 317 315 316 317 319 319 321 324 324 320
321 324 323 323 322 325 324 326 329 330 332 333 334 333 331 330 329 328 327 326 326 325 322 316 313 313 312 311 311 311 311 310 310 310 310 310 310 310 311 312 313 315 316 316
324 326 323 323 321 321 322 323 323 326 332 334 334 333 331 330 329 328 324 324 324 324 324 323 322 315 314 314 313 313 313 313 313 312 313 313 313 312 312 312 311 310 310 310
324 325 323 322 321 321 321 322 322 321 326 332 331 331 330 330 329 327 326 325 324 323 324 324 323 323 322 320 318 316 314 314 313 313 314 314 312 313 313 313 312 311 311 311
324 324 323 322 321 322 322 322 322 322 323 327 328 328 327 330 328 328 327 327 326 326 326 326 326 325 324 324 323 322 321 321 317 311 311 312 312 312 311 312 312 311 311 310
323 323 323 322 322 322 322 322 322 322 322 323 325 325 324 324 323 324 325 326 325 326 326 325 326 325 324 324 324 323 323 322 322 321 316 310 309 310 311 310 311 310 310 309
324 323 323 322 322 322 322 321 322 322 323 323 322 323 323 324 323 323 322 320 319 318 319 323 323 323 323 322 321 321 322 322 322 321 321 320 311 311 310 310 310 309 309 309
324 324 324 323 322 322 322 321 321 321 321 321 320 320 319 318 317 315 315 315 316 316 316 316 316 315 315 314 314 314 314 315 316 317 318 319 319 318 312 309 309 309 307 308
324 325 324 323 323 322 322 321 320 320 319 319 318 318 317 317 316 315 314 314 314 313 312 312 312 311 311 310 310 309 310 311 313 313 315 316 318 317 315 313 310 308 307 307
325 324 324 323 322 322 321 320 319 319 318 318 318 318 317 315 314 312 308 305 305 304 304 305 304 304 303 304 304 306 309 311 313 313 312 312 312 314 316 315 316 310 308 307
325 324 324 323 322 320 320 319 319 318 318 318 318 317 316 314 309 305 305 305 304 302 302 302 303 303 305 306 306 305 307 310 314 314 313 312 311 309 309 314 314 313 308 307
325 323 323 322 320 319 319 319 319 318 317 316 316 315 312 306 305 304 305 305 303 304 303 303 303 303 305 305 307 307 306 307 311 313 312 312 310 308 309 311 313 313 311 308
324 323 322 321 320 319 319 319 318 317 317 316 315 310 304 305 305 306 307 306 305 305 304 303 304 304 304 305 306 306 307 307 308 310 310 309 308 308 310 311 311 311 310 308
323 322 321 320 319 319 318 318 318 317 316 313 307 304 306 306 306 306 307 306 306 306 303 304 304 303 303 302 302 303 304 306 307 308 309 308 309 308 308 310 310 310 309 308
323 322 321 319 319 319 319 318 317 314 311 307 305 307 307 307 307 307 307 306 306 305 304 303 303 304 304 303 302 303 304 305 307 308 309 308 308 307 307 307 310 309 309 309
322 321 320 320 319 319 318 317 316 313 309 306 307 307 307 308 308 308 308 307 306 305 305 304 304 306 305 305 305 303 303 304 303 305 305 305 306 307 307 306 307 308 309 309
322 320 320 319 319 318 317 315 314 312 309 308 308 308 309 309 307 307 307 307 306 306 305 305 305 305 305 305 305 305 303 303 304 304 305 303 303 305 306 305 305 305 305 307

GFSNGP_850_thetae_114.txt.gz
Theta_e
321 327 330 331 331 333 331 331 319 328 337 343 342 344 339 341 342 342 343 344 345 345 344 343 344 344 345 346 345 345 345 345 344 343 341 343 342 342 341 340 342 343 342 341
329 327 329 330 330 333 334 338 336 336 342 342 342 345 345 341 341 342 343 342 344 344 344 344 345 345 345 344 344 341 341 345 346 343 341 342 343 343 342 342 343 343 344 344
326 326 327 330 329 331 332 335 336 340 336 337 339 340 342 345 341 341 343 343 343 343 343 341 343 344 344 344 343 342 345 345 342 343 343 343 343 342 343 343 344 344 343 339
326 325 330 327 327 327 329 331 334 338 337 340 339 338 339 341 343 342 342 342 343 343 343 343 343 342 343 342 343 343 342 343 343 344 343 343 344 342 343 343 342 342 342 341
325 325 325 331 330 328 327 329 331 337 337 341 340 338 337 338 340 341 342 343 342 342 343 344 343 343 342 342 344 344 343 342 342 337 338 341 343 342 342 342 342 342 342 341
321 326 329 326 328 327 326 331 331 335 339 341 338 340 340 337 337 336 336 337 339 340 341 343 344 342 338 339 343 339 340 342 345 344 341 342 343 343 343 342 341 341 341 340
322 324 323 321 326 327 332 328 332 337 339 338 335 336 338 336 333 333 335 336 336 337 339 340 342 342 342 342 343 341 338 339 339 343 342 343 343 342 340 340 340 340 340 339
318 322 322 322 325 328 325 330 334 337 337 336 336 337 336 332 331 333 335 336 336 336 337 337 339 342 343 343 342 344 343 341 336 336 340 343 342 341 339 339 339 339 338 337
319 319 319 322 324 326 330 332 332 335 335 334 333 333 330 330 333 334 334 334 334 335 336 337 337 338 339 338 336 338 339 340 338 335 340 341 341 340 339 339 338 338 338 337
320 322 323 324 328 332 333 331 331 331 330 331 330 330 329 329 329 332 332 332 333 332 333 333 334 335 336 336 336 336 337 336 336 335 336 336 337 337 336 337 338 338 336 334
319 322 324 324 326 329 330 332 331 331 329 328 329 331 330 328 327 326 325 324 325 326 326 326 328 328 329 329 329 330 330 328 325 323 323 323 325 326 328 331 332 332 331 328
320 324 322 323 326 326 325 330 330 329 328 330 333 330 330 328 326 325 324 323 323 321 316 313 313 312 312 312 311 311 311 311 311 311 310 310 310 311 312 313 314 315 315 315
322 325 322 323 325 326 324 325 331 331 332 332 332 330 329 327 326 325 325 324 324 323 323 321 315 314 314 313 313 313 314 314 314 313 313 313 312 311 312 312 312 311 310 310
322 324 321 322 323 323 320 320 320 324 331 331 330 331 329 328 327 326 326 325 324 324 324 324 323 323 322 320 319 317 315 317 316 313 312 313 313 312 312 312 313 312 311 310
323 324 324 321 321 322 321 321 321 323 332 331 330 330 331 328 326 326 325 325 326 326 326 326 325 324 324 323 323 323 322 322 321 320 318 314 311 311 311 311 310 312 311 310
323 323 323 322 321 321 322 321 321 322 327 328 329 328 329 326 325 325 325 325 325 324 325 325 324 325 324 324 323 323 323 322 322 321 322 321 320 317 310 310 310 310 310 310
322 321 321 321 321 322 322 322 321 321 321 326 325 324 324 323 323 323 322 320 319 319 319 319 321 322 321 321 320 320 319 318 319 319 320 321 320 320 318 312 311 310 309 309
323 323 323 323 321 322 322 322 321 321 321 321 322 323 322 322 321 317 313 312 312 313 315 316 316 316 315 315 314 314 313 312 312 313 314 315 316 318 318 318 317 311 309 309
323 323 323 323 322 322 322 321 322 322 321 322 322 321 319 317 316 314 314 314 313 312 311 309 308 306 305 304 304 303 304 304 306 307 310 312 313 314 315 316 318 317 314 309
323 323 323 323 322 321 321 321 321 321 321 320 319 318 317 317 315 315 314 311 305 303 302 302 302 302 302 302 303 304 304 304 303 307 309 312 312 312 311 311 310 310 314 314
323 323 324 324 323 321 321 322 321 320 319 318 318 317 317 315 314 309 304 304 302 302 302 303 302 302 302 303 304 304 305 306 306 305 307 311 313 312 311 310 309 308 309 311
325 325 324 324 323 322 321 321 320 319 318 317 317 316 315 314 308 304 304 302 303 304 303 302 302 303 303 303 303 304 305 305 306 306 307 310 312 312 311 309 308 308 309 310
326 325 324 323 323 322 321 320 319 318 318 317 317 316 315 310 305 304 304 305 305 305 302 303 303 303 302 302 302 302 302 303 304 306 306 307 309 309 308 308 307 308 309 310
325 324 324 323 323 321 319 318 318 318 318 317 317 315 310 304 304 306 305 305 305 304 303 303 303 303 303 303 302 303 304 304 304 305 307 308 308 308 308 307 306 307 309 309
325 324 323 322 321 320 319 319 318 317 316 315 311 306 304 305 305 305 306 306 305 304 304 303 304 305 304 304 303 303 303 303 304 304 304 303 303 303 304 307 307 306 308 308
325 323 322 322 321 320 319 318 317 317 314 311 307 305 305 306 306 307 307 308 307 306 304 304 305 305 304 304 305 305 304 304 304 304 305 305 304 303 302 305 306 306 306 306
323 322 321 320 320 319 319 318 318 316 314 311 308 306 306 306 306 307 308 308 307 307 306 305 305 305 305 305 305 305 305 305 304 305 305 305 305 303 304 304 305 305 304 304

GFSNGP_850_thetae_117.txt.gz
Theta_e
325 330 331 332 333 337 333 337 326 330 341 345 345 346 345 342 343 343 343 344 345 344 345 343 342 344 343 344 344 344 343 343 343 345 345 345 343 344 341 341 340 338 340 342
330 329 328 332 330 335 338 340 341 341 343 341 342 345 344 342 343 343 344 345 346 344 344 343 343 342 342 343 344 344 345 345 344 345 345 345 341 343 343 342 339 341 343 342
328 328 328 331 330 330 335 337 339 343 342 339 342 343 344 343 343 344 344 345 346 345 344 344 343 342 343 343 344 344 344 344 344 344 345 344 342 341 343 342 341 342 342 343
329 329 330 329 329 330 332 333 337 340 339 340 339 338 340 342 342 343 342 343 343 344 344 344 343 341 340 343 344 343 343 343 342 345 345 343 342 343 343 343 342 342 342 343
330 331 328 331 330 330 330 331 334 339 339 340 338 337 337 340 341 341 341 340 342 342 342 343 343 343 342 341 342 342 342 342 343 344 343 344 343 343 343 343 342 342 341 341
328 329 329 330 328 328 328 333 331 338 339 340 339 341 338 337 337 339 340 340 341 341 341 341 342 342 342 342 340 341 343 343 342 343 343 339 339 340 341 342 342 342 342 341
330 331 328 325 326 328 333 332 334 338 338 341 341 340 334 333 333 334 336 337 338 339 340 342 342 342 342 342 339 342 341 340 341 339 341 340 339 341 342 342 342 341 339 339
328 331 329 324 326 332 329 331 335 338 337 337 334 334 332 332 333 334 335 336 337 337 338 339 340 341 340 341 341 342 340 339 339 338 339 337 338 340 341 340 340 339 339 339
329 329 325 324 326 326 326 334 335 336 334 333 333 332 331 332 332 333 334 334 336 337 337 336 337 337 337 337 338 339 338 338 337 338 335 336 330 338 336 338 339 339 337 338
327 327 326 326 326 327 330 333 334 335 334 332 332 331 331 330 330 332 332 332 333 333 333 333 334 335 336 336 336 336 336 336 336 337 336 331 333 335 337 338 338 338 338 337
328 326 327 327 327 328 331 331 332 332 331 332 331 330 330 329 328 328 328 327 326 327 328 326 325 326 324 323 324 328 329 330 332 333 333 333 330 331 333 334 334 334 334 332
324 328 329 328 326 328 330 332 330 329 331 331 328 327 326 324 323 322 320 317 314 314 313 311 311 311 311 311 310 310 310 310 310 310 310 311 312 313 315 316 316 316 316 315
326 323 324 325 324 323 323 330 329 329 330 332 329 326 325 324 324 323 323 322 322 318 314 314 314 313 313 314 314 314 315 314 314 314 313 313 312 312 312 312 311 311 311 310
322 324 322 324 325 324 322 323 329 331 331 330 329 328 325 324 325 324 323 324 323 323 323 323 323 322 321 320 319 319 320 320 317 314 312 312 312 312 311 311 311 312 312 311
321 325 324 323 323 321 321 320 321 330 331 331 330 328 327 325 325 325 325 324 325 325 325 325 324 324 324 323 323 323 323 322 322 321 321 321 320 318 314 310 311 311 310 311
322 323 323 322 322 321 321 321 321 328 330 329 329 329 328 326 325 326 326 326 326 326 326 324 324 324 324 323 323 323 322 321 321 321 320 320 320 320 320 318 312 311 310 310
323 322 321 323 321 321 321 321 321 322 328 329 329 330 328 326 325 324 325 323 321 320 320 321 320 320 320 319 318 318 317 316 316 316 315 315 318 318 318 319 319 318 318 312
323 323 323 322 321 321 321 321 321 321 322 325 324 326 326 323 322 321 317 312 311 311 314 315 315 315 314 313 313 312 311 309 308 308 308 311 314 315 316 316 317 316 316 315
323 323 323 322 322 321 321 322 321 321 321 322 322 322 322 319 315 313 313 314 313 312 309 306 304 303 302 302 302 302 302 302 303 305 306 307 311 314 314 314 314 314 314 313
323 322 322 322 322 322 322 322 322 321 321 322 322 321 318 316 315 314 314 311 304 302 302 302 302 302 302 302 303 304 304 305 305 305 305 307 312 313 314 313 312 312 312 311
323 323 323 323 323 322 322 322 322 322 322 322 321 319 317 316 315 314 310 305 302 302 302 302 302 302 303 303 303 303 304 304 305 305 306 306 308 311 312 313 313 312 311 311
323 322 322 323 324 323 321 321 322 322 322 321 319 318 317 317 316 315 309 303 302 302 302 302 303 303 303 303 303 302 303 303 303 304 305 306 306 307 308 309 309 309 309 309
324 323 322 323 324 323 321 320 321 321 321 319 318 318 317 316 315 310 304 303 304 303 303 303 303 302 302 302 303 303 304 304 304 304 304 305 305 304 304 305 307 307 307 308
324 324 324 324 323 323 322 321 320 320 319 318 317 317 317 316 308 304 304 304 303 303 303 303 303 303 303 303 303 303 303 304 303 304 304 304 304 303 303 304 304 306 307 307
326 326 325 325 323 323 322 321 320 319 318 317 317 316 315 311 306 305 304 304 304 303 304 303 304 304 304 304 304 304 304 304 304 304 305 305 305 303 304 304 303 306 306 306
326 325 325 324 323 323 322 320 319 318 317 317 316 315 310 305 304 305 305 305 305 305 304 304 305 305 304 304 304 305 304 305 304 305 305 305 305 303 303 304 305 305 304 304
325 324 323 322 322 321 321 319 318 318 318 317 316 313 308 305 305 306 306 307 307 307 307 305 305 305 305 305 305 304 304 304 305 305 305 305 305 305 303 302 304 305 305 304

GFSNGP_850_thetae_120.txt.gz
Theta_e
324 324 329 332 333 335 336 334 335 331 334 337 345 345 348 346 346 346 346 347 346 342 341 342 342 342 348 351 352 351 349 351 350 349 348 347 349 348 347 345 346 341 340 341
326 325 328 330 330 331 335 337 338 339 338 344 343 344 349 346 346 345 346 346 348 347 341 343 342 342 342 350 349 344 343 343 348 344 342 342 346 346 345 345 343 344 344 344
329 326 328 329 328 330 331 333 335 337 340 341 345 344 344 347 347 347 347 348 347 348 347 346 343 343 342 344 346 343 344 344 346 347 346 343 344 346 344 342 343 342 342 342
329 329 334 327 329 329 330 331 332 333 338 342 341 340 339 344 345 344 346 348 348 348 346 344 345 344 343 342 342 343 344 345 344 345 345 345 345 345 343 342 343 343 341 342
330 330 327 327 329 331 332 330 329 331 340 341 339 341 337 336 337 339 340 341 343 342 344 344 343 343 343 342 341 342 343 343 343 342 342 342 343 345 344 342 343 342 342 339
327 331 330 332 331 329 329 333 330 332 341 342 342 347 340 334 335 334 338 339 339 340 342 342 342 343 342 340 340 340 339 339 342 343 343 344 344 343 342 343 343 342 341 341
328 331 328 328 329 329 334 336 336 339 342 342 343 339 333 333 333 334 336 337 338 339 341 341 340 343 344 344 342 342 340 341 342 341 341 342 342 339 338 340 341 342 342 340
329 331 331 327 329 333 333 335 338 341 342 335 336 335 334 333 333 335 336 336 336 338 339 339 340 341 343 344 343 341 340 341 340 340 338 338 337 339 339 340 333 335 339 338
329 331 331 329 329 330 330 336 339 339 339 338 335 334 334 333 333 332 332 335 336 336 336 336 336 337 340 341 340 342 342 341 339 338 338 336 336 333 332 335 333 331 333 337
331 331 330 330 330 330 334 337 339 336 337 334 333 331 330 333 333 333 332 331 333 334 335 334 335 335 335 336 337 337 338 337 335 335 334 332 331 336 335 332 333 337 336 337
327 329 330 331 333 334 335 338 337 335 333 332 332 333 334 335 334 333 329 328 329 327 325 325 326 326 326 328 330 333 333 333 333 334 334 334 332 334 335 333 332 332 331 331
327 326 332 331 331 334 336 335 335 335 333 331 331 331 330 329 327 325 323 323 322 319 316 312 311 311 311 311 311 312 314 313 311 311 312 314 319 320 319 319 320 317 317 317
326 327 330 328 329 330 333 334 333 334 332 331 329 328 327 327 327 325 325 321 319 318 315 314 314 314 314 315 316 315 315 314 314 316 317 316 317 317 315 312 312 312 311 311
327 328 328 327 327 329 331 334 333 334 333 331 330 329 328 327 328 327 327 326 324 322 323 323 321 319 318 318 319 320 319 319 319 316 314 313 312 314 316 316 316 316 311 311
325 327 326 326 327 326 327 329 333 334 333 331 330 329 329 328 328 328 327 327 327 327 327 327 326 323 323 323 323 322 324 323 323 321 321 320 320 320 319 319 316 313 313 312
325 327 327 327 327 326 327 328 328 330 332 332 331 330 329 329 330 329 329 329 329 328 328 326 325 324 324 324 325 325 323 320 320 323 322 321 320 320 319 318 318 317 317 315
326 327 327 327 327 326 326 326 327 331 331 331 331 331 328 329 330 330 329 329 327 324 323 322 320 320 319 318 319 319 318 318 315 316 317 318 318 317 318 318 317 317 317 318
326 326 326 326 326 326 326 326 327 328 330 331 331 329 329 329 327 325 323 317 313 314 314 314 314 313 312 311 310 311 310 310 311 312 313 313 314 315 315 316 315 315 314 314
326 326 326 325 325 326 326 326 326 327 331 331 331 330 328 326 323 320 318 318 318 316 313 309 304 307 308 302 308 310 310 310 310 311 311 311 312 313 313 314 314 313 313 313
326 327 327 325 325 325 326 326 326 327 328 328 328 326 325 322 317 315 316 317 313 310 302 303 303 303 302 301 302 310 310 311 311 312 312 312 313 313 313 313 313 313 313 312
327 327 327 327 326 326 327 327 327 326 326 327 325 323 321 317 315 315 314 312 305 303 305 302 310 310 309 309 309 310 310 311 311 311 312 312 312 312 312 312 312 312 311 311
327 327 327 327 327 327 327 327 327 326 324 324 324 322 318 317 315 315 313 312 308 305 309 310 308 305 304 307 309 309 310 310 311 311 311 311 311 310 309 309 309 310 310 310
327 327 327 326 326 326 327 327 326 324 322 322 322 320 318 317 316 314 312 310 307 304 308 307 303 303 303 309 310 310 310 310 310 309 309 309 308 307 307 307 306 307 308 310
328 327 327 327 327 327 326 326 326 325 322 322 321 319 319 317 315 313 310 307 307 304 308 303 303 303 307 308 309 309 309 309 309 309 309 308 307 307 307 307 306 305 307 307
329 328 328 327 327 327 326 325 325 323 322 321 320 317 318 317 316 312 310 308 303 305 306 303 304 304 308 308 308 308 309 309 307 309 308 308 308 307 306 304 306 306 306 307
329 328 327 326 327 326 325 324 323 323 321 320 319 318 317 316 313 311 309 308 305 306 307 305 305 304 308 308 308 309 308 308 309 309 306 309 308 308 308 304 303 306 307 307
328 327 327 326 326 325 324 323 323 322 321 320 319 318 317 315 312 311 309 309 309 308 308 308 308 306 308 309 309 308 308 308 306 307 308 308 308 308 308 307 307 302 304 307